<?xml version="1.0" encoding="UTF-8" standalone="no" ?>
<gpx xmlns="http://www.topografix.com/GPX/1/1" creator="MapSource 6.16.3" version="1.1" xmlns:xsi="http://www.w3.org/2001/XMLSchema-instance" xsi:schemaLocation="http://www.topografix.com/GPX/1/1 http://www.topografix.com/GPX/1/1/gpx.xsd">

  <metadata>
    <link href="http://www.garmin.com">
      <text>Garmin International</text>
    </link>
    <time>2016-09-17T07:51:17Z</time>
    <bounds maxlat="45.718381404876709" maxlon="8.234918117523193" minlat="45.683426856994629" minlon="8.174428939819336"/>
  </metadata>

  <wpt lat="45.683433311060071" lon="8.189533296972513">
    <name>ARRIVO</name>
    <sym>Diamond, Green</sym>
    <extensions>
      <gpxx:WaypointExtension xmlns:gpxx="http://www.garmin.com/xmlschemas/GpxExtensions/v3">
        <gpxx:DisplayMode>SymbolAndName</gpxx:DisplayMode>
      </gpxx:WaypointExtension>
    </extensions>
  </wpt>

  <wpt lat="45.684200003743172" lon="8.188399979844689">
    <name>PARTENZA</name>
    <sym>Trail Head</sym>
    <extensions>
      <gpxx:WaypointExtension xmlns:gpxx="http://www.garmin.com/xmlschemas/GpxExtensions/v3">
        <gpxx:DisplayMode>SymbolAndName</gpxx:DisplayMode>
      </gpxx:WaypointExtension>
    </extensions>
  </wpt>

  <wpt lat="45.693804323673248" lon="8.212371049448848">
    <name>RISTORANTE</name>
    <cmt>Strada</cmt>
    <desc>Strada</desc>
    <sym>Restaurant</sym>
    <extensions>
      <gpxx:WaypointExtension xmlns:gpxx="http://www.garmin.com/xmlschemas/GpxExtensions/v3">
        <gpxx:DisplayMode>SymbolAndName</gpxx:DisplayMode>
      </gpxx:WaypointExtension>
    </extensions>
  </wpt>

  <trk>
    <name>ACTIVE LOG</name>
    <trkseg>
      <trkpt lat="45.684199333190918" lon="8.188397884368897">
        <ele>462.05078125</ele>
        <time>2006-04-23T08:18:14Z</time>
      </trkpt>
      <trkpt lat="45.684242248535156" lon="8.188269138336182">
        <ele>462.05078125</ele>
        <time>2006-04-23T08:18:25Z</time>
      </trkpt>
      <trkpt lat="45.68439245223999" lon="8.187861442565918">
        <ele>462.05078125</ele>
        <time>2006-04-23T08:18:36Z</time>
      </trkpt>
      <trkpt lat="45.684542655944824" lon="8.187539577484131">
        <ele>461.5701904296875</ele>
        <time>2006-04-23T08:18:46Z</time>
      </trkpt>
      <trkpt lat="45.68464994430542" lon="8.187196254730225">
        <ele>462.5313720703125</ele>
        <time>2006-04-23T08:18:57Z</time>
      </trkpt>
      <trkpt lat="45.684757232666016" lon="8.186831474304199">
        <ele>463.4927978515625</ele>
        <time>2006-04-23T08:19:08Z</time>
      </trkpt>
      <trkpt lat="45.684757232666016" lon="8.186531066894531">
        <ele>464.4541015625</ele>
        <time>2006-04-23T08:19:17Z</time>
      </trkpt>
      <trkpt lat="45.684757232666016" lon="8.186402320861816">
        <ele>464.934814453125</ele>
        <time>2006-04-23T08:19:25Z</time>
      </trkpt>
      <trkpt lat="45.684757232666016" lon="8.186402320861816">
        <ele>464.4541015625</ele>
        <time>2006-04-23T08:19:34Z</time>
      </trkpt>
      <trkpt lat="45.684778690338135" lon="8.186402320861816">
        <ele>466.376708984375</ele>
        <time>2006-04-23T08:19:56Z</time>
      </trkpt>
      <trkpt lat="45.684800148010254" lon="8.186402320861816">
        <ele>472.1446533203125</ele>
        <time>2006-04-23T08:21:15Z</time>
      </trkpt>
      <trkpt lat="45.684821605682373" lon="8.186359405517578">
        <ele>471.6639404296875</ele>
        <time>2006-04-23T08:21:23Z</time>
      </trkpt>
      <trkpt lat="45.684757232666016" lon="8.186273574829102">
        <ele>473.1060791015625</ele>
        <time>2006-04-23T08:21:52Z</time>
      </trkpt>
      <trkpt lat="45.684778690338135" lon="8.186273574829102">
        <ele>468.29931640625</ele>
        <time>2006-04-23T08:25:57Z</time>
      </trkpt>
      <trkpt lat="45.684843063354492" lon="8.186037540435791">
        <ele>467.8187255859375</ele>
        <time>2006-04-23T08:26:04Z</time>
      </trkpt>
      <trkpt lat="45.68490743637085" lon="8.185544013977051">
        <ele>467.8187255859375</ele>
        <time>2006-04-23T08:26:14Z</time>
      </trkpt>
      <trkpt lat="45.685014724731445" lon="8.184900283813477">
        <ele>467.8187255859375</ele>
        <time>2006-04-23T08:26:26Z</time>
      </trkpt>
      <trkpt lat="45.68514347076416" lon="8.184149265289307">
        <ele>467.8187255859375</ele>
        <time>2006-04-23T08:26:39Z</time>
      </trkpt>
      <trkpt lat="45.68514347076416" lon="8.1838059425354">
        <ele>467.338134765625</ele>
        <time>2006-04-23T08:26:45Z</time>
      </trkpt>
      <trkpt lat="45.685014724731445" lon="8.183054924011231">
        <ele>466.857421875</ele>
        <time>2006-04-23T08:26:58Z</time>
      </trkpt>
      <trkpt lat="45.685014724731445" lon="8.182990550994873">
        <ele>466.857421875</ele>
        <time>2006-04-23T08:26:59Z</time>
      </trkpt>
      <trkpt lat="45.685014724731445" lon="8.182690143585205">
        <ele>466.857421875</ele>
        <time>2006-04-23T08:27:05Z</time>
      </trkpt>
      <trkpt lat="45.685079097747803" lon="8.182346820831299">
        <ele>466.376708984375</ele>
        <time>2006-04-23T08:27:13Z</time>
      </trkpt>
      <trkpt lat="45.685379505157471" lon="8.18108081817627">
        <ele>466.376708984375</ele>
        <time>2006-04-23T08:27:42Z</time>
      </trkpt>
      <trkpt lat="45.686109066009521" lon="8.177969455718994">
        <ele>466.376708984375</ele>
        <time>2006-04-23T08:29:03Z</time>
      </trkpt>
      <trkpt lat="45.687482357025146" lon="8.178935050964356">
        <ele>466.376708984375</ele>
        <time>2006-04-23T08:29:06Z</time>
      </trkpt>
      <trkpt lat="45.687525272369385" lon="8.178613185882568">
        <ele>471.183349609375</ele>
        <time>2006-04-23T08:29:14Z</time>
      </trkpt>
      <trkpt lat="45.6876540184021" lon="8.178248405456543">
        <ele>474.5479736328125</ele>
        <time>2006-04-23T08:29:22Z</time>
      </trkpt>
      <trkpt lat="45.687932968139648" lon="8.177647590637207">
        <ele>474.5479736328125</ele>
        <time>2006-04-23T08:29:35Z</time>
      </trkpt>
      <trkpt lat="45.688211917877197" lon="8.177154064178467">
        <ele>473.586669921875</ele>
        <time>2006-04-23T08:29:47Z</time>
      </trkpt>
      <trkpt lat="45.688555240631104" lon="8.176596164703369">
        <ele>473.586669921875</ele>
        <time>2006-04-23T08:30:02Z</time>
      </trkpt>
      <trkpt lat="45.688920021057129" lon="8.176295757293701">
        <ele>474.0672607421875</ele>
        <time>2006-04-23T08:30:17Z</time>
      </trkpt>
      <trkpt lat="45.689005851745605" lon="8.176167011260986">
        <ele>474.0672607421875</ele>
        <time>2006-04-23T08:30:22Z</time>
      </trkpt>
      <trkpt lat="45.689048767089844" lon="8.176059722900391">
        <ele>475.0286865234375</ele>
        <time>2006-04-23T08:30:26Z</time>
      </trkpt>
      <trkpt lat="45.689156055450439" lon="8.175930976867676">
        <ele>475.0286865234375</ele>
        <time>2006-04-23T08:30:32Z</time>
      </trkpt>
      <trkpt lat="45.689241886138916" lon="8.175737857818604">
        <ele>475.9898681640625</ele>
        <time>2006-04-23T08:30:40Z</time>
      </trkpt>
      <trkpt lat="45.689349174499512" lon="8.17556619644165">
        <ele>478.8739013671875</ele>
        <time>2006-04-23T08:30:48Z</time>
      </trkpt>
      <trkpt lat="45.689520835876465" lon="8.175351619720459">
        <ele>481.2772216796875</ele>
        <time>2006-04-23T08:31:00Z</time>
      </trkpt>
      <trkpt lat="45.68988561630249" lon="8.175094127655029">
        <ele>481.7578125</ele>
        <time>2006-04-23T08:31:19Z</time>
      </trkpt>
      <trkpt lat="45.690078735351563" lon="8.174858093261719">
        <ele>484.641845703125</ele>
        <time>2006-04-23T08:31:31Z</time>
      </trkpt>
      <trkpt lat="45.690250396728516" lon="8.174793720245361">
        <ele>485.1224365234375</ele>
        <time>2006-04-23T08:31:39Z</time>
      </trkpt>
      <trkpt lat="45.690529346466064" lon="8.174772262573242">
        <ele>486.083740234375</ele>
        <time>2006-04-23T08:31:51Z</time>
      </trkpt>
      <trkpt lat="45.690722465515137" lon="8.174622058868408">
        <ele>489.9290771484375</ele>
        <time>2006-04-23T08:32:02Z</time>
      </trkpt>
      <trkpt lat="45.690915584564209" lon="8.174450397491455">
        <ele>490.4097900390625</ele>
        <time>2006-04-23T08:32:13Z</time>
      </trkpt>
      <trkpt lat="45.69115161895752" lon="8.174428939819336">
        <ele>491.8516845703125</ele>
        <time>2006-04-23T08:32:24Z</time>
      </trkpt>
      <trkpt lat="45.691301822662354" lon="8.174536228179932">
        <ele>494.735595703125</ele>
        <time>2006-04-23T08:32:33Z</time>
      </trkpt>
      <trkpt lat="45.691452026367188" lon="8.174772262573242">
        <ele>498.100341796875</ele>
        <time>2006-04-23T08:32:44Z</time>
      </trkpt>
      <trkpt lat="45.691602230072021" lon="8.175008296966553">
        <ele>500.5035400390625</ele>
        <time>2006-04-23T08:32:55Z</time>
      </trkpt>
      <trkpt lat="45.691859722137451" lon="8.175201416015625">
        <ele>501.945556640625</ele>
        <time>2006-04-23T08:33:08Z</time>
      </trkpt>
      <trkpt lat="45.692117214202881" lon="8.175373077392578">
        <ele>502.90673828125</ele>
        <time>2006-04-23T08:33:22Z</time>
      </trkpt>
      <trkpt lat="45.692181587219238" lon="8.175544738769531">
        <ele>504.348876953125</ele>
        <time>2006-04-23T08:33:29Z</time>
      </trkpt>
      <trkpt lat="45.692095756530762" lon="8.175652027130127">
        <ele>505.3101806640625</ele>
        <time>2006-04-23T08:33:35Z</time>
      </trkpt>
      <trkpt lat="45.691924095153809" lon="8.175523281097412">
        <ele>506.271484375</ele>
        <time>2006-04-23T08:33:44Z</time>
      </trkpt>
      <trkpt lat="45.691752433776855" lon="8.175351619720459">
        <ele>506.271484375</ele>
        <time>2006-04-23T08:33:57Z</time>
      </trkpt>
      <trkpt lat="45.691602230072021" lon="8.175308704376221">
        <ele>508.194091796875</ele>
        <time>2006-04-23T08:34:05Z</time>
      </trkpt>
      <trkpt lat="45.691430568695068" lon="8.175437450408936">
        <ele>511.5587158203125</ele>
        <time>2006-04-23T08:34:15Z</time>
      </trkpt>
      <trkpt lat="45.691280364990234" lon="8.175609111785889">
        <ele>513.4814453125</ele>
        <time>2006-04-23T08:34:26Z</time>
      </trkpt>
      <trkpt lat="45.691173076629639" lon="8.175458908081055">
        <ele>516.365234375</ele>
        <time>2006-04-23T08:34:34Z</time>
      </trkpt>
      <trkpt lat="45.691087245941162" lon="8.175137042999268">
        <ele>519.7298583984375</ele>
        <time>2006-04-23T08:34:46Z</time>
      </trkpt>
      <trkpt lat="45.690979957580566" lon="8.175137042999268">
        <ele>519.7298583984375</ele>
        <time>2006-04-23T08:34:51Z</time>
      </trkpt>
      <trkpt lat="45.690808296203613" lon="8.175201416015625">
        <ele>519.7298583984375</ele>
        <time>2006-04-23T08:35:00Z</time>
      </trkpt>
      <trkpt lat="45.690722465515137" lon="8.17533016204834">
        <ele>519.7298583984375</ele>
        <time>2006-04-23T08:35:07Z</time>
      </trkpt>
      <trkpt lat="45.690615177154541" lon="8.175609111785889">
        <ele>520.2105712890625</ele>
        <time>2006-04-23T08:35:18Z</time>
      </trkpt>
      <trkpt lat="45.690593719482422" lon="8.175909519195557">
        <ele>521.1719970703125</ele>
        <time>2006-04-23T08:35:29Z</time>
      </trkpt>
      <trkpt lat="45.690593719482422" lon="8.175952434539795">
        <ele>521.1719970703125</ele>
        <time>2006-04-23T08:35:31Z</time>
      </trkpt>
      <trkpt lat="45.690443515777588" lon="8.176016807556152">
        <ele>523.5751953125</ele>
        <time>2006-04-23T08:35:38Z</time>
      </trkpt>
      <trkpt lat="45.690228939056396" lon="8.175888061523438">
        <ele>528.862548828125</ele>
        <time>2006-04-23T08:35:50Z</time>
      </trkpt>
      <trkpt lat="45.690014362335205" lon="8.175909519195557">
        <ele>529.82373046875</ele>
        <time>2006-04-23T08:36:00Z</time>
      </trkpt>
      <trkpt lat="45.689992904663086" lon="8.175930976867676">
        <ele>529.82373046875</ele>
        <time>2006-04-23T08:36:01Z</time>
      </trkpt>
      <trkpt lat="45.689864158630371" lon="8.176231384277344">
        <ele>530.78515625</ele>
        <time>2006-04-23T08:36:13Z</time>
      </trkpt>
      <trkpt lat="45.689735412597656" lon="8.176639080047607">
        <ele>532.707763671875</ele>
        <time>2006-04-23T08:36:27Z</time>
      </trkpt>
      <trkpt lat="45.689606666564941" lon="8.176982402801514">
        <ele>533.1883544921875</ele>
        <time>2006-04-23T08:36:41Z</time>
      </trkpt>
      <trkpt lat="45.689542293548584" lon="8.17732572555542">
        <ele>533.6689453125</ele>
        <time>2006-04-23T08:36:53Z</time>
      </trkpt>
      <trkpt lat="45.689520835876465" lon="8.177690505981445">
        <ele>536.5531005859375</ele>
        <time>2006-04-23T08:37:04Z</time>
      </trkpt>
      <trkpt lat="45.68939208984375" lon="8.177905082702637">
        <ele>537.9949951171875</ele>
        <time>2006-04-23T08:37:13Z</time>
      </trkpt>
      <trkpt lat="45.689241886138916" lon="8.178055286407471">
        <ele>540.3983154296875</ele>
        <time>2006-04-23T08:37:22Z</time>
      </trkpt>
      <trkpt lat="45.689241886138916" lon="8.178098201751709">
        <ele>540.87890625</ele>
        <time>2006-04-23T08:37:23Z</time>
      </trkpt>
      <trkpt lat="45.689327716827393" lon="8.178184032440186">
        <ele>542.801513671875</ele>
        <time>2006-04-23T08:37:29Z</time>
      </trkpt>
      <trkpt lat="45.689435005187988" lon="8.178098201751709">
        <ele>544.7242431640625</ele>
        <time>2006-04-23T08:37:35Z</time>
      </trkpt>
      <trkpt lat="45.689477920532227" lon="8.178055286407471">
        <ele>545.204833984375</ele>
        <time>2006-04-23T08:37:37Z</time>
      </trkpt>
      <trkpt lat="45.689671039581299" lon="8.177776336669922">
        <ele>546.6468505859375</ele>
        <time>2006-04-23T08:37:49Z</time>
      </trkpt>
      <trkpt lat="45.689713954925537" lon="8.177561759948731">
        <ele>547.608154296875</ele>
        <time>2006-04-23T08:37:56Z</time>
      </trkpt>
      <trkpt lat="45.689713954925537" lon="8.177282810211182">
        <ele>549.050048828125</ele>
        <time>2006-04-23T08:38:04Z</time>
      </trkpt>
      <trkpt lat="45.689799785614014" lon="8.177046775817871">
        <ele>550.4921875</ele>
        <time>2006-04-23T08:38:13Z</time>
      </trkpt>
      <trkpt lat="45.690014362335205" lon="8.17683219909668">
        <ele>552.895263671875</ele>
        <time>2006-04-23T08:38:24Z</time>
      </trkpt>
      <trkpt lat="45.690164566040039" lon="8.176531791687012">
        <ele>553.856689453125</ele>
        <time>2006-04-23T08:38:36Z</time>
      </trkpt>
      <trkpt lat="45.690336227416992" lon="8.176445960998535">
        <ele>554.33740234375</ele>
        <time>2006-04-23T08:38:45Z</time>
      </trkpt>
      <trkpt lat="45.690486431121826" lon="8.176596164703369">
        <ele>554.81787109375</ele>
        <time>2006-04-23T08:38:54Z</time>
      </trkpt>
      <trkpt lat="45.690701007843018" lon="8.176918029785156">
        <ele>554.33740234375</ele>
        <time>2006-04-23T08:39:10Z</time>
      </trkpt>
      <trkpt lat="45.690829753875732" lon="8.176918029785156">
        <ele>554.81787109375</ele>
        <time>2006-04-23T08:39:19Z</time>
      </trkpt>
      <trkpt lat="45.691065788269043" lon="8.176703453063965">
        <ele>555.298583984375</ele>
        <time>2006-04-23T08:39:34Z</time>
      </trkpt>
      <trkpt lat="45.691280364990234" lon="8.176681995391846">
        <ele>555.779296875</ele>
        <time>2006-04-23T08:39:46Z</time>
      </trkpt>
      <trkpt lat="45.691430568695068" lon="8.176896572113037">
        <ele>558.182861328125</ele>
        <time>2006-04-23T08:39:59Z</time>
      </trkpt>
      <trkpt lat="45.691666603088379" lon="8.177175521850586">
        <ele>558.182861328125</ele>
        <time>2006-04-23T08:40:15Z</time>
      </trkpt>
      <trkpt lat="45.691902637481689" lon="8.177196979522705">
        <ele>560.5859375</ele>
        <time>2006-04-23T08:40:28Z</time>
      </trkpt>
      <trkpt lat="45.692095756530762" lon="8.177304267883301">
        <ele>562.508544921875</ele>
        <time>2006-04-23T08:40:41Z</time>
      </trkpt>
      <trkpt lat="45.692117214202881" lon="8.177304267883301">
        <ele>562.9892578125</ele>
        <time>2006-04-23T08:40:42Z</time>
      </trkpt>
      <trkpt lat="45.692245960235596" lon="8.177475929260254">
        <ele>564.43115234375</ele>
        <time>2006-04-23T08:40:54Z</time>
      </trkpt>
      <trkpt lat="45.692353248596191" lon="8.177754878997803">
        <ele>564.43115234375</ele>
        <time>2006-04-23T08:41:08Z</time>
      </trkpt>
      <trkpt lat="45.692481994628906" lon="8.177990913391113">
        <ele>565.873291015625</ele>
        <time>2006-04-23T08:41:21Z</time>
      </trkpt>
      <trkpt lat="45.692589282989502" lon="8.178055286407471">
        <ele>565.873291015625</ele>
        <time>2006-04-23T08:41:30Z</time>
      </trkpt>
      <trkpt lat="45.692589282989502" lon="8.178055286407471">
        <ele>565.873291015625</ele>
        <time>2006-04-23T08:41:31Z</time>
      </trkpt>
      <trkpt lat="45.692760944366455" lon="8.177754878997803">
        <ele>565.873291015625</ele>
        <time>2006-04-23T08:41:43Z</time>
      </trkpt>
      <trkpt lat="45.692932605743408" lon="8.177454471588135">
        <ele>565.873291015625</ele>
        <time>2006-04-23T08:41:57Z</time>
      </trkpt>
      <trkpt lat="45.693340301513672" lon="8.177390098571777">
        <ele>568.2763671875</ele>
        <time>2006-04-23T08:42:16Z</time>
      </trkpt>
      <trkpt lat="45.693597793579102" lon="8.177368640899658">
        <ele>569.23779296875</ele>
        <time>2006-04-23T08:42:27Z</time>
      </trkpt>
      <trkpt lat="45.693683624267578" lon="8.177196979522705">
        <ele>574.525146484375</ele>
        <time>2006-04-23T08:42:35Z</time>
      </trkpt>
      <trkpt lat="45.693705081939697" lon="8.176939487457275">
        <ele>577.4091796875</ele>
        <time>2006-04-23T08:42:45Z</time>
      </trkpt>
      <trkpt lat="45.693769454956055" lon="8.176789283752441">
        <ele>577.8896484375</ele>
        <time>2006-04-23T08:42:52Z</time>
      </trkpt>
      <trkpt lat="45.693962574005127" lon="8.176681995391846">
        <ele>578.85107421875</ele>
        <time>2006-04-23T08:43:04Z</time>
      </trkpt>
      <trkpt lat="45.694284439086914" lon="8.176488876342773">
        <ele>579.812255859375</ele>
        <time>2006-04-23T08:43:25Z</time>
      </trkpt>
      <trkpt lat="45.694434642791748" lon="8.176467418670654">
        <ele>580.773681640625</ele>
        <time>2006-04-23T08:43:37Z</time>
      </trkpt>
      <trkpt lat="45.694649219512939" lon="8.176467418670654">
        <ele>581.73486328125</ele>
        <time>2006-04-23T08:43:50Z</time>
      </trkpt>
      <trkpt lat="45.694928169250488" lon="8.176403045654297">
        <ele>581.73486328125</ele>
        <time>2006-04-23T08:44:06Z</time>
      </trkpt>
      <trkpt lat="45.69514274597168" lon="8.176424503326416">
        <ele>585.580078125</ele>
        <time>2006-04-23T08:44:20Z</time>
      </trkpt>
      <trkpt lat="45.695314407348633" lon="8.176488876342773">
        <ele>590.867431640625</ele>
        <time>2006-04-23T08:44:36Z</time>
      </trkpt>
      <trkpt lat="45.695486068725586" lon="8.176617622375488">
        <ele>597.5966796875</ele>
        <time>2006-04-23T08:44:51Z</time>
      </trkpt>
      <trkpt lat="45.695614814758301" lon="8.176810741424561">
        <ele>600.961181640625</ele>
        <time>2006-04-23T08:45:03Z</time>
      </trkpt>
      <trkpt lat="45.695657730102539" lon="8.176982402801514">
        <ele>604.806640625</ele>
        <time>2006-04-23T08:45:12Z</time>
      </trkpt>
      <trkpt lat="45.69563627243042" lon="8.177089691162109">
        <ele>605.76806640625</ele>
        <time>2006-04-23T08:45:17Z</time>
      </trkpt>
      <trkpt lat="45.695614814758301" lon="8.177111148834229">
        <ele>605.76806640625</ele>
        <time>2006-04-23T08:45:19Z</time>
      </trkpt>
      <trkpt lat="45.695507526397705" lon="8.17706823348999">
        <ele>607.690673828125</ele>
        <time>2006-04-23T08:45:28Z</time>
      </trkpt>
      <trkpt lat="45.695464611053467" lon="8.176853656768799">
        <ele>610.574462890625</ele>
        <time>2006-04-23T08:45:36Z</time>
      </trkpt>
      <trkpt lat="45.695357322692871" lon="8.176639080047607">
        <ele>613.45849609375</ele>
        <time>2006-04-23T08:45:47Z</time>
      </trkpt>
      <trkpt lat="45.69514274597168" lon="8.176510334014893">
        <ele>615.86181640625</ele>
        <time>2006-04-23T08:45:58Z</time>
      </trkpt>
      <trkpt lat="45.694906711578369" lon="8.176424503326416">
        <ele>615.86181640625</ele>
        <time>2006-04-23T08:46:09Z</time>
      </trkpt>
      <trkpt lat="45.694713592529297" lon="8.176467418670654">
        <ele>617.3037109375</ele>
        <time>2006-04-23T08:46:19Z</time>
      </trkpt>
      <trkpt lat="45.694670677185059" lon="8.176488876342773">
        <ele>617.3037109375</ele>
        <time>2006-04-23T08:46:21Z</time>
      </trkpt>
      <trkpt lat="45.694434642791748" lon="8.176703453063965">
        <ele>617.3037109375</ele>
        <time>2006-04-23T08:46:33Z</time>
      </trkpt>
      <trkpt lat="45.694155693054199" lon="8.176810741424561">
        <ele>618.264892578125</ele>
        <time>2006-04-23T08:46:47Z</time>
      </trkpt>
      <trkpt lat="45.693984031677246" lon="8.177003860473633">
        <ele>618.74560546875</ele>
        <time>2006-04-23T08:46:57Z</time>
      </trkpt>
      <trkpt lat="45.694005489349365" lon="8.177261352539063">
        <ele>620.187744140625</ele>
        <time>2006-04-23T08:47:06Z</time>
      </trkpt>
      <trkpt lat="45.694005489349365" lon="8.177561759948731">
        <ele>621.149169921875</ele>
        <time>2006-04-23T08:47:16Z</time>
      </trkpt>
      <trkpt lat="45.69387674331665" lon="8.17781925201416">
        <ele>621.149169921875</ele>
        <time>2006-04-23T08:47:27Z</time>
      </trkpt>
      <trkpt lat="45.693554878234863" lon="8.178141117095947">
        <ele>621.149169921875</ele>
        <time>2006-04-23T08:47:46Z</time>
      </trkpt>
      <trkpt lat="45.693211555480957" lon="8.17833423614502">
        <ele>621.629638671875</ele>
        <time>2006-04-23T08:48:03Z</time>
      </trkpt>
      <trkpt lat="45.693168640136719" lon="8.178377151489258">
        <ele>622.1103515625</ele>
        <time>2006-04-23T08:48:06Z</time>
      </trkpt>
      <trkpt lat="45.693039894104004" lon="8.178763389587402">
        <ele>624.513671875</ele>
        <time>2006-04-23T08:48:20Z</time>
      </trkpt>
      <trkpt lat="45.692954063415527" lon="8.179020881652832">
        <ele>624.994384765625</ele>
        <time>2006-04-23T08:48:29Z</time>
      </trkpt>
      <trkpt lat="45.692846775054932" lon="8.179042339324951">
        <ele>627.397705078125</ele>
        <time>2006-04-23T08:48:34Z</time>
      </trkpt>
      <trkpt lat="45.692675113677979" lon="8.179106712341309">
        <ele>628.35888671875</ele>
        <time>2006-04-23T08:48:42Z</time>
      </trkpt>
      <trkpt lat="45.692460536956787" lon="8.178935050964356">
        <ele>630.76220703125</ele>
        <time>2006-04-23T08:48:53Z</time>
      </trkpt>
      <trkpt lat="45.692374706268311" lon="8.179020881652832">
        <ele>631.242919921875</ele>
        <time>2006-04-23T08:48:58Z</time>
      </trkpt>
      <trkpt lat="45.692460536956787" lon="8.179149627685547">
        <ele>633.64599609375</ele>
        <time>2006-04-23T08:49:05Z</time>
      </trkpt>
      <trkpt lat="45.692718029022217" lon="8.179192543029785">
        <ele>638.452880859375</ele>
        <time>2006-04-23T08:49:18Z</time>
      </trkpt>
      <trkpt lat="45.69288969039917" lon="8.179235458374023">
        <ele>639.894775390625</ele>
        <time>2006-04-23T08:49:26Z</time>
      </trkpt>
      <trkpt lat="45.693082809448242" lon="8.179128170013428">
        <ele>642.298095703125</ele>
        <time>2006-04-23T08:49:37Z</time>
      </trkpt>
      <trkpt lat="45.693233013153076" lon="8.178935050964356">
        <ele>643.25927734375</ele>
        <time>2006-04-23T08:49:49Z</time>
      </trkpt>
      <trkpt lat="45.69338321685791" lon="8.178634643554688">
        <ele>643.739990234375</ele>
        <time>2006-04-23T08:50:03Z</time>
      </trkpt>
      <trkpt lat="45.693490505218506" lon="8.178484439849854">
        <ele>644.220703125</ele>
        <time>2006-04-23T08:50:11Z</time>
      </trkpt>
      <trkpt lat="45.693833827972412" lon="8.178484439849854">
        <ele>644.220703125</ele>
        <time>2006-04-23T08:50:30Z</time>
      </trkpt>
      <trkpt lat="45.694069862365723" lon="8.178462982177734">
        <ele>644.220703125</ele>
        <time>2006-04-23T08:50:47Z</time>
      </trkpt>
      <trkpt lat="45.69413423538208" lon="8.17833423614502">
        <ele>644.220703125</ele>
        <time>2006-04-23T08:51:13Z</time>
      </trkpt>
      <trkpt lat="45.69439172744751" lon="8.178119659423828">
        <ele>644.220703125</ele>
        <time>2006-04-23T08:51:29Z</time>
      </trkpt>
      <trkpt lat="45.694541931152344" lon="8.177926540374756">
        <ele>645.66259765625</ele>
        <time>2006-04-23T08:51:37Z</time>
      </trkpt>
      <trkpt lat="45.694692134857178" lon="8.177711963653565">
        <ele>648.06591796875</ele>
        <time>2006-04-23T08:51:46Z</time>
      </trkpt>
      <trkpt lat="45.694735050201416" lon="8.177647590637207">
        <ele>648.54638671875</ele>
        <time>2006-04-23T08:51:49Z</time>
      </trkpt>
      <trkpt lat="45.694820880889893" lon="8.177690505981445">
        <ele>649.988525390625</ele>
        <time>2006-04-23T08:51:54Z</time>
      </trkpt>
      <trkpt lat="45.694906711578369" lon="8.177840709686279">
        <ele>652.87255859375</ele>
        <time>2006-04-23T08:52:05Z</time>
      </trkpt>
      <trkpt lat="45.694971084594727" lon="8.178033828735352">
        <ele>655.27587890625</ele>
        <time>2006-04-23T08:52:15Z</time>
      </trkpt>
      <trkpt lat="45.695228576660156" lon="8.178248405456543">
        <ele>655.756591796875</ele>
        <time>2006-04-23T08:52:28Z</time>
      </trkpt>
      <trkpt lat="45.695550441741943" lon="8.178505897521973">
        <ele>659.12109375</ele>
        <time>2006-04-23T08:52:39Z</time>
      </trkpt>
      <trkpt lat="45.695743560791016" lon="8.178956508636475">
        <ele>662.005126953125</ele>
        <time>2006-04-23T08:52:50Z</time>
      </trkpt>
      <trkpt lat="45.69587230682373" lon="8.179342746734619">
        <ele>667.292236328125</ele>
        <time>2006-04-23T08:53:01Z</time>
      </trkpt>
      <trkpt lat="45.696022510528564" lon="8.179557323455811">
        <ele>673.060302734375</ele>
        <time>2006-04-23T08:53:09Z</time>
      </trkpt>
      <trkpt lat="45.696258544921875" lon="8.179600238800049">
        <ele>677.38623046875</ele>
        <time>2006-04-23T08:53:17Z</time>
      </trkpt>
      <trkpt lat="45.696344375610352" lon="8.179471492767334">
        <ele>678.828125</ele>
        <time>2006-04-23T08:53:22Z</time>
      </trkpt>
      <trkpt lat="45.696537494659424" lon="8.179192543029785">
        <ele>680.27001953125</ele>
        <time>2006-04-23T08:53:32Z</time>
      </trkpt>
      <trkpt lat="45.696837902069092" lon="8.179042339324951">
        <ele>683.634521484375</ele>
        <time>2006-04-23T08:53:42Z</time>
      </trkpt>
      <trkpt lat="45.697073936462402" lon="8.178870677947998">
        <ele>684.59619140625</ele>
        <time>2006-04-23T08:53:51Z</time>
      </trkpt>
      <trkpt lat="45.697245597839355" lon="8.178656101226807">
        <ele>686.0380859375</ele>
        <time>2006-04-23T08:53:59Z</time>
      </trkpt>
      <trkpt lat="45.697352886199951" lon="8.178291320800781">
        <ele>687.47998046875</ele>
        <time>2006-04-23T08:54:08Z</time>
      </trkpt>
      <trkpt lat="45.697438716888428" lon="8.178377151489258">
        <ele>690.364013671875</ele>
        <time>2006-04-23T08:54:13Z</time>
      </trkpt>
      <trkpt lat="45.697460174560547" lon="8.178441524505615">
        <ele>690.364013671875</ele>
        <time>2006-04-23T08:54:14Z</time>
      </trkpt>
      <trkpt lat="45.697438716888428" lon="8.178548812866211">
        <ele>690.844482421875</ele>
        <time>2006-04-23T08:54:16Z</time>
      </trkpt>
      <trkpt lat="45.697267055511475" lon="8.179042339324951">
        <ele>692.767333984375</ele>
        <time>2006-04-23T08:54:26Z</time>
      </trkpt>
      <trkpt lat="45.697073936462402" lon="8.179278373718262">
        <ele>695.17041015625</ele>
        <time>2006-04-23T08:54:33Z</time>
      </trkpt>
      <trkpt lat="45.696988105773926" lon="8.179471492767334">
        <ele>697.57373046875</ele>
        <time>2006-04-23T08:54:38Z</time>
      </trkpt>
      <trkpt lat="45.696945190429688" lon="8.179771900177002">
        <ele>698.054443359375</ele>
        <time>2006-04-23T08:54:45Z</time>
      </trkpt>
      <trkpt lat="45.696902275085449" lon="8.180093765258789">
        <ele>699.496337890625</ele>
        <time>2006-04-23T08:54:53Z</time>
      </trkpt>
      <trkpt lat="45.696945190429688" lon="8.180458545684815">
        <ele>702.38037109375</ele>
        <time>2006-04-23T08:55:02Z</time>
      </trkpt>
      <trkpt lat="45.696988105773926" lon="8.180801868438721">
        <ele>704.78369140625</ele>
        <time>2006-04-23T08:55:11Z</time>
      </trkpt>
      <trkpt lat="45.697009563446045" lon="8.181102275848389">
        <ele>706.2255859375</ele>
        <time>2006-04-23T08:55:19Z</time>
      </trkpt>
      <trkpt lat="45.697095394134521" lon="8.181445598602295">
        <ele>709.59033203125</ele>
        <time>2006-04-23T08:55:29Z</time>
      </trkpt>
      <trkpt lat="45.697116851806641" lon="8.181531429290772">
        <ele>709.59033203125</ele>
        <time>2006-04-23T08:55:36Z</time>
      </trkpt>
      <trkpt lat="45.697095394134521" lon="8.181509971618652">
        <ele>709.109619140625</ele>
        <time>2006-04-23T08:55:59Z</time>
      </trkpt>
      <trkpt lat="45.697073936462402" lon="8.181531429290772">
        <ele>709.109619140625</ele>
        <time>2006-04-23T08:56:13Z</time>
      </trkpt>
      <trkpt lat="45.697095394134521" lon="8.181509971618652">
        <ele>711.0322265625</ele>
        <time>2006-04-23T08:56:33Z</time>
      </trkpt>
      <trkpt lat="45.697116851806641" lon="8.181509971618652">
        <ele>714.396728515625</ele>
        <time>2006-04-23T08:56:49Z</time>
      </trkpt>
      <trkpt lat="45.69713830947876" lon="8.181509971618652">
        <ele>714.87744140625</ele>
        <time>2006-04-23T08:57:05Z</time>
      </trkpt>
      <trkpt lat="45.697116851806641" lon="8.181552886962891">
        <ele>716.319580078125</ele>
        <time>2006-04-23T08:57:33Z</time>
      </trkpt>
      <trkpt lat="45.69713830947876" lon="8.181531429290772">
        <ele>715.358154296875</ele>
        <time>2006-04-23T08:57:56Z</time>
      </trkpt>
      <trkpt lat="45.697116851806641" lon="8.181552886962891">
        <ele>715.358154296875</ele>
        <time>2006-04-23T08:58:14Z</time>
      </trkpt>
      <trkpt lat="45.697159767150879" lon="8.181595802307129">
        <ele>714.87744140625</ele>
        <time>2006-04-23T08:59:37Z</time>
      </trkpt>
      <trkpt lat="45.697245597839355" lon="8.181767463684082">
        <ele>714.87744140625</ele>
        <time>2006-04-23T08:59:46Z</time>
      </trkpt>
      <trkpt lat="45.697352886199951" lon="8.182046413421631">
        <ele>715.8388671875</ele>
        <time>2006-04-23T08:59:58Z</time>
      </trkpt>
      <trkpt lat="45.697438716888428" lon="8.182346820831299">
        <ele>717.281005859375</ele>
        <time>2006-04-23T09:00:10Z</time>
      </trkpt>
      <trkpt lat="45.697567462921143" lon="8.182539939880371">
        <ele>718.2421875</ele>
        <time>2006-04-23T09:00:20Z</time>
      </trkpt>
      <trkpt lat="45.697653293609619" lon="8.182454109191895">
        <ele>719.20361328125</ele>
        <time>2006-04-23T09:00:26Z</time>
      </trkpt>
      <trkpt lat="45.697610378265381" lon="8.182260990142822">
        <ele>719.684326171875</ele>
        <time>2006-04-23T09:00:33Z</time>
      </trkpt>
      <trkpt lat="45.697546005249023" lon="8.181960582733154">
        <ele>721.126220703125</ele>
        <time>2006-04-23T09:00:44Z</time>
      </trkpt>
      <trkpt lat="45.697524547576904" lon="8.181617259979248">
        <ele>721.606689453125</ele>
        <time>2006-04-23T09:00:55Z</time>
      </trkpt>
      <trkpt lat="45.697481632232666" lon="8.181231021881104">
        <ele>722.568115234375</ele>
        <time>2006-04-23T09:01:08Z</time>
      </trkpt>
      <trkpt lat="45.697481632232666" lon="8.180844783782959">
        <ele>723.529541015625</ele>
        <time>2006-04-23T09:01:21Z</time>
      </trkpt>
      <trkpt lat="45.697588920593262" lon="8.180522918701172">
        <ele>723.048828125</ele>
        <time>2006-04-23T09:01:32Z</time>
      </trkpt>
      <trkpt lat="45.697782039642334" lon="8.180136680603027">
        <ele>723.529541015625</ele>
        <time>2006-04-23T09:01:45Z</time>
      </trkpt>
      <trkpt lat="45.697696208953857" lon="8.179664611816406">
        <ele>724.971435546875</ele>
        <time>2006-04-23T09:01:58Z</time>
      </trkpt>
      <trkpt lat="45.697674751281738" lon="8.179299831390381">
        <ele>726.413330078125</ele>
        <time>2006-04-23T09:02:09Z</time>
      </trkpt>
      <trkpt lat="45.697739124298096" lon="8.179042339324951">
        <ele>727.855224609375</ele>
        <time>2006-04-23T09:02:18Z</time>
      </trkpt>
      <trkpt lat="45.69788932800293" lon="8.178656101226807">
        <ele>729.77783203125</ele>
        <time>2006-04-23T09:02:32Z</time>
      </trkpt>
      <trkpt lat="45.698060989379883" lon="8.178291320800781">
        <ele>730.7392578125</ele>
        <time>2006-04-23T09:02:46Z</time>
      </trkpt>
      <trkpt lat="45.698211193084717" lon="8.178055286407471">
        <ele>730.7392578125</ele>
        <time>2006-04-23T09:02:57Z</time>
      </trkpt>
      <trkpt lat="45.698554515838623" lon="8.177797794342041">
        <ele>730.258544921875</ele>
        <time>2006-04-23T09:03:15Z</time>
      </trkpt>
      <trkpt lat="45.698747634887695" lon="8.177754878997803">
        <ele>730.258544921875</ele>
        <time>2006-04-23T09:03:25Z</time>
      </trkpt>
      <trkpt lat="45.699048042297363" lon="8.177797794342041">
        <ele>731.700439453125</ele>
        <time>2006-04-23T09:03:38Z</time>
      </trkpt>
      <trkpt lat="45.699219703674316" lon="8.177754878997803">
        <ele>732.181396484375</ele>
        <time>2006-04-23T09:03:45Z</time>
      </trkpt>
      <trkpt lat="45.699241161346436" lon="8.177926540374756">
        <ele>733.142578125</ele>
        <time>2006-04-23T09:03:51Z</time>
      </trkpt>
      <trkpt lat="45.699198246002197" lon="8.177947998046875">
        <ele>734.10400390625</ele>
        <time>2006-04-23T09:03:53Z</time>
      </trkpt>
      <trkpt lat="45.699026584625244" lon="8.177990913391113">
        <ele>735.0654296875</ele>
        <time>2006-04-23T09:04:02Z</time>
      </trkpt>
      <trkpt lat="45.698769092559814" lon="8.177947998046875">
        <ele>737.94921875</ele>
        <time>2006-04-23T09:04:12Z</time>
      </trkpt>
      <trkpt lat="45.698575973510742" lon="8.178012371063232">
        <ele>739.39111328125</ele>
        <time>2006-04-23T09:04:21Z</time>
      </trkpt>
      <trkpt lat="45.698425769805908" lon="8.178226947784424">
        <ele>739.39111328125</ele>
        <time>2006-04-23T09:04:30Z</time>
      </trkpt>
      <trkpt lat="45.69838285446167" lon="8.178527355194092">
        <ele>740.3525390625</ele>
        <time>2006-04-23T09:04:39Z</time>
      </trkpt>
      <trkpt lat="45.698404312133789" lon="8.178999423980713">
        <ele>741.79443359375</ele>
        <time>2006-04-23T09:04:53Z</time>
      </trkpt>
      <trkpt lat="45.698404312133789" lon="8.179450035095215">
        <ele>742.275146484375</ele>
        <time>2006-04-23T09:05:07Z</time>
      </trkpt>
      <trkpt lat="45.698425769805908" lon="8.17981481552124">
        <ele>743.236328125</ele>
        <time>2006-04-23T09:05:18Z</time>
      </trkpt>
      <trkpt lat="45.698425769805908" lon="8.180286884307861">
        <ele>745.6396484375</ele>
        <time>2006-04-23T09:05:32Z</time>
      </trkpt>
      <trkpt lat="45.698468685150146" lon="8.180608749389648">
        <ele>748.523681640625</ele>
        <time>2006-04-23T09:05:42Z</time>
      </trkpt>
      <trkpt lat="45.698597431182861" lon="8.181016445159912">
        <ele>749.9658203125</ele>
        <time>2006-04-23T09:05:55Z</time>
      </trkpt>
      <trkpt lat="45.698769092559814" lon="8.181252479553223">
        <ele>751.40771484375</ele>
        <time>2006-04-23T09:06:06Z</time>
      </trkpt>
      <trkpt lat="45.698962211608887" lon="8.181488513946533">
        <ele>754.291748046875</ele>
        <time>2006-04-23T09:06:16Z</time>
      </trkpt>
      <trkpt lat="45.699112415313721" lon="8.18183183670044">
        <ele>758.136962890625</ele>
        <time>2006-04-23T09:06:27Z</time>
      </trkpt>
      <trkpt lat="45.699241161346436" lon="8.182024955749512">
        <ele>759.09814453125</ele>
        <time>2006-04-23T09:06:35Z</time>
      </trkpt>
      <trkpt lat="45.69939136505127" lon="8.182132244110107">
        <ele>760.059326171875</ele>
        <time>2006-04-23T09:06:44Z</time>
      </trkpt>
      <trkpt lat="45.699584484100342" lon="8.18206787109375">
        <ele>761.50146484375</ele>
        <time>2006-04-23T09:06:55Z</time>
      </trkpt>
      <trkpt lat="45.699691772460938" lon="8.18206787109375">
        <ele>762.462646484375</ele>
        <time>2006-04-23T09:07:05Z</time>
      </trkpt>
      <trkpt lat="45.699927806854248" lon="8.182089328765869">
        <ele>764.8662109375</ele>
        <time>2006-04-23T09:07:22Z</time>
      </trkpt>
      <trkpt lat="45.700035095214844" lon="8.18206787109375">
        <ele>765.346923828125</ele>
        <time>2006-04-23T09:07:32Z</time>
      </trkpt>
      <trkpt lat="45.700163841247559" lon="8.181982040405273">
        <ele>767.26953125</ele>
        <time>2006-04-23T09:07:44Z</time>
      </trkpt>
      <trkpt lat="45.700185298919678" lon="8.181960582733154">
        <ele>767.75</ele>
        <time>2006-04-23T09:07:46Z</time>
      </trkpt>
      <trkpt lat="45.700271129608154" lon="8.18183183670044">
        <ele>767.75</ele>
        <time>2006-04-23T09:07:58Z</time>
      </trkpt>
      <trkpt lat="45.700356960296631" lon="8.181767463684082">
        <ele>771.59521484375</ele>
        <time>2006-04-23T09:08:08Z</time>
      </trkpt>
      <trkpt lat="45.700421333312988" lon="8.181767463684082">
        <ele>773.51806640625</ele>
        <time>2006-04-23T09:08:13Z</time>
      </trkpt>
      <trkpt lat="45.700507164001465" lon="8.181896209716797">
        <ele>775.921142578125</ele>
        <time>2006-04-23T09:08:21Z</time>
      </trkpt>
      <trkpt lat="45.700571537017822" lon="8.182196617126465">
        <ele>778.80517578125</ele>
        <time>2006-04-23T09:08:37Z</time>
      </trkpt>
      <trkpt lat="45.70063591003418" lon="8.182346820831299">
        <ele>778.80517578125</ele>
        <time>2006-04-23T09:08:48Z</time>
      </trkpt>
      <trkpt lat="45.700657367706299" lon="8.182604312896729">
        <ele>786.01513671875</ele>
        <time>2006-04-23T09:08:59Z</time>
      </trkpt>
      <trkpt lat="45.700614452362061" lon="8.18281888961792">
        <ele>786.976318359375</ele>
        <time>2006-04-23T09:09:12Z</time>
      </trkpt>
      <trkpt lat="45.700550079345703" lon="8.183033466339111">
        <ele>788.41845703125</ele>
        <time>2006-04-23T09:09:24Z</time>
      </trkpt>
      <trkpt lat="45.700485706329346" lon="8.183269500732422">
        <ele>791.30224609375</ele>
        <time>2006-04-23T09:09:37Z</time>
      </trkpt>
      <trkpt lat="45.700442790985107" lon="8.183441162109375">
        <ele>793.224853515625</ele>
        <time>2006-04-23T09:09:47Z</time>
      </trkpt>
      <trkpt lat="45.700421333312988" lon="8.183677196502686">
        <ele>793.224853515625</ele>
        <time>2006-04-23T09:09:59Z</time>
      </trkpt>
      <trkpt lat="45.700485706329346" lon="8.183891773223877">
        <ele>793.224853515625</ele>
        <time>2006-04-23T09:10:10Z</time>
      </trkpt>
      <trkpt lat="45.70063591003418" lon="8.183891773223877">
        <ele>794.666748046875</ele>
        <time>2006-04-23T09:10:19Z</time>
      </trkpt>
      <trkpt lat="45.700786113739014" lon="8.18382740020752">
        <ele>796.58984375</ele>
        <time>2006-04-23T09:10:31Z</time>
      </trkpt>
      <trkpt lat="45.700936317443848" lon="8.183763027191162">
        <ele>798.51220703125</ele>
        <time>2006-04-23T09:10:42Z</time>
      </trkpt>
      <trkpt lat="45.70112943649292" lon="8.183720111846924">
        <ele>801.876953125</ele>
        <time>2006-04-23T09:10:54Z</time>
      </trkpt>
      <trkpt lat="45.701215267181396" lon="8.183741569519043">
        <ele>803.31884765625</ele>
        <time>2006-04-23T09:11:03Z</time>
      </trkpt>
      <trkpt lat="45.701215267181396" lon="8.183763027191162">
        <ele>802.838134765625</ele>
        <time>2006-04-23T09:11:12Z</time>
      </trkpt>
      <trkpt lat="45.701215267181396" lon="8.183763027191162">
        <ele>808.12548828125</ele>
        <time>2006-04-23T09:16:30Z</time>
      </trkpt>
      <trkpt lat="45.701301097869873" lon="8.183870315551758">
        <ele>807.644775390625</ele>
        <time>2006-04-23T09:16:35Z</time>
      </trkpt>
      <trkpt lat="45.701408386230469" lon="8.184235095977783">
        <ele>804.2802734375</ele>
        <time>2006-04-23T09:16:45Z</time>
      </trkpt>
      <trkpt lat="45.701408386230469" lon="8.184471130371094">
        <ele>803.799560546875</ele>
        <time>2006-04-23T09:16:50Z</time>
      </trkpt>
      <trkpt lat="45.701472759246826" lon="8.184707164764404">
        <ele>802.838134765625</ele>
        <time>2006-04-23T09:16:54Z</time>
      </trkpt>
      <trkpt lat="45.701537132263184" lon="8.184814453125">
        <ele>802.357421875</ele>
        <time>2006-04-23T09:16:56Z</time>
      </trkpt>
      <trkpt lat="45.70162296295166" lon="8.184943199157715">
        <ele>802.357421875</ele>
        <time>2006-04-23T09:16:59Z</time>
      </trkpt>
      <trkpt lat="45.701923370361328" lon="8.185007572174072">
        <ele>801.876953125</ele>
        <time>2006-04-23T09:17:05Z</time>
      </trkpt>
      <trkpt lat="45.70237398147583" lon="8.18530797958374">
        <ele>801.396240234375</ele>
        <time>2006-04-23T09:17:14Z</time>
      </trkpt>
      <trkpt lat="45.70286750793457" lon="8.185544013977051">
        <ele>799.4736328125</ele>
        <time>2006-04-23T09:17:25Z</time>
      </trkpt>
      <trkpt lat="45.703275203704834" lon="8.185651302337647">
        <ele>798.03173828125</ele>
        <time>2006-04-23T09:17:36Z</time>
      </trkpt>
      <trkpt lat="45.703682899475098" lon="8.185586929321289">
        <ele>796.58984375</ele>
        <time>2006-04-23T09:17:47Z</time>
      </trkpt>
      <trkpt lat="45.703918933868408" lon="8.185758590698242">
        <ele>795.1474609375</ele>
        <time>2006-04-23T09:17:55Z</time>
      </trkpt>
      <trkpt lat="45.704219341278076" lon="8.186037540435791">
        <ele>795.1474609375</ele>
        <time>2006-04-23T09:18:05Z</time>
      </trkpt>
      <trkpt lat="45.704498291015625" lon="8.186209201812744">
        <ele>796.109130859375</ele>
        <time>2006-04-23T09:18:13Z</time>
      </trkpt>
      <trkpt lat="45.70486307144165" lon="8.186402320861816">
        <ele>795.628173828125</ele>
        <time>2006-04-23T09:18:25Z</time>
      </trkpt>
      <trkpt lat="45.70488452911377" lon="8.186423778533936">
        <ele>795.628173828125</ele>
        <time>2006-04-23T09:18:26Z</time>
      </trkpt>
      <trkpt lat="45.704777240753174" lon="8.186681270599365">
        <ele>795.628173828125</ele>
        <time>2006-04-23T09:18:32Z</time>
      </trkpt>
      <trkpt lat="45.704691410064697" lon="8.186767101287842">
        <ele>795.1474609375</ele>
        <time>2006-04-23T09:18:38Z</time>
      </trkpt>
      <trkpt lat="45.704519748687744" lon="8.187046051025391">
        <ele>796.109130859375</ele>
        <time>2006-04-23T09:18:54Z</time>
      </trkpt>
      <trkpt lat="45.704197883605957" lon="8.187432289123535">
        <ele>795.628173828125</ele>
        <time>2006-04-23T09:19:16Z</time>
      </trkpt>
      <trkpt lat="45.704047679901123" lon="8.187346458435059">
        <ele>796.58984375</ele>
        <time>2006-04-23T09:19:27Z</time>
      </trkpt>
      <trkpt lat="45.703854560852051" lon="8.187131881713867">
        <ele>799.4736328125</ele>
        <time>2006-04-23T09:19:38Z</time>
      </trkpt>
      <trkpt lat="45.703704357147217" lon="8.187174797058106">
        <ele>799.4736328125</ele>
        <time>2006-04-23T09:19:50Z</time>
      </trkpt>
      <trkpt lat="45.703661441802979" lon="8.187217712402344">
        <ele>799.954345703125</ele>
        <time>2006-04-23T09:19:54Z</time>
      </trkpt>
      <trkpt lat="45.70361852645874" lon="8.187282085418701">
        <ele>801.396240234375</ele>
        <time>2006-04-23T09:19:58Z</time>
      </trkpt>
      <trkpt lat="45.703468322753906" lon="8.187496662139893">
        <ele>803.31884765625</ele>
        <time>2006-04-23T09:20:09Z</time>
      </trkpt>
      <trkpt lat="45.703253746032715" lon="8.187839984893799">
        <ele>803.31884765625</ele>
        <time>2006-04-23T09:20:25Z</time>
      </trkpt>
      <trkpt lat="45.703039169311523" lon="8.187839984893799">
        <ele>804.2802734375</ele>
        <time>2006-04-23T09:20:37Z</time>
      </trkpt>
      <trkpt lat="45.702803134918213" lon="8.187754154205322">
        <ele>808.60595703125</ele>
        <time>2006-04-23T09:20:48Z</time>
      </trkpt>
      <trkpt lat="45.702567100524902" lon="8.18781852722168">
        <ele>811.489990234375</ele>
        <time>2006-04-23T09:21:01Z</time>
      </trkpt>
      <trkpt lat="45.70237398147583" lon="8.187968730926514">
        <ele>815.33544921875</ele>
        <time>2006-04-23T09:21:13Z</time>
      </trkpt>
      <trkpt lat="45.702245235443115" lon="8.188183307647705">
        <ele>814.854736328125</ele>
        <time>2006-04-23T09:21:28Z</time>
      </trkpt>
      <trkpt lat="45.701966285705566" lon="8.188226222991943">
        <ele>816.77734375</ele>
        <time>2006-04-23T09:21:46Z</time>
      </trkpt>
      <trkpt lat="45.701773166656494" lon="8.188269138336182">
        <ele>817.738525390625</ele>
        <time>2006-04-23T09:22:00Z</time>
      </trkpt>
      <trkpt lat="45.701494216918945" lon="8.188290596008301">
        <ele>821.103271484375</ele>
        <time>2006-04-23T09:22:19Z</time>
      </trkpt>
      <trkpt lat="45.701258182525635" lon="8.188376426696777">
        <ele>823.506591796875</ele>
        <time>2006-04-23T09:22:35Z</time>
      </trkpt>
      <trkpt lat="45.701215267181396" lon="8.188397884368897">
        <ele>824.4677734375</ele>
        <time>2006-04-23T09:22:39Z</time>
      </trkpt>
      <trkpt lat="45.701000690460205" lon="8.188612461090088">
        <ele>828.7939453125</ele>
        <time>2006-04-23T09:22:59Z</time>
      </trkpt>
      <trkpt lat="45.700979232788086" lon="8.188633918762207">
        <ele>829.2744140625</ele>
        <time>2006-04-23T09:23:00Z</time>
      </trkpt>
      <trkpt lat="45.700743198394775" lon="8.188633918762207">
        <ele>831.677734375</ele>
        <time>2006-04-23T09:23:15Z</time>
      </trkpt>
      <trkpt lat="45.700592994689941" lon="8.188698291778565">
        <ele>836.484375</ele>
        <time>2006-04-23T09:23:24Z</time>
      </trkpt>
      <trkpt lat="45.700421333312988" lon="8.18880558013916">
        <ele>837.92626953125</ele>
        <time>2006-04-23T09:23:35Z</time>
      </trkpt>
      <trkpt lat="45.700292587280273" lon="8.188912868499756">
        <ele>838.406982421875</ele>
        <time>2006-04-23T09:23:44Z</time>
      </trkpt>
      <trkpt lat="45.700142383575439" lon="8.188998699188232">
        <ele>839.3681640625</ele>
        <time>2006-04-23T09:23:54Z</time>
      </trkpt>
      <trkpt lat="45.699927806854248" lon="8.189105987548828">
        <ele>842.73291015625</ele>
        <time>2006-04-23T09:24:06Z</time>
      </trkpt>
      <trkpt lat="45.699863433837891" lon="8.189191818237305">
        <ele>844.175048828125</ele>
        <time>2006-04-23T09:24:11Z</time>
      </trkpt>
      <trkpt lat="45.699906349182129" lon="8.1892991065979">
        <ele>844.655517578125</ele>
        <time>2006-04-23T09:24:16Z</time>
      </trkpt>
      <trkpt lat="45.700078010559082" lon="8.189406394958496">
        <ele>846.09765625</ele>
        <time>2006-04-23T09:24:27Z</time>
      </trkpt>
      <trkpt lat="45.700271129608154" lon="8.189384937286377">
        <ele>846.09765625</ele>
        <time>2006-04-23T09:24:36Z</time>
      </trkpt>
      <trkpt lat="45.700592994689941" lon="8.18932056427002">
        <ele>847.058837890625</ele>
        <time>2006-04-23T09:24:49Z</time>
      </trkpt>
      <trkpt lat="45.700807571411133" lon="8.1892991065979">
        <ele>845.616943359375</ele>
        <time>2006-04-23T09:24:59Z</time>
      </trkpt>
      <trkpt lat="45.700957775115967" lon="8.189492225646973">
        <ele>845.616943359375</ele>
        <time>2006-04-23T09:25:06Z</time>
      </trkpt>
      <trkpt lat="45.701086521148682" lon="8.189964294433594">
        <ele>846.09765625</ele>
        <time>2006-04-23T09:25:16Z</time>
      </trkpt>
      <trkpt lat="45.701301097869873" lon="8.190500736236572">
        <ele>846.578369140625</ele>
        <time>2006-04-23T09:25:29Z</time>
      </trkpt>
      <trkpt lat="45.701322555541992" lon="8.19080114364624">
        <ele>848.020263671875</ele>
        <time>2006-04-23T09:25:36Z</time>
      </trkpt>
      <trkpt lat="45.701258182525635" lon="8.191101551055908">
        <ele>848.020263671875</ele>
        <time>2006-04-23T09:25:43Z</time>
      </trkpt>
      <trkpt lat="45.70136547088623" lon="8.191273212432861">
        <ele>848.020263671875</ele>
        <time>2006-04-23T09:25:49Z</time>
      </trkpt>
      <trkpt lat="45.701537132263184" lon="8.191444873809815">
        <ele>847.058837890625</ele>
        <time>2006-04-23T09:25:57Z</time>
      </trkpt>
      <trkpt lat="45.701558589935303" lon="8.191723823547363">
        <ele>847.53955078125</ele>
        <time>2006-04-23T09:26:04Z</time>
      </trkpt>
      <trkpt lat="45.701494216918945" lon="8.192110061645508">
        <ele>848.9814453125</ele>
        <time>2006-04-23T09:26:14Z</time>
      </trkpt>
      <trkpt lat="45.701472759246826" lon="8.192453384399414">
        <ele>850.904052734375</ele>
        <time>2006-04-23T09:26:22Z</time>
      </trkpt>
      <trkpt lat="45.701601505279541" lon="8.19281816482544">
        <ele>852.82666015625</ele>
        <time>2006-04-23T09:26:32Z</time>
      </trkpt>
      <trkpt lat="45.701794624328613" lon="8.193118572235107">
        <ele>855.22998046875</ele>
        <time>2006-04-23T09:26:42Z</time>
      </trkpt>
      <trkpt lat="45.702095031738281" lon="8.193397521972656">
        <ele>857.152587890625</ele>
        <time>2006-04-23T09:26:55Z</time>
      </trkpt>
      <trkpt lat="45.702223777770996" lon="8.193633556365967">
        <ele>858.594482421875</ele>
        <time>2006-04-23T09:27:03Z</time>
      </trkpt>
      <trkpt lat="45.702245235443115" lon="8.193912506103516">
        <ele>858.594482421875</ele>
        <time>2006-04-23T09:27:12Z</time>
      </trkpt>
      <trkpt lat="45.702223777770996" lon="8.193955421447754">
        <ele>858.594482421875</ele>
        <time>2006-04-23T09:27:14Z</time>
      </trkpt>
      <trkpt lat="45.7021164894104" lon="8.19406270980835">
        <ele>860.517333984375</ele>
        <time>2006-04-23T09:27:20Z</time>
      </trkpt>
      <trkpt lat="45.701816082000732" lon="8.194191455841065">
        <ele>860.517333984375</ele>
        <time>2006-04-23T09:27:29Z</time>
      </trkpt>
      <trkpt lat="45.701644420623779" lon="8.194341659545898">
        <ele>860.517333984375</ele>
        <time>2006-04-23T09:27:36Z</time>
      </trkpt>
      <trkpt lat="45.701537132263184" lon="8.194577693939209">
        <ele>860.517333984375</ele>
        <time>2006-04-23T09:27:43Z</time>
      </trkpt>
      <trkpt lat="45.70162296295166" lon="8.194856643676758">
        <ele>861.478759765625</ele>
        <time>2006-04-23T09:27:51Z</time>
      </trkpt>
      <trkpt lat="45.701816082000732" lon="8.195006847381592">
        <ele>861.95947265625</ele>
        <time>2006-04-23T09:28:00Z</time>
      </trkpt>
      <trkpt lat="45.70213794708252" lon="8.19504976272583">
        <ele>861.95947265625</ele>
        <time>2006-04-23T09:28:12Z</time>
      </trkpt>
      <trkpt lat="45.702502727508545" lon="8.195114135742188">
        <ele>862.43994140625</ele>
        <time>2006-04-23T09:28:23Z</time>
      </trkpt>
      <trkpt lat="45.702695846557617" lon="8.19530725479126">
        <ele>862.920654296875</ele>
        <time>2006-04-23T09:28:29Z</time>
      </trkpt>
      <trkpt lat="45.702888965606689" lon="8.195586204528809">
        <ele>862.43994140625</ele>
        <time>2006-04-23T09:28:36Z</time>
      </trkpt>
      <trkpt lat="45.702846050262451" lon="8.195779323577881">
        <ele>863.4013671875</ele>
        <time>2006-04-23T09:28:40Z</time>
      </trkpt>
      <trkpt lat="45.702803134918213" lon="8.195929527282715">
        <ele>861.95947265625</ele>
        <time>2006-04-23T09:28:43Z</time>
      </trkpt>
      <trkpt lat="45.702781677246094" lon="8.196036815643311">
        <ele>861.478759765625</ele>
        <time>2006-04-23T09:28:45Z</time>
      </trkpt>
      <trkpt lat="45.702781677246094" lon="8.196337223052979">
        <ele>860.517333984375</ele>
        <time>2006-04-23T09:28:50Z</time>
      </trkpt>
      <trkpt lat="45.702996253967285" lon="8.196465969085693">
        <ele>860.03662109375</ele>
        <time>2006-04-23T09:28:54Z</time>
      </trkpt>
      <trkpt lat="45.703017711639404" lon="8.196637630462647">
        <ele>859.555908203125</ele>
        <time>2006-04-23T09:28:56Z</time>
      </trkpt>
      <trkpt lat="45.703017711639404" lon="8.197174072265625">
        <ele>859.555908203125</ele>
        <time>2006-04-23T09:29:04Z</time>
      </trkpt>
      <trkpt lat="45.703017711639404" lon="8.197216987609863">
        <ele>859.555908203125</ele>
        <time>2006-04-23T09:29:05Z</time>
      </trkpt>
      <trkpt lat="45.702910423278809" lon="8.19753885269165">
        <ele>858.594482421875</ele>
        <time>2006-04-23T09:29:10Z</time>
      </trkpt>
      <trkpt lat="45.702717304229736" lon="8.197817802429199">
        <ele>855.710693359375</ele>
        <time>2006-04-23T09:29:15Z</time>
      </trkpt>
      <trkpt lat="45.702717304229736" lon="8.198032379150391">
        <ele>854.749267578125</ele>
        <time>2006-04-23T09:29:18Z</time>
      </trkpt>
      <trkpt lat="45.702824592590332" lon="8.198246955871582">
        <ele>853.7880859375</ele>
        <time>2006-04-23T09:29:21Z</time>
      </trkpt>
      <trkpt lat="45.70286750793457" lon="8.198525905609131">
        <ele>852.82666015625</ele>
        <time>2006-04-23T09:29:25Z</time>
      </trkpt>
      <trkpt lat="45.702846050262451" lon="8.198590278625488">
        <ele>852.82666015625</ele>
        <time>2006-04-23T09:29:26Z</time>
      </trkpt>
      <trkpt lat="45.702738761901855" lon="8.198719024658203">
        <ele>851.865478515625</ele>
        <time>2006-04-23T09:29:28Z</time>
      </trkpt>
      <trkpt lat="45.702738761901855" lon="8.199169635772705">
        <ele>850.423583984375</ele>
        <time>2006-04-23T09:29:33Z</time>
      </trkpt>
      <trkpt lat="45.702824592590332" lon="8.199470043182373">
        <ele>849.462158203125</ele>
        <time>2006-04-23T09:29:36Z</time>
      </trkpt>
      <trkpt lat="45.70286750793457" lon="8.199877738952637">
        <ele>848.500732421875</ele>
        <time>2006-04-23T09:29:40Z</time>
      </trkpt>
      <trkpt lat="45.702803134918213" lon="8.200092315673828">
        <ele>848.500732421875</ele>
        <time>2006-04-23T09:29:42Z</time>
      </trkpt>
      <trkpt lat="45.70263147354126" lon="8.200564384460449">
        <ele>847.058837890625</ele>
        <time>2006-04-23T09:29:46Z</time>
      </trkpt>
      <trkpt lat="45.702846050262451" lon="8.200929164886475">
        <ele>845.13623046875</ele>
        <time>2006-04-23T09:29:52Z</time>
      </trkpt>
      <trkpt lat="45.703060626983643" lon="8.200993537902832">
        <ele>845.616943359375</ele>
        <time>2006-04-23T09:29:59Z</time>
      </trkpt>
      <trkpt lat="45.703296661376953" lon="8.20103645324707">
        <ele>847.058837890625</ele>
        <time>2006-04-23T09:30:11Z</time>
      </trkpt>
      <trkpt lat="45.703575611114502" lon="8.200950622558594">
        <ele>847.058837890625</ele>
        <time>2006-04-23T09:30:24Z</time>
      </trkpt>
      <trkpt lat="45.703768730163574" lon="8.200757503509522">
        <ele>846.09765625</ele>
        <time>2006-04-23T09:30:35Z</time>
      </trkpt>
      <trkpt lat="45.704047679901123" lon="8.200521469116211">
        <ele>845.13623046875</ele>
        <time>2006-04-23T09:30:48Z</time>
      </trkpt>
      <trkpt lat="45.704262256622314" lon="8.200585842132568">
        <ele>845.616943359375</ele>
        <time>2006-04-23T09:30:58Z</time>
      </trkpt>
      <trkpt lat="45.704562664031982" lon="8.20080041885376">
        <ele>846.578369140625</ele>
        <time>2006-04-23T09:31:09Z</time>
      </trkpt>
      <trkpt lat="45.704584121704102" lon="8.200821876525879">
        <ele>846.578369140625</ele>
        <time>2006-04-23T09:31:10Z</time>
      </trkpt>
      <trkpt lat="45.704519748687744" lon="8.200993537902832">
        <ele>847.53955078125</ele>
        <time>2006-04-23T09:31:16Z</time>
      </trkpt>
      <trkpt lat="45.704326629638672" lon="8.201251029968262">
        <ele>848.500732421875</ele>
        <time>2006-04-23T09:31:26Z</time>
      </trkpt>
      <trkpt lat="45.704176425933838" lon="8.201572895050049">
        <ele>848.9814453125</ele>
        <time>2006-04-23T09:31:35Z</time>
      </trkpt>
      <trkpt lat="45.704240798950195" lon="8.20178747177124">
        <ele>849.462158203125</ele>
        <time>2006-04-23T09:31:40Z</time>
      </trkpt>
      <trkpt lat="45.704455375671387" lon="8.202130794525147">
        <ele>848.020263671875</ele>
        <time>2006-04-23T09:31:51Z</time>
      </trkpt>
      <trkpt lat="45.704691410064697" lon="8.202366828918457">
        <ele>849.462158203125</ele>
        <time>2006-04-23T09:32:04Z</time>
      </trkpt>
      <trkpt lat="45.70488452911377" lon="8.20253849029541">
        <ele>849.94287109375</ele>
        <time>2006-04-23T09:32:17Z</time>
      </trkpt>
      <trkpt lat="45.705056190490723" lon="8.202645778656006">
        <ele>852.82666015625</ele>
        <time>2006-04-23T09:32:30Z</time>
      </trkpt>
      <trkpt lat="45.705142021179199" lon="8.202667236328125">
        <ele>855.710693359375</ele>
        <time>2006-04-23T09:32:36Z</time>
      </trkpt>
      <trkpt lat="45.705163478851318" lon="8.202559947967529">
        <ele>857.63330078125</ele>
        <time>2006-04-23T09:32:43Z</time>
      </trkpt>
      <trkpt lat="45.705163478851318" lon="8.202517032623291">
        <ele>859.0751953125</ele>
        <time>2006-04-23T09:32:47Z</time>
      </trkpt>
      <trkpt lat="45.705056190490723" lon="8.202409744262695">
        <ele>861.95947265625</ele>
        <time>2006-04-23T09:32:59Z</time>
      </trkpt>
      <trkpt lat="45.704970359802246" lon="8.2023024559021">
        <ele>865.8046875</ele>
        <time>2006-04-23T09:33:10Z</time>
      </trkpt>
      <trkpt lat="45.704927444458008" lon="8.202259540557861">
        <ele>867.24658203125</ele>
        <time>2006-04-23T09:33:16Z</time>
      </trkpt>
      <trkpt lat="45.70488452911377" lon="8.202173709869385">
        <ele>869.169189453125</ele>
        <time>2006-04-23T09:33:25Z</time>
      </trkpt>
      <trkpt lat="45.704820156097412" lon="8.202087879180908">
        <ele>871.572265625</ele>
        <time>2006-04-23T09:33:35Z</time>
      </trkpt>
      <trkpt lat="45.704734325408936" lon="8.201937675476074">
        <ele>873.4951171875</ele>
        <time>2006-04-23T09:33:49Z</time>
      </trkpt>
      <trkpt lat="45.704691410064697" lon="8.20178747177124">
        <ele>875.898193359375</ele>
        <time>2006-04-23T09:34:02Z</time>
      </trkpt>
      <trkpt lat="45.704755783081055" lon="8.201723098754883">
        <ele>878.3017578125</ele>
        <time>2006-04-23T09:34:11Z</time>
      </trkpt>
      <trkpt lat="45.704777240753174" lon="8.201723098754883">
        <ele>879.262939453125</ele>
        <time>2006-04-23T09:34:20Z</time>
      </trkpt>
      <trkpt lat="45.704820156097412" lon="8.201766014099121">
        <ele>879.262939453125</ele>
        <time>2006-04-23T09:34:35Z</time>
      </trkpt>
      <trkpt lat="45.70486307144165" lon="8.201851844787598">
        <ele>882.14697265625</ele>
        <time>2006-04-23T09:34:48Z</time>
      </trkpt>
      <trkpt lat="45.70488452911377" lon="8.201851844787598">
        <ele>882.627685546875</ele>
        <time>2006-04-23T09:34:51Z</time>
      </trkpt>
      <trkpt lat="45.704927444458008" lon="8.201873302459717">
        <ele>883.108154296875</ele>
        <time>2006-04-23T09:34:56Z</time>
      </trkpt>
      <trkpt lat="45.705034732818604" lon="8.201851844787598">
        <ele>883.5888671875</ele>
        <time>2006-04-23T09:35:06Z</time>
      </trkpt>
      <trkpt lat="45.705142021179199" lon="8.201808929443359">
        <ele>884.069580078125</ele>
        <time>2006-04-23T09:35:17Z</time>
      </trkpt>
      <trkpt lat="45.705270767211914" lon="8.20178747177124">
        <ele>886.472900390625</ele>
        <time>2006-04-23T09:35:29Z</time>
      </trkpt>
      <trkpt lat="45.705335140228271" lon="8.201808929443359">
        <ele>886.472900390625</ele>
        <time>2006-04-23T09:35:34Z</time>
      </trkpt>
      <trkpt lat="45.705442428588867" lon="8.201937675476074">
        <ele>888.3955078125</ele>
        <time>2006-04-23T09:35:47Z</time>
      </trkpt>
      <trkpt lat="45.705506801605225" lon="8.202066421508789">
        <ele>890.318115234375</ele>
        <time>2006-04-23T09:35:57Z</time>
      </trkpt>
      <trkpt lat="45.705592632293701" lon="8.202195167541504">
        <ele>891.760009765625</ele>
        <time>2006-04-23T09:36:08Z</time>
      </trkpt>
      <trkpt lat="45.705657005310059" lon="8.202280998229981">
        <ele>893.2021484375</ele>
        <time>2006-04-23T09:36:18Z</time>
      </trkpt>
      <trkpt lat="45.705699920654297" lon="8.202259540557861">
        <ele>893.682861328125</ele>
        <time>2006-04-23T09:36:23Z</time>
      </trkpt>
      <trkpt lat="45.705742835998535" lon="8.202195167541504">
        <ele>895.60546875</ele>
        <time>2006-04-23T09:36:30Z</time>
      </trkpt>
      <trkpt lat="45.705721378326416" lon="8.202023506164551">
        <ele>898.0087890625</ele>
        <time>2006-04-23T09:36:42Z</time>
      </trkpt>
      <trkpt lat="45.705699920654297" lon="8.201873302459717">
        <ele>899.931396484375</ele>
        <time>2006-04-23T09:36:54Z</time>
      </trkpt>
      <trkpt lat="45.705699920654297" lon="8.201808929443359">
        <ele>900.412109375</ele>
        <time>2006-04-23T09:36:59Z</time>
      </trkpt>
      <trkpt lat="45.705678462982178" lon="8.201615810394287">
        <ele>901.85400390625</ele>
        <time>2006-04-23T09:37:12Z</time>
      </trkpt>
      <trkpt lat="45.705699920654297" lon="8.201487064361572">
        <ele>902.33447265625</ele>
        <time>2006-04-23T09:37:22Z</time>
      </trkpt>
      <trkpt lat="45.705785751342773" lon="8.201336860656738">
        <ele>904.73779296875</ele>
        <time>2006-04-23T09:37:33Z</time>
      </trkpt>
      <trkpt lat="45.705850124359131" lon="8.201208114624023">
        <ele>906.660400390625</ele>
        <time>2006-04-23T09:37:42Z</time>
      </trkpt>
      <trkpt lat="45.705935955047607" lon="8.20103645324707">
        <ele>903.2958984375</ele>
        <time>2006-04-23T09:37:55Z</time>
      </trkpt>
      <trkpt lat="45.706064701080322" lon="8.200693130493164">
        <ele>902.815185546875</ele>
        <time>2006-04-23T09:38:12Z</time>
      </trkpt>
      <trkpt lat="45.706214904785156" lon="8.200693130493164">
        <ele>904.25732421875</ele>
        <time>2006-04-23T09:38:22Z</time>
      </trkpt>
      <trkpt lat="45.706429481506348" lon="8.200821876525879">
        <ele>904.73779296875</ele>
        <time>2006-04-23T09:38:34Z</time>
      </trkpt>
      <trkpt lat="45.706601142883301" lon="8.200843334197998">
        <ele>905.218505859375</ele>
        <time>2006-04-23T09:38:41Z</time>
      </trkpt>
      <trkpt lat="45.70688009262085" lon="8.200821876525879">
        <ele>906.1796875</ele>
        <time>2006-04-23T09:38:53Z</time>
      </trkpt>
      <trkpt lat="45.707201957702637" lon="8.200650215148926">
        <ele>905.218505859375</ele>
        <time>2006-04-23T09:39:07Z</time>
      </trkpt>
      <trkpt lat="45.707480907440186" lon="8.200457096099854">
        <ele>905.69921875</ele>
        <time>2006-04-23T09:39:18Z</time>
      </trkpt>
      <trkpt lat="45.707738399505615" lon="8.200263977050781">
        <ele>905.218505859375</ele>
        <time>2006-04-23T09:39:30Z</time>
      </trkpt>
      <trkpt lat="45.707824230194092" lon="8.200349807739258">
        <ele>904.73779296875</ele>
        <time>2006-04-23T09:39:36Z</time>
      </trkpt>
      <trkpt lat="45.70786714553833" lon="8.200714588165283">
        <ele>903.776611328125</ele>
        <time>2006-04-23T09:39:45Z</time>
      </trkpt>
      <trkpt lat="45.707995891571045" lon="8.201100826263428">
        <ele>904.73779296875</ele>
        <time>2006-04-23T09:39:53Z</time>
      </trkpt>
      <trkpt lat="45.708189010620117" lon="8.201358318328857">
        <ele>904.73779296875</ele>
        <time>2006-04-23T09:39:59Z</time>
      </trkpt>
      <trkpt lat="45.708274841308594" lon="8.201444149017334">
        <ele>905.218505859375</ele>
        <time>2006-04-23T09:40:01Z</time>
      </trkpt>
      <trkpt lat="45.708425045013428" lon="8.201572895050049">
        <ele>905.69921875</ele>
        <time>2006-04-23T09:40:05Z</time>
      </trkpt>
      <trkpt lat="45.708575248718262" lon="8.201723098754883">
        <ele>905.69921875</ele>
        <time>2006-04-23T09:40:09Z</time>
      </trkpt>
      <trkpt lat="45.708811283111572" lon="8.201594352722168">
        <ele>904.73779296875</ele>
        <time>2006-04-23T09:40:16Z</time>
      </trkpt>
      <trkpt lat="45.708961486816406" lon="8.20155143737793">
        <ele>904.73779296875</ele>
        <time>2006-04-23T09:40:20Z</time>
      </trkpt>
      <trkpt lat="45.709047317504883" lon="8.201572895050049">
        <ele>904.73779296875</ele>
        <time>2006-04-23T09:40:22Z</time>
      </trkpt>
      <trkpt lat="45.709283351898193" lon="8.201680183410645">
        <ele>904.73779296875</ele>
        <time>2006-04-23T09:40:29Z</time>
      </trkpt>
      <trkpt lat="45.70960521697998" lon="8.201723098754883">
        <ele>903.776611328125</ele>
        <time>2006-04-23T09:40:39Z</time>
      </trkpt>
      <trkpt lat="45.709648132324219" lon="8.201701641082764">
        <ele>903.776611328125</ele>
        <time>2006-04-23T09:40:42Z</time>
      </trkpt>
      <trkpt lat="45.709691047668457" lon="8.201658725738525">
        <ele>903.2958984375</ele>
        <time>2006-04-23T09:40:43Z</time>
      </trkpt>
      <trkpt lat="45.709819793701172" lon="8.201272487640381">
        <ele>902.33447265625</ele>
        <time>2006-04-23T09:40:52Z</time>
      </trkpt>
      <trkpt lat="45.709819793701172" lon="8.201229572296143">
        <ele>902.33447265625</ele>
        <time>2006-04-23T09:40:53Z</time>
      </trkpt>
      <trkpt lat="45.709969997406006" lon="8.201165199279785">
        <ele>903.776611328125</ele>
        <time>2006-04-23T09:41:01Z</time>
      </trkpt>
      <trkpt lat="45.710184574127197" lon="8.201100826263428">
        <ele>906.660400390625</ele>
        <time>2006-04-23T09:41:13Z</time>
      </trkpt>
      <trkpt lat="45.710334777832031" lon="8.201079368591309">
        <ele>907.14111328125</ele>
        <time>2006-04-23T09:41:22Z</time>
      </trkpt>
      <trkpt lat="45.710527896881104" lon="8.20103645324707">
        <ele>905.69921875</ele>
        <time>2006-04-23T09:41:32Z</time>
      </trkpt>
      <trkpt lat="45.710656642913818" lon="8.200907707214356">
        <ele>910.025146484375</ele>
        <time>2006-04-23T09:41:41Z</time>
      </trkpt>
      <trkpt lat="45.71087121963501" lon="8.200886249542236">
        <ele>914.831787109375</ele>
        <time>2006-04-23T09:41:54Z</time>
      </trkpt>
      <trkpt lat="45.711021423339844" lon="8.200886249542236">
        <ele>914.831787109375</ele>
        <time>2006-04-23T09:42:09Z</time>
      </trkpt>
      <trkpt lat="45.711171627044678" lon="8.20080041885376">
        <ele>916.75439453125</ele>
        <time>2006-04-23T09:42:20Z</time>
      </trkpt>
      <trkpt lat="45.711343288421631" lon="8.200714588165283">
        <ele>917.715576171875</ele>
        <time>2006-04-23T09:42:32Z</time>
      </trkpt>
      <trkpt lat="45.711536407470703" lon="8.200821876525879">
        <ele>917.235107421875</ele>
        <time>2006-04-23T09:42:46Z</time>
      </trkpt>
      <trkpt lat="45.711493492126465" lon="8.200993537902832">
        <ele>915.3125</ele>
        <time>2006-04-23T09:42:55Z</time>
      </trkpt>
      <trkpt lat="45.711536407470703" lon="8.201165199279785">
        <ele>915.3125</ele>
        <time>2006-04-23T09:43:04Z</time>
      </trkpt>
      <trkpt lat="45.711686611175537" lon="8.201358318328857">
        <ele>919.638427734375</ele>
        <time>2006-04-23T09:43:14Z</time>
      </trkpt>
      <trkpt lat="45.711643695831299" lon="8.201658725738525">
        <ele>920.118896484375</ele>
        <time>2006-04-23T09:43:29Z</time>
      </trkpt>
      <trkpt lat="45.711450576782227" lon="8.201830387115479">
        <ele>923.0029296875</ele>
        <time>2006-04-23T09:43:42Z</time>
      </trkpt>
      <trkpt lat="45.711343288421631" lon="8.20204496383667">
        <ele>923.0029296875</ele>
        <time>2006-04-23T09:43:52Z</time>
      </trkpt>
      <trkpt lat="45.711278915405273" lon="8.202323913574219">
        <ele>923.483642578125</ele>
        <time>2006-04-23T09:44:04Z</time>
      </trkpt>
      <trkpt lat="45.711278915405273" lon="8.202366828918457">
        <ele>924.445068359375</ele>
        <time>2006-04-23T09:44:06Z</time>
      </trkpt>
      <trkpt lat="45.71136474609375" lon="8.202495574951172">
        <ele>925.886962890625</ele>
        <time>2006-04-23T09:44:16Z</time>
      </trkpt>
      <trkpt lat="45.711407661437988" lon="8.202624320983887">
        <ele>927.8095703125</ele>
        <time>2006-04-23T09:44:24Z</time>
      </trkpt>
      <trkpt lat="45.711472034454346" lon="8.202860355377197">
        <ele>927.3291015625</ele>
        <time>2006-04-23T09:44:36Z</time>
      </trkpt>
      <trkpt lat="45.711450576782227" lon="8.203160762786865">
        <ele>929.25146484375</ele>
        <time>2006-04-23T09:44:48Z</time>
      </trkpt>
      <trkpt lat="45.711429119110107" lon="8.203482627868652">
        <ele>931.17431640625</ele>
        <time>2006-04-23T09:45:02Z</time>
      </trkpt>
      <trkpt lat="45.711493492126465" lon="8.203718662261963">
        <ele>933.0966796875</ele>
        <time>2006-04-23T09:45:15Z</time>
      </trkpt>
      <trkpt lat="45.711536407470703" lon="8.203954696655273">
        <ele>934.538818359375</ele>
        <time>2006-04-23T09:45:25Z</time>
      </trkpt>
      <trkpt lat="45.711579322814941" lon="8.204212188720703">
        <ele>937.422607421875</ele>
        <time>2006-04-23T09:45:37Z</time>
      </trkpt>
      <trkpt lat="45.71162223815918" lon="8.204426765441895">
        <ele>937.9033203125</ele>
        <time>2006-04-23T09:45:46Z</time>
      </trkpt>
      <trkpt lat="45.711686611175537" lon="8.204684257507324">
        <ele>941.748779296875</ele>
        <time>2006-04-23T09:45:57Z</time>
      </trkpt>
      <trkpt lat="45.711708068847656" lon="8.204898834228516">
        <ele>947.997314453125</ele>
        <time>2006-04-23T09:46:08Z</time>
      </trkpt>
      <trkpt lat="45.711729526519775" lon="8.204984664916992">
        <ele>951.842529296875</ele>
        <time>2006-04-23T09:46:14Z</time>
      </trkpt>
      <trkpt lat="45.711793899536133" lon="8.204920291900635">
        <ele>951.36181640625</ele>
        <time>2006-04-23T09:46:20Z</time>
      </trkpt>
      <trkpt lat="45.711793899536133" lon="8.204877376556397">
        <ele>951.842529296875</ele>
        <time>2006-04-23T09:46:23Z</time>
      </trkpt>
      <trkpt lat="45.711793899536133" lon="8.204813003540039">
        <ele>952.322998046875</ele>
        <time>2006-04-23T09:46:32Z</time>
      </trkpt>
      <trkpt lat="45.711772441864014" lon="8.204684257507324">
        <ele>951.36181640625</ele>
        <time>2006-04-23T09:46:43Z</time>
      </trkpt>
      <trkpt lat="45.711793899536133" lon="8.204555511474609">
        <ele>952.8037109375</ele>
        <time>2006-04-23T09:46:54Z</time>
      </trkpt>
      <trkpt lat="45.711836814880371" lon="8.204383850097656">
        <ele>953.284423828125</ele>
        <time>2006-04-23T09:47:08Z</time>
      </trkpt>
      <trkpt lat="45.711815357208252" lon="8.204362392425537">
        <ele>959.052490234375</ele>
        <time>2006-04-23T09:47:18Z</time>
      </trkpt>
      <trkpt lat="45.711815357208252" lon="8.20429801940918">
        <ele>960.013671875</ele>
        <time>2006-04-23T09:47:29Z</time>
      </trkpt>
      <trkpt lat="45.711836814880371" lon="8.204147815704346">
        <ele>960.013671875</ele>
        <time>2006-04-23T09:47:42Z</time>
      </trkpt>
      <trkpt lat="45.711879730224609" lon="8.203997611999512">
        <ele>960.494384765625</ele>
        <time>2006-04-23T09:47:55Z</time>
      </trkpt>
      <trkpt lat="45.711879730224609" lon="8.203847408294678">
        <ele>961.455810546875</ele>
        <time>2006-04-23T09:48:06Z</time>
      </trkpt>
      <trkpt lat="45.711836814880371" lon="8.203718662261963">
        <ele>962.4169921875</ele>
        <time>2006-04-23T09:48:17Z</time>
      </trkpt>
      <trkpt lat="45.711772441864014" lon="8.203632831573486">
        <ele>961.9365234375</ele>
        <time>2006-04-23T09:48:27Z</time>
      </trkpt>
      <trkpt lat="45.711772441864014" lon="8.203525543212891">
        <ele>962.897705078125</ele>
        <time>2006-04-23T09:48:36Z</time>
      </trkpt>
      <trkpt lat="45.711836814880371" lon="8.203568458557129">
        <ele>965.78173828125</ele>
        <time>2006-04-23T09:48:44Z</time>
      </trkpt>
      <trkpt lat="45.71185827255249" lon="8.203632831573486">
        <ele>966.26220703125</ele>
        <time>2006-04-23T09:48:51Z</time>
      </trkpt>
      <trkpt lat="45.711879730224609" lon="8.203675746917725">
        <ele>966.26220703125</ele>
        <time>2006-04-23T09:49:01Z</time>
      </trkpt>
      <trkpt lat="45.711944103240967" lon="8.203740119934082">
        <ele>959.533203125</ele>
        <time>2006-04-23T09:49:32Z</time>
      </trkpt>
      <trkpt lat="45.712008476257324" lon="8.203868865966797">
        <ele>960.494384765625</ele>
        <time>2006-04-23T09:49:42Z</time>
      </trkpt>
      <trkpt lat="45.712051391601563" lon="8.203997611999512">
        <ele>960.494384765625</ele>
        <time>2006-04-23T09:49:52Z</time>
      </trkpt>
      <trkpt lat="45.71211576461792" lon="8.204190731048584">
        <ele>965.301025390625</ele>
        <time>2006-04-23T09:50:06Z</time>
      </trkpt>
      <trkpt lat="45.712137222290039" lon="8.204362392425537">
        <ele>968.66552734375</ele>
        <time>2006-04-23T09:50:19Z</time>
      </trkpt>
      <trkpt lat="45.712201595306396" lon="8.204491138458252">
        <ele>970.588134765625</ele>
        <time>2006-04-23T09:50:29Z</time>
      </trkpt>
      <trkpt lat="45.712287425994873" lon="8.20453405380249">
        <ele>972.0302734375</ele>
        <time>2006-04-23T09:50:40Z</time>
      </trkpt>
      <trkpt lat="45.712437629699707" lon="8.204576969146729">
        <ele>974.43359375</ele>
        <time>2006-04-23T09:50:54Z</time>
      </trkpt>
      <trkpt lat="45.712480545043945" lon="8.204619884490967">
        <ele>974.914306640625</ele>
        <time>2006-04-23T09:51:01Z</time>
      </trkpt>
      <trkpt lat="45.712566375732422" lon="8.204705715179443">
        <ele>976.8369140625</ele>
        <time>2006-04-23T09:51:11Z</time>
      </trkpt>
      <trkpt lat="45.712652206420898" lon="8.20479154586792">
        <ele>978.27880859375</ele>
        <time>2006-04-23T09:51:23Z</time>
      </trkpt>
      <trkpt lat="45.712780952453613" lon="8.204855918884277">
        <ele>980.201416015625</ele>
        <time>2006-04-23T09:51:36Z</time>
      </trkpt>
      <trkpt lat="45.712845325469971" lon="8.204963207244873">
        <ele>982.1240234375</ele>
        <time>2006-04-23T09:51:48Z</time>
      </trkpt>
      <trkpt lat="45.712888240814209" lon="8.205027580261231">
        <ele>983.56591796875</ele>
        <time>2006-04-23T09:51:53Z</time>
      </trkpt>
      <trkpt lat="45.712888240814209" lon="8.205242156982422">
        <ele>984.52734375</ele>
        <time>2006-04-23T09:52:06Z</time>
      </trkpt>
      <trkpt lat="45.712909698486328" lon="8.205349445343018">
        <ele>985.488525390625</ele>
        <time>2006-04-23T09:52:14Z</time>
      </trkpt>
      <trkpt lat="45.712995529174805" lon="8.205456733703613">
        <ele>986.930419921875</ele>
        <time>2006-04-23T09:52:25Z</time>
      </trkpt>
      <trkpt lat="45.7131028175354" lon="8.205435276031494">
        <ele>988.372802734375</ele>
        <time>2006-04-23T09:52:34Z</time>
      </trkpt>
      <trkpt lat="45.713210105895996" lon="8.205392360687256">
        <ele>991.256591796875</ele>
        <time>2006-04-23T09:52:45Z</time>
      </trkpt>
      <trkpt lat="45.713338851928711" lon="8.205349445343018">
        <ele>993.17919921875</ele>
        <time>2006-04-23T09:52:57Z</time>
      </trkpt>
      <trkpt lat="45.713467597961426" lon="8.205392360687256">
        <ele>996.063232421875</ele>
        <time>2006-04-23T09:53:08Z</time>
      </trkpt>
      <trkpt lat="45.713574886322021" lon="8.205392360687256">
        <ele>994.62109375</ele>
        <time>2006-04-23T09:53:19Z</time>
      </trkpt>
      <trkpt lat="45.713703632354736" lon="8.205370903015137">
        <ele>996.5439453125</ele>
        <time>2006-04-23T09:53:32Z</time>
      </trkpt>
      <trkpt lat="45.713832378387451" lon="8.205499649047852">
        <ele>997.98583984375</ele>
        <time>2006-04-23T09:53:45Z</time>
      </trkpt>
      <trkpt lat="45.713961124420166" lon="8.205606937408447">
        <ele>997.98583984375</ele>
        <time>2006-04-23T09:53:59Z</time>
      </trkpt>
      <trkpt lat="45.714089870452881" lon="8.205692768096924">
        <ele>998.947021484375</ele>
        <time>2006-04-23T09:54:11Z</time>
      </trkpt>
      <trkpt lat="45.714197158813477" lon="8.205692768096924">
        <ele>1001.8310546875</ele>
        <time>2006-04-23T09:54:22Z</time>
      </trkpt>
      <trkpt lat="45.714218616485596" lon="8.205692768096924">
        <ele>1001.8310546875</ele>
        <time>2006-04-23T09:54:23Z</time>
      </trkpt>
      <trkpt lat="45.714282989501953" lon="8.20554256439209">
        <ele>1005.19580078125</ele>
        <time>2006-04-23T09:54:35Z</time>
      </trkpt>
      <trkpt lat="45.71436882019043" lon="8.205370903015137">
        <ele>1007.59912109375</ele>
        <time>2006-04-23T09:54:47Z</time>
      </trkpt>
      <trkpt lat="45.714497566223145" lon="8.205263614654541">
        <ele>1008.560302734375</ele>
        <time>2006-04-23T09:54:59Z</time>
      </trkpt>
      <trkpt lat="45.714626312255859" lon="8.205156326293945">
        <ele>1008.560302734375</ele>
        <time>2006-04-23T09:55:11Z</time>
      </trkpt>
      <trkpt lat="45.714797973632813" lon="8.205113410949707">
        <ele>1011.925048828125</ele>
        <time>2006-04-23T09:55:25Z</time>
      </trkpt>
      <trkpt lat="45.714926719665527" lon="8.205113410949707">
        <ele>1012.88623046875</ele>
        <time>2006-04-23T09:55:37Z</time>
      </trkpt>
      <trkpt lat="45.715055465698242" lon="8.205091953277588">
        <ele>1013.847412109375</ele>
        <time>2006-04-23T09:55:48Z</time>
      </trkpt>
      <trkpt lat="45.7151198387146" lon="8.205006122589111">
        <ele>1013.366943359375</ele>
        <time>2006-04-23T09:55:56Z</time>
      </trkpt>
      <trkpt lat="45.715205669403076" lon="8.204898834228516">
        <ele>1014.328125</ele>
        <time>2006-04-23T09:56:06Z</time>
      </trkpt>
      <trkpt lat="45.715312957763672" lon="8.20479154586792">
        <ele>1017.692626953125</ele>
        <time>2006-04-23T09:56:16Z</time>
      </trkpt>
      <trkpt lat="45.715441703796387" lon="8.204684257507324">
        <ele>1017.692626953125</ele>
        <time>2006-04-23T09:56:29Z</time>
      </trkpt>
      <trkpt lat="45.715484619140625" lon="8.204512596130371">
        <ele>1017.692626953125</ele>
        <time>2006-04-23T09:56:41Z</time>
      </trkpt>
      <trkpt lat="45.715484619140625" lon="8.204362392425537">
        <ele>1017.212158203125</ele>
        <time>2006-04-23T09:56:49Z</time>
      </trkpt>
      <trkpt lat="45.715484619140625" lon="8.204147815704346">
        <ele>1015.28955078125</ele>
        <time>2006-04-23T09:57:01Z</time>
      </trkpt>
      <trkpt lat="45.715463161468506" lon="8.203890323638916">
        <ele>1014.328125</ele>
        <time>2006-04-23T09:57:14Z</time>
      </trkpt>
      <trkpt lat="45.715484619140625" lon="8.203654289245606">
        <ele>1016.7314453125</ele>
        <time>2006-04-23T09:57:26Z</time>
      </trkpt>
      <trkpt lat="45.715634822845459" lon="8.203525543212891">
        <ele>1019.134765625</ele>
        <time>2006-04-23T09:57:38Z</time>
      </trkpt>
      <trkpt lat="45.71584939956665" lon="8.203482627868652">
        <ele>1020.576904296875</ele>
        <time>2006-04-23T09:57:51Z</time>
      </trkpt>
      <trkpt lat="45.716042518615723" lon="8.203396797180176">
        <ele>1021.0576171875</ele>
        <time>2006-04-23T09:58:03Z</time>
      </trkpt>
      <trkpt lat="45.716042518615723" lon="8.203225135803223">
        <ele>1019.615478515625</ele>
        <time>2006-04-23T09:58:10Z</time>
      </trkpt>
      <trkpt lat="45.715978145599365" lon="8.203010559082031">
        <ele>1019.615478515625</ele>
        <time>2006-04-23T09:58:21Z</time>
      </trkpt>
      <trkpt lat="45.715956687927246" lon="8.202946186065674">
        <ele>1019.615478515625</ele>
        <time>2006-04-23T09:58:24Z</time>
      </trkpt>
      <trkpt lat="45.716085433959961" lon="8.202645778656006">
        <ele>1025.38330078125</ele>
        <time>2006-04-23T09:58:40Z</time>
      </trkpt>
      <trkpt lat="45.716171264648438" lon="8.202345371246338">
        <ele>1026.3447265625</ele>
        <time>2006-04-23T09:58:55Z</time>
      </trkpt>
      <trkpt lat="45.716257095336914" lon="8.202216625213623">
        <ele>1028.267333984375</ele>
        <time>2006-04-23T09:59:04Z</time>
      </trkpt>
      <trkpt lat="45.716278553009033" lon="8.202216625213623">
        <ele>1028.267333984375</ele>
        <time>2006-04-23T09:59:05Z</time>
      </trkpt>
      <trkpt lat="45.716450214385986" lon="8.202259540557861">
        <ele>1029.709228515625</ele>
        <time>2006-04-23T09:59:17Z</time>
      </trkpt>
      <trkpt lat="45.716621875762939" lon="8.202345371246338">
        <ele>1028.267333984375</ele>
        <time>2006-04-23T09:59:31Z</time>
      </trkpt>
      <trkpt lat="45.716793537139893" lon="8.202323913574219">
        <ele>1026.825439453125</ele>
        <time>2006-04-23T09:59:43Z</time>
      </trkpt>
      <trkpt lat="45.717008113861084" lon="8.202238082885742">
        <ele>1027.78662109375</ele>
        <time>2006-04-23T09:59:57Z</time>
      </trkpt>
      <trkpt lat="45.717093944549561" lon="8.202087879180908">
        <ele>1029.228515625</ele>
        <time>2006-04-23T10:00:08Z</time>
      </trkpt>
      <trkpt lat="45.717136859893799" lon="8.201851844787598">
        <ele>1030.670654296875</ele>
        <time>2006-04-23T10:00:20Z</time>
      </trkpt>
      <trkpt lat="45.717136859893799" lon="8.20178747177124">
        <ele>1030.18994140625</ele>
        <time>2006-04-23T10:00:24Z</time>
      </trkpt>
      <trkpt lat="45.717051029205322" lon="8.201465606689453">
        <ele>1029.709228515625</ele>
        <time>2006-04-23T10:00:40Z</time>
      </trkpt>
      <trkpt lat="45.717093944549561" lon="8.201143741607666">
        <ele>1030.670654296875</ele>
        <time>2006-04-23T10:00:52Z</time>
      </trkpt>
      <trkpt lat="45.71711540222168" lon="8.200864791870117">
        <ele>1031.1513671875</ele>
        <time>2006-04-23T10:01:04Z</time>
      </trkpt>
      <trkpt lat="45.717201232910156" lon="8.200693130493164">
        <ele>1032.59326171875</ele>
        <time>2006-04-23T10:01:15Z</time>
      </trkpt>
      <trkpt lat="45.717287063598633" lon="8.200435638427734">
        <ele>1034.03515625</ele>
        <time>2006-04-23T10:01:30Z</time>
      </trkpt>
      <trkpt lat="45.717372894287109" lon="8.200221061706543">
        <ele>1039.80322265625</ele>
        <time>2006-04-23T10:01:46Z</time>
      </trkpt>
      <trkpt lat="45.717394351959229" lon="8.200199604034424">
        <ele>1040.283935546875</ele>
        <time>2006-04-23T10:01:51Z</time>
      </trkpt>
      <trkpt lat="45.717501640319824" lon="8.200113773345947">
        <ele>1041.725830078125</ele>
        <time>2006-04-23T10:02:04Z</time>
      </trkpt>
      <trkpt lat="45.717566013336182" lon="8.200092315673828">
        <ele>1040.283935546875</ele>
        <time>2006-04-23T10:02:16Z</time>
      </trkpt>
      <trkpt lat="45.717694759368896" lon="8.20004940032959">
        <ele>1043.167724609375</ele>
        <time>2006-04-23T10:02:30Z</time>
      </trkpt>
      <trkpt lat="45.717802047729492" lon="8.200070858001709">
        <ele>1047.49365234375</ele>
        <time>2006-04-23T10:02:41Z</time>
      </trkpt>
      <trkpt lat="45.717909336090088" lon="8.200027942657471">
        <ele>1049.416259765625</ele>
        <time>2006-04-23T10:02:55Z</time>
      </trkpt>
      <trkpt lat="45.717973709106445" lon="8.200006484985352">
        <ele>1053.26171875</ele>
        <time>2006-04-23T10:03:02Z</time>
      </trkpt>
      <trkpt lat="45.718059539794922" lon="8.199899196624756">
        <ele>1052.30029296875</ele>
        <time>2006-04-23T10:03:16Z</time>
      </trkpt>
      <trkpt lat="45.718123912811279" lon="8.199877738952637">
        <ele>1054.70361328125</ele>
        <time>2006-04-23T10:03:25Z</time>
      </trkpt>
      <trkpt lat="45.718145370483398" lon="8.199877738952637">
        <ele>1054.70361328125</ele>
        <time>2006-04-23T10:03:28Z</time>
      </trkpt>
      <trkpt lat="45.718274116516113" lon="8.199899196624756">
        <ele>1055.184326171875</ele>
        <time>2006-04-23T10:03:42Z</time>
      </trkpt>
      <trkpt lat="45.718381404876709" lon="8.199942111968994">
        <ele>1054.70361328125</ele>
        <time>2006-04-23T10:03:52Z</time>
      </trkpt>
      <trkpt lat="45.718381404876709" lon="8.199877738952637">
        <ele>1057.10693359375</ele>
        <time>2006-04-23T10:04:01Z</time>
      </trkpt>
      <trkpt lat="45.718274116516113" lon="8.199813365936279">
        <ele>1059.029541015625</ele>
        <time>2006-04-23T10:04:14Z</time>
      </trkpt>
      <trkpt lat="45.718252658843994" lon="8.19979190826416">
        <ele>1058.548828125</ele>
        <time>2006-04-23T10:04:17Z</time>
      </trkpt>
      <trkpt lat="45.718166828155518" lon="8.199748992919922">
        <ele>1059.029541015625</ele>
        <time>2006-04-23T10:04:28Z</time>
      </trkpt>
      <trkpt lat="45.718059539794922" lon="8.199706077575684">
        <ele>1059.99072265625</ele>
        <time>2006-04-23T10:04:41Z</time>
      </trkpt>
      <trkpt lat="45.717995166778564" lon="8.199663162231445">
        <ele>1061.432861328125</ele>
        <time>2006-04-23T10:04:51Z</time>
      </trkpt>
      <trkpt lat="45.717952251434326" lon="8.199620246887207">
        <ele>1057.587646484375</ele>
        <time>2006-04-23T10:05:27Z</time>
      </trkpt>
      <trkpt lat="45.717909336090088" lon="8.199598789215088">
        <ele>1062.39404296875</ele>
        <time>2006-04-23T10:05:36Z</time>
      </trkpt>
      <trkpt lat="45.71784496307373" lon="8.199620246887207">
        <ele>1057.587646484375</ele>
        <time>2006-04-23T10:06:51Z</time>
      </trkpt>
      <trkpt lat="45.717780590057373" lon="8.199512958526611">
        <ele>1056.1455078125</ele>
        <time>2006-04-23T10:07:04Z</time>
      </trkpt>
      <trkpt lat="45.717673301696777" lon="8.199405670166016">
        <ele>1059.99072265625</ele>
        <time>2006-04-23T10:07:17Z</time>
      </trkpt>
      <trkpt lat="45.717587471008301" lon="8.199341297149658">
        <ele>1060.9521484375</ele>
        <time>2006-04-23T10:07:28Z</time>
      </trkpt>
      <trkpt lat="45.717501640319824" lon="8.199212551116943">
        <ele>1064.316650390625</ele>
        <time>2006-04-23T10:07:41Z</time>
      </trkpt>
      <trkpt lat="45.717394351959229" lon="8.199105262756348">
        <ele>1068.162109375</ele>
        <time>2006-04-23T10:07:54Z</time>
      </trkpt>
      <trkpt lat="45.717308521270752" lon="8.199019432067871">
        <ele>1071.526611328125</ele>
        <time>2006-04-23T10:08:05Z</time>
      </trkpt>
      <trkpt lat="45.717222690582275" lon="8.198912143707275">
        <ele>1072.00732421875</ele>
        <time>2006-04-23T10:08:18Z</time>
      </trkpt>
      <trkpt lat="45.717179775238037" lon="8.198869228363037">
        <ele>1072.488037109375</ele>
        <time>2006-04-23T10:08:24Z</time>
      </trkpt>
      <trkpt lat="45.717051029205322" lon="8.198847770690918">
        <ele>1074.891357421875</ele>
        <time>2006-04-23T10:08:37Z</time>
      </trkpt>
      <trkpt lat="45.716922283172607" lon="8.198869228363037">
        <ele>1080.6591796875</ele>
        <time>2006-04-23T10:08:51Z</time>
      </trkpt>
      <trkpt lat="45.716814994812012" lon="8.198933601379395">
        <ele>1082.581787109375</ele>
        <time>2006-04-23T10:09:00Z</time>
      </trkpt>
      <trkpt lat="45.716664791107178" lon="8.198997974395752">
        <ele>1082.581787109375</ele>
        <time>2006-04-23T10:09:11Z</time>
      </trkpt>
      <trkpt lat="45.716514587402344" lon="8.198933601379395">
        <ele>1082.10107421875</ele>
        <time>2006-04-23T10:09:22Z</time>
      </trkpt>
      <trkpt lat="45.716342926025391" lon="8.198826313018799">
        <ele>1083.54296875</ele>
        <time>2006-04-23T10:09:33Z</time>
      </trkpt>
      <trkpt lat="45.716171264648438" lon="8.198740482330322">
        <ele>1083.54296875</ele>
        <time>2006-04-23T10:09:45Z</time>
      </trkpt>
      <trkpt lat="45.715978145599365" lon="8.198719024658203">
        <ele>1086.90771484375</ele>
        <time>2006-04-23T10:09:57Z</time>
      </trkpt>
      <trkpt lat="45.71584939956665" lon="8.198740482330322">
        <ele>1086.90771484375</ele>
        <time>2006-04-23T10:10:07Z</time>
      </trkpt>
      <trkpt lat="45.715634822845459" lon="8.19880485534668">
        <ele>1088.83056640625</ele>
        <time>2006-04-23T10:10:21Z</time>
      </trkpt>
      <trkpt lat="45.715420246124268" lon="8.19880485534668">
        <ele>1090.7529296875</ele>
        <time>2006-04-23T10:10:36Z</time>
      </trkpt>
      <trkpt lat="45.715248584747314" lon="8.198761940002441">
        <ele>1093.636962890625</ele>
        <time>2006-04-23T10:10:49Z</time>
      </trkpt>
      <trkpt lat="45.715162754058838" lon="8.198654651641846">
        <ele>1091.233642578125</ele>
        <time>2006-04-23T10:10:59Z</time>
      </trkpt>
      <trkpt lat="45.715076923370361" lon="8.198611736297607">
        <ele>1089.31103515625</ele>
        <time>2006-04-23T10:11:08Z</time>
      </trkpt>
      <trkpt lat="45.714969635009766" lon="8.198568820953369">
        <ele>1091.233642578125</ele>
        <time>2006-04-23T10:11:16Z</time>
      </trkpt>
      <trkpt lat="45.714905261993408" lon="8.19854736328125">
        <ele>1092.67578125</ele>
        <time>2006-04-23T10:11:23Z</time>
      </trkpt>
      <trkpt lat="45.714797973632813" lon="8.198504447937012">
        <ele>1094.59814453125</ele>
        <time>2006-04-23T10:11:34Z</time>
      </trkpt>
      <trkpt lat="45.714755058288574" lon="8.198440074920654">
        <ele>1095.078857421875</ele>
        <time>2006-04-23T10:11:42Z</time>
      </trkpt>
      <trkpt lat="45.714690685272217" lon="8.198246955871582">
        <ele>1097.00146484375</ele>
        <time>2006-04-23T10:11:58Z</time>
      </trkpt>
      <trkpt lat="45.714690685272217" lon="8.198118209838867">
        <ele>1098.443359375</ele>
        <time>2006-04-23T10:12:10Z</time>
      </trkpt>
      <trkpt lat="45.714712142944336" lon="8.197968006134033">
        <ele>1100.366455078125</ele>
        <time>2006-04-23T10:12:23Z</time>
      </trkpt>
      <trkpt lat="45.714712142944336" lon="8.197839260101318">
        <ele>1102.76953125</ele>
        <time>2006-04-23T10:12:37Z</time>
      </trkpt>
      <trkpt lat="45.714712142944336" lon="8.19779634475708">
        <ele>1108.056884765625</ele>
        <time>2006-04-23T10:12:52Z</time>
      </trkpt>
      <trkpt lat="45.714712142944336" lon="8.197689056396484">
        <ele>1108.537353515625</ele>
        <time>2006-04-23T10:12:58Z</time>
      </trkpt>
      <trkpt lat="45.714669227600098" lon="8.197710514068604">
        <ele>1110.4599609375</ele>
        <time>2006-04-23T10:13:05Z</time>
      </trkpt>
      <trkpt lat="45.714626312255859" lon="8.197753429412842">
        <ele>1110.940673828125</ele>
        <time>2006-04-23T10:13:09Z</time>
      </trkpt>
      <trkpt lat="45.714519023895264" lon="8.197817802429199">
        <ele>1109.498779296875</ele>
        <time>2006-04-23T10:13:21Z</time>
      </trkpt>
      <trkpt lat="45.714390277862549" lon="8.197839260101318">
        <ele>1112.382568359375</ele>
        <time>2006-04-23T10:13:34Z</time>
      </trkpt>
      <trkpt lat="45.71436882019043" lon="8.197839260101318">
        <ele>1113.343994140625</ele>
        <time>2006-04-23T10:13:42Z</time>
      </trkpt>
      <trkpt lat="45.714282989501953" lon="8.197839260101318">
        <ele>1113.343994140625</ele>
        <time>2006-04-23T10:13:51Z</time>
      </trkpt>
      <trkpt lat="45.714154243469238" lon="8.197817802429199">
        <ele>1111.902099609375</ele>
        <time>2006-04-23T10:14:01Z</time>
      </trkpt>
      <trkpt lat="45.714025497436523" lon="8.197710514068604">
        <ele>1114.30517578125</ele>
        <time>2006-04-23T10:14:12Z</time>
      </trkpt>
      <trkpt lat="45.71385383605957" lon="8.197581768035889">
        <ele>1114.30517578125</ele>
        <time>2006-04-23T10:14:25Z</time>
      </trkpt>
      <trkpt lat="45.713725090026855" lon="8.197474479675293">
        <ele>1112.382568359375</ele>
        <time>2006-04-23T10:14:35Z</time>
      </trkpt>
      <trkpt lat="45.713639259338379" lon="8.197281360626221">
        <ele>1114.30517578125</ele>
        <time>2006-04-23T10:14:45Z</time>
      </trkpt>
      <trkpt lat="45.713553428649902" lon="8.197023868560791">
        <ele>1114.30517578125</ele>
        <time>2006-04-23T10:14:57Z</time>
      </trkpt>
      <trkpt lat="45.713446140289307" lon="8.196830749511719">
        <ele>1113.824462890625</ele>
        <time>2006-04-23T10:15:06Z</time>
      </trkpt>
      <trkpt lat="45.713253021240234" lon="8.196616172790527">
        <ele>1114.785888671875</ele>
        <time>2006-04-23T10:15:20Z</time>
      </trkpt>
      <trkpt lat="45.7131028175354" lon="8.196380138397217">
        <ele>1110.4599609375</ele>
        <time>2006-04-23T10:15:33Z</time>
      </trkpt>
      <trkpt lat="45.713016986846924" lon="8.196272850036621">
        <ele>1110.940673828125</ele>
        <time>2006-04-23T10:15:41Z</time>
      </trkpt>
      <trkpt lat="45.712845325469971" lon="8.196315765380859">
        <ele>1114.30517578125</ele>
        <time>2006-04-23T10:15:50Z</time>
      </trkpt>
      <trkpt lat="45.712566375732422" lon="8.196423053741455">
        <ele>1120.553955078125</ele>
        <time>2006-04-23T10:16:03Z</time>
      </trkpt>
      <trkpt lat="45.712287425994873" lon="8.196508884429932">
        <ele>1124.399169921875</ele>
        <time>2006-04-23T10:16:17Z</time>
      </trkpt>
      <trkpt lat="45.712094306945801" lon="8.196423053741455">
        <ele>1127.283203125</ele>
        <time>2006-04-23T10:16:28Z</time>
      </trkpt>
      <trkpt lat="45.711944103240967" lon="8.196208477020264">
        <ele>1125.841064453125</ele>
        <time>2006-04-23T10:16:39Z</time>
      </trkpt>
      <trkpt lat="45.711729526519775" lon="8.19605827331543">
        <ele>1126.32177734375</ele>
        <time>2006-04-23T10:16:51Z</time>
      </trkpt>
      <trkpt lat="45.711557865142822" lon="8.196015357971191">
        <ele>1127.763671875</ele>
        <time>2006-04-23T10:17:03Z</time>
      </trkpt>
      <trkpt lat="45.711514949798584" lon="8.195993900299072">
        <ele>1128.72509765625</ele>
        <time>2006-04-23T10:17:05Z</time>
      </trkpt>
      <trkpt lat="45.711429119110107" lon="8.195714950561523">
        <ele>1127.283203125</ele>
        <time>2006-04-23T10:17:17Z</time>
      </trkpt>
      <trkpt lat="45.711493492126465" lon="8.195457458496094">
        <ele>1127.283203125</ele>
        <time>2006-04-23T10:17:28Z</time>
      </trkpt>
      <trkpt lat="45.711600780487061" lon="8.195135593414307">
        <ele>1125.841064453125</ele>
        <time>2006-04-23T10:17:40Z</time>
      </trkpt>
      <trkpt lat="45.711600780487061" lon="8.195028305053711">
        <ele>1125.3603515625</ele>
        <time>2006-04-23T10:17:44Z</time>
      </trkpt>
      <trkpt lat="45.711536407470703" lon="8.194706439971924">
        <ele>1128.244384765625</ele>
        <time>2006-04-23T10:17:56Z</time>
      </trkpt>
      <trkpt lat="45.711514949798584" lon="8.194577693939209">
        <ele>1128.72509765625</ele>
        <time>2006-04-23T10:18:05Z</time>
      </trkpt>
      <trkpt lat="45.711536407470703" lon="8.194534778594971">
        <ele>1128.72509765625</ele>
        <time>2006-04-23T10:18:13Z</time>
      </trkpt>
      <trkpt lat="45.711579322814941" lon="8.194513320922852">
        <ele>1131.12841796875</ele>
        <time>2006-04-23T10:18:20Z</time>
      </trkpt>
      <trkpt lat="45.711600780487061" lon="8.194491863250732">
        <ele>1132.08984375</ele>
        <time>2006-04-23T10:18:30Z</time>
      </trkpt>
      <trkpt lat="45.711643695831299" lon="8.194491863250732">
        <ele>1130.647705078125</ele>
        <time>2006-04-23T10:18:41Z</time>
      </trkpt>
      <trkpt lat="45.711750984191895" lon="8.194491863250732">
        <ele>1132.08984375</ele>
        <time>2006-04-23T10:18:52Z</time>
      </trkpt>
      <trkpt lat="45.711772441864014" lon="8.194470405578613">
        <ele>1135.454345703125</ele>
        <time>2006-04-23T10:19:08Z</time>
      </trkpt>
      <trkpt lat="45.711772441864014" lon="8.194599151611328">
        <ele>1146.02880859375</ele>
        <time>2006-04-23T10:19:43Z</time>
      </trkpt>
      <trkpt lat="45.711836814880371" lon="8.194706439971924">
        <ele>1147.951416015625</ele>
        <time>2006-04-23T10:19:55Z</time>
      </trkpt>
      <trkpt lat="45.711922645568848" lon="8.194749355316162">
        <ele>1150.35498046875</ele>
        <time>2006-04-23T10:20:06Z</time>
      </trkpt>
      <trkpt lat="45.711944103240967" lon="8.194727897644043">
        <ele>1144.586669921875</ele>
        <time>2006-04-23T10:20:32Z</time>
      </trkpt>
      <trkpt lat="45.711944103240967" lon="8.194749355316162">
        <ele>1143.62548828125</ele>
        <time>2006-04-23T10:20:56Z</time>
      </trkpt>
      <trkpt lat="45.711965560913086" lon="8.194749355316162">
        <ele>1144.586669921875</ele>
        <time>2006-04-23T10:20:58Z</time>
      </trkpt>
      <trkpt lat="45.711965560913086" lon="8.194770812988281">
        <ele>1146.989990234375</ele>
        <time>2006-04-23T10:21:06Z</time>
      </trkpt>
      <trkpt lat="45.712008476257324" lon="8.194835186004639">
        <ele>1149.3935546875</ele>
        <time>2006-04-23T10:21:15Z</time>
      </trkpt>
      <trkpt lat="45.712051391601563" lon="8.194963932037354">
        <ele>1154.6806640625</ele>
        <time>2006-04-23T10:21:28Z</time>
      </trkpt>
      <trkpt lat="45.712072849273682" lon="8.195006847381592">
        <ele>1156.603271484375</ele>
        <time>2006-04-23T10:21:37Z</time>
      </trkpt>
      <trkpt lat="45.71211576461792" lon="8.195028305053711">
        <ele>1160.92919921875</ele>
        <time>2006-04-23T10:22:01Z</time>
      </trkpt>
      <trkpt lat="45.712201595306396" lon="8.19504976272583">
        <ele>1163.81298828125</ele>
        <time>2006-04-23T10:22:13Z</time>
      </trkpt>
      <trkpt lat="45.712287425994873" lon="8.195071220397949">
        <ele>1165.736083984375</ele>
        <time>2006-04-23T10:22:26Z</time>
      </trkpt>
      <trkpt lat="45.712308883666992" lon="8.195092678070068">
        <ele>1167.658447265625</ele>
        <time>2006-04-23T10:22:54Z</time>
      </trkpt>
      <trkpt lat="45.712394714355469" lon="8.195092678070068">
        <ele>1171.023193359375</ele>
        <time>2006-04-23T10:23:06Z</time>
      </trkpt>
      <trkpt lat="45.712502002716064" lon="8.19504976272583">
        <ele>1173.426513671875</ele>
        <time>2006-04-23T10:23:19Z</time>
      </trkpt>
      <trkpt lat="45.712566375732422" lon="8.19504976272583">
        <ele>1174.3876953125</ele>
        <time>2006-04-23T10:23:26Z</time>
      </trkpt>
      <trkpt lat="45.712587833404541" lon="8.195028305053711">
        <ele>1173.426513671875</ele>
        <time>2006-04-23T10:23:32Z</time>
      </trkpt>
      <trkpt lat="45.712566375732422" lon="8.195028305053711">
        <ele>1170.061767578125</ele>
        <time>2006-04-23T10:41:50Z</time>
      </trkpt>
      <trkpt lat="45.712480545043945" lon="8.19504976272583">
        <ele>1169.1005859375</ele>
        <time>2006-04-23T10:41:54Z</time>
      </trkpt>
      <trkpt lat="45.712223052978516" lon="8.195071220397949">
        <ele>1161.890625</ele>
        <time>2006-04-23T10:42:03Z</time>
      </trkpt>
      <trkpt lat="45.712051391601563" lon="8.195028305053711">
        <ele>1157.564697265625</ele>
        <time>2006-04-23T10:42:08Z</time>
      </trkpt>
      <trkpt lat="45.712008476257324" lon="8.194899559020996">
        <ele>1156.12255859375</ele>
        <time>2006-04-23T10:42:12Z</time>
      </trkpt>
      <trkpt lat="45.711965560913086" lon="8.1947922706604">
        <ele>1155.161376953125</ele>
        <time>2006-04-23T10:42:15Z</time>
      </trkpt>
      <trkpt lat="45.711879730224609" lon="8.194749355316162">
        <ele>1153.23876953125</ele>
        <time>2006-04-23T10:42:20Z</time>
      </trkpt>
      <trkpt lat="45.711836814880371" lon="8.194706439971924">
        <ele>1151.796875</ele>
        <time>2006-04-23T10:42:25Z</time>
      </trkpt>
      <trkpt lat="45.711750984191895" lon="8.19455623626709">
        <ele>1148.43212890625</ele>
        <time>2006-04-23T10:42:33Z</time>
      </trkpt>
      <trkpt lat="45.711557865142822" lon="8.194577693939209">
        <ele>1146.02880859375</ele>
        <time>2006-04-23T10:42:39Z</time>
      </trkpt>
      <trkpt lat="45.711600780487061" lon="8.19481372833252">
        <ele>1144.106201171875</ele>
        <time>2006-04-23T10:42:45Z</time>
      </trkpt>
      <trkpt lat="45.71162223815918" lon="8.194856643676758">
        <ele>1144.106201171875</ele>
        <time>2006-04-23T10:42:46Z</time>
      </trkpt>
      <trkpt lat="45.711600780487061" lon="8.195114135742188">
        <ele>1140.260986328125</ele>
        <time>2006-04-23T10:42:55Z</time>
      </trkpt>
      <trkpt lat="45.711472034454346" lon="8.19556474685669">
        <ele>1137.376953125</ele>
        <time>2006-04-23T10:43:06Z</time>
      </trkpt>
      <trkpt lat="45.711472034454346" lon="8.195908069610596">
        <ele>1135.93505859375</ele>
        <time>2006-04-23T10:43:13Z</time>
      </trkpt>
      <trkpt lat="45.71162223815918" lon="8.196165561676025">
        <ele>1134.012451171875</ele>
        <time>2006-04-23T10:43:21Z</time>
      </trkpt>
      <trkpt lat="45.711922645568848" lon="8.196401596069336">
        <ele>1132.570556640625</ele>
        <time>2006-04-23T10:43:29Z</time>
      </trkpt>
      <trkpt lat="45.712094306945801" lon="8.196487426757813">
        <ele>1131.60888671875</ele>
        <time>2006-04-23T10:43:32Z</time>
      </trkpt>
      <trkpt lat="45.712459087371826" lon="8.196337223052979">
        <ele>1128.72509765625</ele>
        <time>2006-04-23T10:43:37Z</time>
      </trkpt>
      <trkpt lat="45.712523460388184" lon="8.196315765380859">
        <ele>1128.244384765625</ele>
        <time>2006-04-23T10:43:38Z</time>
      </trkpt>
      <trkpt lat="45.712738037109375" lon="8.196272850036621">
        <ele>1127.283203125</ele>
        <time>2006-04-23T10:43:41Z</time>
      </trkpt>
      <trkpt lat="45.71286678314209" lon="8.196358680725098">
        <ele>1126.802490234375</ele>
        <time>2006-04-23T10:43:43Z</time>
      </trkpt>
      <trkpt lat="45.713016986846924" lon="8.196573257446289">
        <ele>1126.802490234375</ele>
        <time>2006-04-23T10:43:46Z</time>
      </trkpt>
      <trkpt lat="45.713295936584473" lon="8.196895122528076">
        <ele>1124.8798828125</ele>
        <time>2006-04-23T10:43:51Z</time>
      </trkpt>
      <trkpt lat="45.713446140289307" lon="8.197238445281982">
        <ele>1123.43798828125</ele>
        <time>2006-04-23T10:43:55Z</time>
      </trkpt>
      <trkpt lat="45.713510513305664" lon="8.197388648986816">
        <ele>1122.4765625</ele>
        <time>2006-04-23T10:43:57Z</time>
      </trkpt>
      <trkpt lat="45.713660717010498" lon="8.197646141052246">
        <ele>1121.51513671875</ele>
        <time>2006-04-23T10:44:01Z</time>
      </trkpt>
      <trkpt lat="45.714068412780762" lon="8.197968006134033">
        <ele>1120.553955078125</ele>
        <time>2006-04-23T10:44:09Z</time>
      </trkpt>
      <trkpt lat="45.714325904846191" lon="8.198032379150391">
        <ele>1118.150634765625</ele>
        <time>2006-04-23T10:44:15Z</time>
      </trkpt>
      <trkpt lat="45.71436882019043" lon="8.198118209838867">
        <ele>1117.189453125</ele>
        <time>2006-04-23T10:44:17Z</time>
      </trkpt>
      <trkpt lat="45.71436882019043" lon="8.198161125183106">
        <ele>1114.30517578125</ele>
        <time>2006-04-23T10:44:24Z</time>
      </trkpt>
      <trkpt lat="45.714433193206787" lon="8.198161125183106">
        <ele>1112.382568359375</ele>
        <time>2006-04-23T10:44:37Z</time>
      </trkpt>
      <trkpt lat="45.714476108551025" lon="8.198182582855225">
        <ele>1110.940673828125</ele>
        <time>2006-04-23T10:44:43Z</time>
      </trkpt>
      <trkpt lat="45.714540481567383" lon="8.198204040527344">
        <ele>1108.537353515625</ele>
        <time>2006-04-23T10:44:51Z</time>
      </trkpt>
      <trkpt lat="45.71460485458374" lon="8.198225498199463">
        <ele>1106.61474609375</ele>
        <time>2006-04-23T10:45:03Z</time>
      </trkpt>
      <trkpt lat="45.714647769927979" lon="8.198225498199463">
        <ele>1108.537353515625</ele>
        <time>2006-04-23T10:45:15Z</time>
      </trkpt>
      <trkpt lat="45.71460485458374" lon="8.198204040527344">
        <ele>1110.940673828125</ele>
        <time>2006-04-23T10:46:13Z</time>
      </trkpt>
      <trkpt lat="45.714647769927979" lon="8.19831132888794">
        <ele>1108.056884765625</ele>
        <time>2006-04-23T10:46:17Z</time>
      </trkpt>
      <trkpt lat="45.714991092681885" lon="8.198440074920654">
        <ele>1106.134033203125</ele>
        <time>2006-04-23T10:46:23Z</time>
      </trkpt>
      <trkpt lat="45.71535587310791" lon="8.198633193969727">
        <ele>1104.211669921875</ele>
        <time>2006-04-23T10:46:30Z</time>
      </trkpt>
      <trkpt lat="45.715806484222412" lon="8.198740482330322">
        <ele>1101.808349609375</ele>
        <time>2006-04-23T10:46:38Z</time>
      </trkpt>
      <trkpt lat="45.716407299041748" lon="8.198826313018799">
        <ele>1097.00146484375</ele>
        <time>2006-04-23T10:46:47Z</time>
      </trkpt>
      <trkpt lat="45.716900825500488" lon="8.198890686035156">
        <ele>1093.15625</ele>
        <time>2006-04-23T10:46:54Z</time>
      </trkpt>
      <trkpt lat="45.717008113861084" lon="8.198890686035156">
        <ele>1091.71435546875</ele>
        <time>2006-04-23T10:46:56Z</time>
      </trkpt>
      <trkpt lat="45.717287063598633" lon="8.199126720428467">
        <ele>1088.349853515625</ele>
        <time>2006-04-23T10:47:02Z</time>
      </trkpt>
      <trkpt lat="45.717737674713135" lon="8.199577331542969">
        <ele>1082.581787109375</ele>
        <time>2006-04-23T10:47:10Z</time>
      </trkpt>
      <trkpt lat="45.717887878417969" lon="8.199684619903565">
        <ele>1081.620361328125</ele>
        <time>2006-04-23T10:47:12Z</time>
      </trkpt>
      <trkpt lat="45.718016624450684" lon="8.199770450592041">
        <ele>1080.6591796875</ele>
        <time>2006-04-23T10:47:14Z</time>
      </trkpt>
      <trkpt lat="45.718295574188232" lon="8.199963569641113">
        <ele>1075.8525390625</ele>
        <time>2006-04-23T10:47:19Z</time>
      </trkpt>
      <trkpt lat="45.718274116516113" lon="8.200027942657471">
        <ele>1072.488037109375</ele>
        <time>2006-04-23T10:47:24Z</time>
      </trkpt>
      <trkpt lat="45.718209743499756" lon="8.200006484985352">
        <ele>1070.5654296875</ele>
        <time>2006-04-23T10:47:28Z</time>
      </trkpt>
      <trkpt lat="45.718145370483398" lon="8.199942111968994">
        <ele>1070.084716796875</ele>
        <time>2006-04-23T10:47:31Z</time>
      </trkpt>
      <trkpt lat="45.718016624450684" lon="8.199942111968994">
        <ele>1069.604248046875</ele>
        <time>2006-04-23T10:47:34Z</time>
      </trkpt>
      <trkpt lat="45.717566013336182" lon="8.20004940032959">
        <ele>1069.12353515625</ele>
        <time>2006-04-23T10:47:42Z</time>
      </trkpt>
      <trkpt lat="45.717329978942871" lon="8.200113773345947">
        <ele>1069.12353515625</ele>
        <time>2006-04-23T10:47:46Z</time>
      </trkpt>
      <trkpt lat="45.717179775238037" lon="8.200414180755615">
        <ele>1067.68115234375</ele>
        <time>2006-04-23T10:47:51Z</time>
      </trkpt>
      <trkpt lat="45.717072486877441" lon="8.200714588165283">
        <ele>1067.20068359375</ele>
        <time>2006-04-23T10:47:55Z</time>
      </trkpt>
      <trkpt lat="45.717008113861084" lon="8.200886249542236">
        <ele>1067.20068359375</ele>
        <time>2006-04-23T10:47:57Z</time>
      </trkpt>
      <trkpt lat="45.716900825500488" lon="8.201272487640381">
        <ele>1066.2392578125</ele>
        <time>2006-04-23T10:48:01Z</time>
      </trkpt>
      <trkpt lat="45.716836452484131" lon="8.202152252197266">
        <ele>1060.9521484375</ele>
        <time>2006-04-23T10:48:10Z</time>
      </trkpt>
      <trkpt lat="45.716664791107178" lon="8.202366828918457">
        <ele>1057.587646484375</ele>
        <time>2006-04-23T10:48:15Z</time>
      </trkpt>
      <trkpt lat="45.716621875762939" lon="8.202366828918457">
        <ele>1056.626220703125</ele>
        <time>2006-04-23T10:48:16Z</time>
      </trkpt>
      <trkpt lat="45.716128349304199" lon="8.202280998229981">
        <ele>1055.6650390625</ele>
        <time>2006-04-23T10:48:25Z</time>
      </trkpt>
      <trkpt lat="45.715978145599365" lon="8.202238082885742">
        <ele>1054.22314453125</ele>
        <time>2006-04-23T10:48:28Z</time>
      </trkpt>
      <trkpt lat="45.715935230255127" lon="8.202452659606934">
        <ele>1048.935546875</ele>
        <time>2006-04-23T10:48:36Z</time>
      </trkpt>
      <trkpt lat="45.71587085723877" lon="8.202881813049316">
        <ele>1042.687255859375</ele>
        <time>2006-04-23T10:48:48Z</time>
      </trkpt>
      <trkpt lat="45.715806484222412" lon="8.203074932098389">
        <ele>1039.322509765625</ele>
        <time>2006-04-23T10:48:53Z</time>
      </trkpt>
      <trkpt lat="45.715935230255127" lon="8.203310966491699">
        <ele>1035.47705078125</ele>
        <time>2006-04-23T10:49:00Z</time>
      </trkpt>
      <trkpt lat="45.71584939956665" lon="8.203439712524414">
        <ele>1033.554443359375</ele>
        <time>2006-04-23T10:49:06Z</time>
      </trkpt>
      <trkpt lat="45.715827941894531" lon="8.203461170196533">
        <ele>1033.554443359375</ele>
        <time>2006-04-23T10:49:07Z</time>
      </trkpt>
      <trkpt lat="45.715527534484863" lon="8.203568458557129">
        <ele>1030.670654296875</ele>
        <time>2006-04-23T10:49:18Z</time>
      </trkpt>
      <trkpt lat="45.715377330780029" lon="8.203654289245606">
        <ele>1028.267333984375</ele>
        <time>2006-04-23T10:49:23Z</time>
      </trkpt>
      <trkpt lat="45.715377330780029" lon="8.203933238983154">
        <ele>1026.3447265625</ele>
        <time>2006-04-23T10:49:27Z</time>
      </trkpt>
      <trkpt lat="45.715377330780029" lon="8.204083442687988">
        <ele>1025.864013671875</ele>
        <time>2006-04-23T10:49:29Z</time>
      </trkpt>
      <trkpt lat="45.715420246124268" lon="8.204684257507324">
        <ele>1022.980224609375</ele>
        <time>2006-04-23T10:49:38Z</time>
      </trkpt>
      <trkpt lat="45.715270042419434" lon="8.204855918884277">
        <ele>1022.49951171875</ele>
        <time>2006-04-23T10:49:43Z</time>
      </trkpt>
      <trkpt lat="45.71509838104248" lon="8.205070495605469">
        <ele>1021.0576171875</ele>
        <time>2006-04-23T10:49:48Z</time>
      </trkpt>
      <trkpt lat="45.714926719665527" lon="8.205156326293945">
        <ele>1019.615478515625</ele>
        <time>2006-04-23T10:49:52Z</time>
      </trkpt>
      <trkpt lat="45.714454650878906" lon="8.205306529998779">
        <ele>1017.692626953125</ele>
        <time>2006-04-23T10:49:59Z</time>
      </trkpt>
      <trkpt lat="45.714304447174072" lon="8.205392360687256">
        <ele>1016.250732421875</ele>
        <time>2006-04-23T10:50:02Z</time>
      </trkpt>
      <trkpt lat="45.714089870452881" lon="8.205671310424805">
        <ele>1014.808837890625</ele>
        <time>2006-04-23T10:50:08Z</time>
      </trkpt>
      <trkpt lat="45.71385383605957" lon="8.205606937408447">
        <ele>1013.366943359375</ele>
        <time>2006-04-23T10:50:14Z</time>
      </trkpt>
      <trkpt lat="45.713660717010498" lon="8.205413818359375">
        <ele>1012.405517578125</ele>
        <time>2006-04-23T10:50:19Z</time>
      </trkpt>
      <trkpt lat="45.713489055633545" lon="8.205370903015137">
        <ele>1010.48291015625</ele>
        <time>2006-04-23T10:50:22Z</time>
      </trkpt>
      <trkpt lat="45.713274478912354" lon="8.205370903015137">
        <ele>1009.041015625</ele>
        <time>2006-04-23T10:50:25Z</time>
      </trkpt>
      <trkpt lat="45.7131028175354" lon="8.205392360687256">
        <ele>1008.079833984375</ele>
        <time>2006-04-23T10:50:28Z</time>
      </trkpt>
      <trkpt lat="45.712823867797852" lon="8.205435276031494">
        <ele>1004.715087890625</ele>
        <time>2006-04-23T10:50:33Z</time>
      </trkpt>
      <trkpt lat="45.712716579437256" lon="8.20528507232666">
        <ele>1002.792236328125</ele>
        <time>2006-04-23T10:50:37Z</time>
      </trkpt>
      <trkpt lat="45.712716579437256" lon="8.205220699310303">
        <ele>1002.3115234375</ele>
        <time>2006-04-23T10:50:38Z</time>
      </trkpt>
      <trkpt lat="45.712652206420898" lon="8.204898834228516">
        <ele>1003.27294921875</ele>
        <time>2006-04-23T10:50:43Z</time>
      </trkpt>
      <trkpt lat="45.712308883666992" lon="8.204619884490967">
        <ele>1002.3115234375</ele>
        <time>2006-04-23T10:50:50Z</time>
      </trkpt>
      <trkpt lat="45.712137222290039" lon="8.204491138458252">
        <ele>1001.8310546875</ele>
        <time>2006-04-23T10:50:53Z</time>
      </trkpt>
      <trkpt lat="45.711987018585205" lon="8.204233646392822">
        <ele>999.908447265625</ele>
        <time>2006-04-23T10:50:57Z</time>
      </trkpt>
      <trkpt lat="45.711944103240967" lon="8.20404052734375">
        <ele>998.46630859375</ele>
        <time>2006-04-23T10:50:59Z</time>
      </trkpt>
      <trkpt lat="45.711729526519775" lon="8.203482627868652">
        <ele>995.101806640625</ele>
        <time>2006-04-23T10:51:05Z</time>
      </trkpt>
      <trkpt lat="45.711665153503418" lon="8.20354700088501">
        <ele>989.333984375</ele>
        <time>2006-04-23T10:51:10Z</time>
      </trkpt>
      <trkpt lat="45.711643695831299" lon="8.203568458557129">
        <ele>988.853515625</ele>
        <time>2006-04-23T10:51:11Z</time>
      </trkpt>
      <trkpt lat="45.711643695831299" lon="8.203632831573486">
        <ele>988.372802734375</ele>
        <time>2006-04-23T10:51:18Z</time>
      </trkpt>
      <trkpt lat="45.711665153503418" lon="8.203654289245606">
        <ele>985.96923828125</ele>
        <time>2006-04-23T10:51:25Z</time>
      </trkpt>
      <trkpt lat="45.711708068847656" lon="8.203718662261963">
        <ele>985.008056640625</ele>
        <time>2006-04-23T10:51:29Z</time>
      </trkpt>
      <trkpt lat="45.711643695831299" lon="8.204212188720703">
        <ele>983.56591796875</ele>
        <time>2006-04-23T10:51:35Z</time>
      </trkpt>
      <trkpt lat="45.711557865142822" lon="8.204834461212158">
        <ele>982.1240234375</ele>
        <time>2006-04-23T10:51:42Z</time>
      </trkpt>
      <trkpt lat="45.711450576782227" lon="8.204898834228516">
        <ele>980.201416015625</ele>
        <time>2006-04-23T10:51:47Z</time>
      </trkpt>
      <trkpt lat="45.711407661437988" lon="8.204662799835205">
        <ele>978.759521484375</ele>
        <time>2006-04-23T10:51:51Z</time>
      </trkpt>
      <trkpt lat="45.711214542388916" lon="8.203911781311035">
        <ele>976.8369140625</ele>
        <time>2006-04-23T10:52:00Z</time>
      </trkpt>
      <trkpt lat="45.711150169372559" lon="8.203525543212891">
        <ele>976.356201171875</ele>
        <time>2006-04-23T10:52:04Z</time>
      </trkpt>
      <trkpt lat="45.711171627044678" lon="8.202967643737793">
        <ele>972.510986328125</ele>
        <time>2006-04-23T10:52:09Z</time>
      </trkpt>
      <trkpt lat="45.711085796356201" lon="8.202517032623291">
        <ele>967.2236328125</ele>
        <time>2006-04-23T10:52:14Z</time>
      </trkpt>
      <trkpt lat="45.711042881011963" lon="8.202474117279053">
        <ele>965.78173828125</ele>
        <time>2006-04-23T10:52:15Z</time>
      </trkpt>
      <trkpt lat="45.711042881011963" lon="8.20253849029541">
        <ele>963.37841796875</ele>
        <time>2006-04-23T10:52:20Z</time>
      </trkpt>
      <trkpt lat="45.711021423339844" lon="8.202946186065674">
        <ele>960.494384765625</ele>
        <time>2006-04-23T10:52:26Z</time>
      </trkpt>
      <trkpt lat="45.71087121963501" lon="8.203525543212891">
        <ele>958.57177734375</ele>
        <time>2006-04-23T10:52:35Z</time>
      </trkpt>
      <trkpt lat="45.710678100585938" lon="8.204190731048584">
        <ele>958.09130859375</ele>
        <time>2006-04-23T10:52:46Z</time>
      </trkpt>
      <trkpt lat="45.71061372756958" lon="8.204319477081299">
        <ele>958.09130859375</ele>
        <time>2006-04-23T10:52:48Z</time>
      </trkpt>
      <trkpt lat="45.710163116455078" lon="8.20504903793335">
        <ele>955.687744140625</ele>
        <time>2006-04-23T10:53:03Z</time>
      </trkpt>
      <trkpt lat="45.710012912750244" lon="8.205649852752686">
        <ele>952.322998046875</ele>
        <time>2006-04-23T10:53:12Z</time>
      </trkpt>
      <trkpt lat="45.709884166717529" lon="8.20603609085083">
        <ele>950.400634765625</ele>
        <time>2006-04-23T10:53:19Z</time>
      </trkpt>
      <trkpt lat="45.709776878356934" lon="8.205864429473877">
        <ele>950.400634765625</ele>
        <time>2006-04-23T10:53:22Z</time>
      </trkpt>
      <trkpt lat="45.709476470947266" lon="8.205585479736328">
        <ele>948.477783203125</ele>
        <time>2006-04-23T10:53:27Z</time>
      </trkpt>
      <trkpt lat="45.709347724914551" lon="8.205564022064209">
        <ele>947.997314453125</ele>
        <time>2006-04-23T10:53:29Z</time>
      </trkpt>
      <trkpt lat="45.709090232849121" lon="8.205478191375732">
        <ele>937.9033203125</ele>
        <time>2006-04-23T10:53:36Z</time>
      </trkpt>
      <trkpt lat="45.709133148193359" lon="8.205478191375732">
        <ele>927.8095703125</ele>
        <time>2006-04-23T10:53:44Z</time>
      </trkpt>
      <trkpt lat="45.709412097930908" lon="8.205413818359375">
        <ele>870.611083984375</ele>
        <time>2006-04-23T10:59:33Z</time>
      </trkpt>
      <trkpt lat="45.709390640258789" lon="8.205521106719971">
        <ele>869.64990234375</ele>
        <time>2006-04-23T10:59:41Z</time>
      </trkpt>
      <trkpt lat="45.708832740783691" lon="8.207259178161621">
        <ele>868.6884765625</ele>
        <time>2006-04-23T10:59:57Z</time>
      </trkpt>
      <trkpt lat="45.708811283111572" lon="8.207323551177979">
        <ele>868.207763671875</ele>
        <time>2006-04-23T10:59:59Z</time>
      </trkpt>
      <trkpt lat="45.709476470947266" lon="8.207752704620361">
        <ele>868.207763671875</ele>
        <time>2006-04-23T11:00:07Z</time>
      </trkpt>
      <trkpt lat="45.709412097930908" lon="8.208267688751221">
        <ele>868.207763671875</ele>
        <time>2006-04-23T11:00:12Z</time>
      </trkpt>
      <trkpt lat="45.709154605865479" lon="8.208632469177246">
        <ele>868.207763671875</ele>
        <time>2006-04-23T11:00:15Z</time>
      </trkpt>
      <trkpt lat="45.709197521209717" lon="8.208932876586914">
        <ele>867.24658203125</ele>
        <time>2006-04-23T11:00:20Z</time>
      </trkpt>
      <trkpt lat="45.709004402160645" lon="8.208911418914795">
        <ele>867.24658203125</ele>
        <time>2006-04-23T11:00:23Z</time>
      </trkpt>
      <trkpt lat="45.708832740783691" lon="8.209512233734131">
        <ele>864.362548828125</ele>
        <time>2006-04-23T11:00:31Z</time>
      </trkpt>
      <trkpt lat="45.708746910095215" lon="8.209598064422607">
        <ele>864.362548828125</ele>
        <time>2006-04-23T11:00:33Z</time>
      </trkpt>
      <trkpt lat="45.7086181640625" lon="8.209962844848633">
        <ele>857.63330078125</ele>
        <time>2006-04-23T11:00:40Z</time>
      </trkpt>
      <trkpt lat="45.7086181640625" lon="8.209984302520752">
        <ele>797.551025390625</ele>
        <time>2006-04-23T11:00:43Z</time>
      </trkpt>
      <trkpt lat="45.708746910095215" lon="8.209898471832275">
        <ele>800.91552734375</ele>
        <time>2006-04-23T11:01:02Z</time>
      </trkpt>
      <trkpt lat="45.708854198455811" lon="8.209984302520752">
        <ele>800.43505859375</ele>
        <time>2006-04-23T11:01:08Z</time>
      </trkpt>
      <trkpt lat="45.709218978881836" lon="8.210391998291016">
        <ele>797.551025390625</ele>
        <time>2006-04-23T11:01:22Z</time>
      </trkpt>
      <trkpt lat="45.709412097930908" lon="8.210670948028565">
        <ele>796.109130859375</ele>
        <time>2006-04-23T11:01:29Z</time>
      </trkpt>
      <trkpt lat="45.709433555603027" lon="8.210799694061279">
        <ele>795.628173828125</ele>
        <time>2006-04-23T11:01:31Z</time>
      </trkpt>
      <trkpt lat="45.709390640258789" lon="8.210928440093994">
        <ele>795.628173828125</ele>
        <time>2006-04-23T11:01:33Z</time>
      </trkpt>
      <trkpt lat="45.709347724914551" lon="8.211078643798828">
        <ele>795.1474609375</ele>
        <time>2006-04-23T11:01:35Z</time>
      </trkpt>
      <trkpt lat="45.709390640258789" lon="8.211443424224854">
        <ele>794.666748046875</ele>
        <time>2006-04-23T11:01:40Z</time>
      </trkpt>
      <trkpt lat="45.709390640258789" lon="8.211615085601807">
        <ele>793.70556640625</ele>
        <time>2006-04-23T11:01:42Z</time>
      </trkpt>
      <trkpt lat="45.709347724914551" lon="8.2122802734375">
        <ele>790.821533203125</ele>
        <time>2006-04-23T11:01:48Z</time>
      </trkpt>
      <trkpt lat="45.709347724914551" lon="8.212387561798096">
        <ele>790.821533203125</ele>
        <time>2006-04-23T11:01:49Z</time>
      </trkpt>
      <trkpt lat="45.709197521209717" lon="8.213245868682861">
        <ele>790.821533203125</ele>
        <time>2006-04-23T11:01:58Z</time>
      </trkpt>
      <trkpt lat="45.709176063537598" lon="8.213438987731934">
        <ele>790.821533203125</ele>
        <time>2006-04-23T11:02:00Z</time>
      </trkpt>
      <trkpt lat="45.709154605865479" lon="8.213481903076172">
        <ele>788.899169921875</ele>
        <time>2006-04-23T11:02:05Z</time>
      </trkpt>
      <trkpt lat="45.70911169052124" lon="8.213567733764648">
        <ele>785.534423828125</ele>
        <time>2006-04-23T11:02:11Z</time>
      </trkpt>
      <trkpt lat="45.708982944488525" lon="8.213717937469482">
        <ele>777.84375</ele>
        <time>2006-04-23T11:02:22Z</time>
      </trkpt>
      <trkpt lat="45.708854198455811" lon="8.213996887207031">
        <ele>772.556640625</ele>
        <time>2006-04-23T11:02:30Z</time>
      </trkpt>
      <trkpt lat="45.7086181640625" lon="8.214640617370606">
        <ele>771.59521484375</ele>
        <time>2006-04-23T11:02:41Z</time>
      </trkpt>
      <trkpt lat="45.708510875701904" lon="8.214941024780273">
        <ele>771.59521484375</ele>
        <time>2006-04-23T11:02:45Z</time>
      </trkpt>
      <trkpt lat="45.708425045013428" lon="8.215434551239014">
        <ele>768.71142578125</ele>
        <time>2006-04-23T11:02:51Z</time>
      </trkpt>
      <trkpt lat="45.708253383636475" lon="8.215970993041992">
        <ele>762.943359375</ele>
        <time>2006-04-23T11:02:57Z</time>
      </trkpt>
      <trkpt lat="45.708167552947998" lon="8.216121196746826">
        <ele>759.578857421875</ele>
        <time>2006-04-23T11:02:59Z</time>
      </trkpt>
      <trkpt lat="45.708038806915283" lon="8.21627140045166">
        <ele>754.291748046875</ele>
        <time>2006-04-23T11:03:04Z</time>
      </trkpt>
      <trkpt lat="45.708060264587402" lon="8.216314315795898">
        <ele>751.40771484375</ele>
        <time>2006-04-23T11:03:12Z</time>
      </trkpt>
      <trkpt lat="45.708017349243164" lon="8.216614723205566">
        <ele>740.8330078125</ele>
        <time>2006-04-23T11:03:46Z</time>
      </trkpt>
      <trkpt lat="45.707802772521973" lon="8.216872215270996">
        <ele>736.98779296875</ele>
        <time>2006-04-23T11:03:57Z</time>
      </trkpt>
      <trkpt lat="45.707781314849854" lon="8.217065334320068">
        <ele>733.142578125</ele>
        <time>2006-04-23T11:04:06Z</time>
      </trkpt>
      <trkpt lat="45.707781314849854" lon="8.217344284057617">
        <ele>728.3359375</ele>
        <time>2006-04-23T11:04:18Z</time>
      </trkpt>
      <trkpt lat="45.707759857177734" lon="8.217430114746094">
        <ele>729.77783203125</ele>
        <time>2006-04-23T11:04:32Z</time>
      </trkpt>
      <trkpt lat="45.707759857177734" lon="8.217558860778809">
        <ele>724.010009765625</ele>
        <time>2006-04-23T11:04:47Z</time>
      </trkpt>
      <trkpt lat="45.7076096534729" lon="8.217751979827881">
        <ele>721.126220703125</ele>
        <time>2006-04-23T11:04:57Z</time>
      </trkpt>
      <trkpt lat="45.707395076751709" lon="8.218095302581787">
        <ele>720.6455078125</ele>
        <time>2006-04-23T11:05:08Z</time>
      </trkpt>
      <trkpt lat="45.707287788391113" lon="8.218288421630859">
        <ele>719.20361328125</ele>
        <time>2006-04-23T11:05:12Z</time>
      </trkpt>
      <trkpt lat="45.707159042358398" lon="8.218438625335693">
        <ele>717.281005859375</ele>
        <time>2006-04-23T11:05:17Z</time>
      </trkpt>
      <trkpt lat="45.707051753997803" lon="8.218502998352051">
        <ele>716.319580078125</ele>
        <time>2006-04-23T11:05:20Z</time>
      </trkpt>
      <trkpt lat="45.706944465637207" lon="8.218696117401123">
        <ele>713.435546875</ele>
        <time>2006-04-23T11:05:26Z</time>
      </trkpt>
      <trkpt lat="45.706901550292969" lon="8.218803405761719">
        <ele>712.954833984375</ele>
        <time>2006-04-23T11:05:33Z</time>
      </trkpt>
      <trkpt lat="45.70685863494873" lon="8.218889236450195">
        <ele>711.0322265625</ele>
        <time>2006-04-23T11:05:47Z</time>
      </trkpt>
      <trkpt lat="45.706815719604492" lon="8.218996524810791">
        <ele>708.1484375</ele>
        <time>2006-04-23T11:05:56Z</time>
      </trkpt>
      <trkpt lat="45.706794261932373" lon="8.219060897827148">
        <ele>708.1484375</ele>
        <time>2006-04-23T11:06:00Z</time>
      </trkpt>
      <trkpt lat="45.706794261932373" lon="8.219146728515625">
        <ele>707.18701171875</ele>
        <time>2006-04-23T11:06:04Z</time>
      </trkpt>
      <trkpt lat="45.706729888916016" lon="8.219254016876221">
        <ele>704.78369140625</ele>
        <time>2006-04-23T11:06:09Z</time>
      </trkpt>
      <trkpt lat="45.706708431243896" lon="8.219447135925293">
        <ele>703.341796875</ele>
        <time>2006-04-23T11:06:17Z</time>
      </trkpt>
      <trkpt lat="45.706708431243896" lon="8.21951150894165">
        <ele>703.822509765625</ele>
        <time>2006-04-23T11:06:25Z</time>
      </trkpt>
      <trkpt lat="45.706708431243896" lon="8.219597339630127">
        <ele>703.341796875</ele>
        <time>2006-04-23T11:06:32Z</time>
      </trkpt>
      <trkpt lat="45.706729888916016" lon="8.219704627990723">
        <ele>702.861083984375</ele>
        <time>2006-04-23T11:06:39Z</time>
      </trkpt>
      <trkpt lat="45.706729888916016" lon="8.219811916351318">
        <ele>699.97705078125</ele>
        <time>2006-04-23T11:06:50Z</time>
      </trkpt>
      <trkpt lat="45.706708431243896" lon="8.219962120056152">
        <ele>698.054443359375</ele>
        <time>2006-04-23T11:07:02Z</time>
      </trkpt>
      <trkpt lat="45.706686973571777" lon="8.220005035400391">
        <ele>697.57373046875</ele>
        <time>2006-04-23T11:07:05Z</time>
      </trkpt>
      <trkpt lat="45.706472396850586" lon="8.22028398513794">
        <ele>696.1318359375</ele>
        <time>2006-04-23T11:07:22Z</time>
      </trkpt>
      <trkpt lat="45.706429481506348" lon="8.220348358154297">
        <ele>696.1318359375</ele>
        <time>2006-04-23T11:07:28Z</time>
      </trkpt>
      <trkpt lat="45.706343650817871" lon="8.220391273498535">
        <ele>696.1318359375</ele>
        <time>2006-04-23T11:07:45Z</time>
      </trkpt>
      <trkpt lat="45.706300735473633" lon="8.220391273498535">
        <ele>694.209228515625</ele>
        <time>2006-04-23T11:07:55Z</time>
      </trkpt>
      <trkpt lat="45.706279277801514" lon="8.220391273498535">
        <ele>692.767333984375</ele>
        <time>2006-04-23T11:08:08Z</time>
      </trkpt>
      <trkpt lat="45.706257820129395" lon="8.220369815826416">
        <ele>692.767333984375</ele>
        <time>2006-04-23T11:08:10Z</time>
      </trkpt>
      <trkpt lat="45.706107616424561" lon="8.220369815826416">
        <ele>690.844482421875</ele>
        <time>2006-04-23T11:08:20Z</time>
      </trkpt>
      <trkpt lat="45.705957412719727" lon="8.220391273498535">
        <ele>687.960693359375</ele>
        <time>2006-04-23T11:08:29Z</time>
      </trkpt>
      <trkpt lat="45.705893039703369" lon="8.220434188842773">
        <ele>685.557373046875</ele>
        <time>2006-04-23T11:08:37Z</time>
      </trkpt>
      <trkpt lat="45.705828666687012" lon="8.220455646514893">
        <ele>680.750732421875</ele>
        <time>2006-04-23T11:08:48Z</time>
      </trkpt>
      <trkpt lat="45.705742835998535" lon="8.220434188842773">
        <ele>678.347412109375</ele>
        <time>2006-04-23T11:08:58Z</time>
      </trkpt>
      <trkpt lat="45.705699920654297" lon="8.220412731170654">
        <ele>678.347412109375</ele>
        <time>2006-04-23T11:09:06Z</time>
      </trkpt>
      <trkpt lat="45.705485343933105" lon="8.220455646514893">
        <ele>675.944091796875</ele>
        <time>2006-04-23T11:09:17Z</time>
      </trkpt>
      <trkpt lat="45.705227851867676" lon="8.220713138580322">
        <ele>673.060302734375</ele>
        <time>2006-04-23T11:09:33Z</time>
      </trkpt>
      <trkpt lat="45.705184936523438" lon="8.220756053924561">
        <ele>672.57958984375</ele>
        <time>2006-04-23T11:09:39Z</time>
      </trkpt>
      <trkpt lat="45.704991817474365" lon="8.221056461334229">
        <ele>659.12109375</ele>
        <time>2006-04-23T11:11:03Z</time>
      </trkpt>
      <trkpt lat="45.705034732818604" lon="8.221099376678467">
        <ele>658.159912109375</ele>
        <time>2006-04-23T11:11:10Z</time>
      </trkpt>
      <trkpt lat="45.705034732818604" lon="8.221120834350586">
        <ele>658.159912109375</ele>
        <time>2006-04-23T11:11:11Z</time>
      </trkpt>
      <trkpt lat="45.705034732818604" lon="8.221206665039063">
        <ele>655.27587890625</ele>
        <time>2006-04-23T11:11:18Z</time>
      </trkpt>
      <trkpt lat="45.70512056350708" lon="8.221356868743897">
        <ele>652.87255859375</ele>
        <time>2006-04-23T11:11:31Z</time>
      </trkpt>
      <trkpt lat="45.705142021179199" lon="8.221442699432373">
        <ele>650.46923828125</ele>
        <time>2006-04-23T11:11:39Z</time>
      </trkpt>
      <trkpt lat="45.705163478851318" lon="8.221442699432373">
        <ele>650.46923828125</ele>
        <time>2006-04-23T11:11:41Z</time>
      </trkpt>
      <trkpt lat="45.705399513244629" lon="8.221442699432373">
        <ele>648.06591796875</ele>
        <time>2006-04-23T11:11:56Z</time>
      </trkpt>
      <trkpt lat="45.705592632293701" lon="8.221592903137207">
        <ele>647.585205078125</ele>
        <time>2006-04-23T11:12:07Z</time>
      </trkpt>
      <trkpt lat="45.705721378326416" lon="8.221893310546875">
        <ele>646.6240234375</ele>
        <time>2006-04-23T11:12:17Z</time>
      </trkpt>
      <trkpt lat="45.705764293670654" lon="8.222451210021973">
        <ele>643.739990234375</ele>
        <time>2006-04-23T11:12:30Z</time>
      </trkpt>
      <trkpt lat="45.70587158203125" lon="8.22277307510376">
        <ele>642.77880859375</ele>
        <time>2006-04-23T11:12:40Z</time>
      </trkpt>
      <trkpt lat="45.706021785736084" lon="8.222923278808594">
        <ele>642.298095703125</ele>
        <time>2006-04-23T11:12:46Z</time>
      </trkpt>
      <trkpt lat="45.706021785736084" lon="8.22303056716919">
        <ele>641.8173828125</ele>
        <time>2006-04-23T11:13:00Z</time>
      </trkpt>
      <trkpt lat="45.706021785736084" lon="8.223137855529785">
        <ele>641.336669921875</ele>
        <time>2006-04-23T11:13:19Z</time>
      </trkpt>
      <trkpt lat="45.706043243408203" lon="8.223202228546143">
        <ele>638.452880859375</ele>
        <time>2006-04-23T11:13:34Z</time>
      </trkpt>
      <trkpt lat="45.706086158752441" lon="8.223416805267334">
        <ele>637.0107421875</ele>
        <time>2006-04-23T11:13:42Z</time>
      </trkpt>
      <trkpt lat="45.706086158752441" lon="8.223609924316406">
        <ele>636.5302734375</ele>
        <time>2006-04-23T11:13:47Z</time>
      </trkpt>
      <trkpt lat="45.706193447113037" lon="8.223717212677002">
        <ele>636.5302734375</ele>
        <time>2006-04-23T11:13:55Z</time>
      </trkpt>
      <trkpt lat="45.706214904785156" lon="8.22376012802124">
        <ele>636.049560546875</ele>
        <time>2006-04-23T11:14:08Z</time>
      </trkpt>
      <trkpt lat="45.706343650817871" lon="8.223738670349121">
        <ele>635.568603515625</ele>
        <time>2006-04-23T11:14:14Z</time>
      </trkpt>
      <trkpt lat="45.706515312194824" lon="8.223845958709717">
        <ele>635.568603515625</ele>
        <time>2006-04-23T11:14:20Z</time>
      </trkpt>
      <trkpt lat="45.706579685211182" lon="8.223996162414551">
        <ele>635.568603515625</ele>
        <time>2006-04-23T11:14:23Z</time>
      </trkpt>
      <trkpt lat="45.706686973571777" lon="8.224639892578125">
        <ele>636.049560546875</ele>
        <time>2006-04-23T11:14:31Z</time>
      </trkpt>
      <trkpt lat="45.706665515899658" lon="8.224811553955078">
        <ele>634.607421875</ele>
        <time>2006-04-23T11:14:34Z</time>
      </trkpt>
      <trkpt lat="45.706601142883301" lon="8.22500467300415">
        <ele>632.684814453125</ele>
        <time>2006-04-23T11:14:37Z</time>
      </trkpt>
      <trkpt lat="45.706601142883301" lon="8.225283622741699">
        <ele>631.242919921875</ele>
        <time>2006-04-23T11:14:40Z</time>
      </trkpt>
      <trkpt lat="45.706472396850586" lon="8.22551965713501">
        <ele>630.281494140625</ele>
        <time>2006-04-23T11:14:45Z</time>
      </trkpt>
      <trkpt lat="45.706214904785156" lon="8.225798606872559">
        <ele>627.878173828125</ele>
        <time>2006-04-23T11:14:49Z</time>
      </trkpt>
      <trkpt lat="45.705957412719727" lon="8.226034641265869">
        <ele>625.95556640625</ele>
        <time>2006-04-23T11:14:53Z</time>
      </trkpt>
      <trkpt lat="45.70587158203125" lon="8.226056098937988">
        <ele>623.07177734375</ele>
        <time>2006-04-23T11:14:55Z</time>
      </trkpt>
      <trkpt lat="45.705549716949463" lon="8.226184844970703">
        <ele>617.7841796875</ele>
        <time>2006-04-23T11:15:00Z</time>
      </trkpt>
      <trkpt lat="45.705463886260986" lon="8.226206302642822">
        <ele>617.3037109375</ele>
        <time>2006-04-23T11:15:01Z</time>
      </trkpt>
      <trkpt lat="45.705313682556152" lon="8.226442337036133">
        <ele>616.34228515625</ele>
        <time>2006-04-23T11:15:05Z</time>
      </trkpt>
      <trkpt lat="45.705270767211914" lon="8.22650671005249">
        <ele>615.381103515625</ele>
        <time>2006-04-23T11:15:07Z</time>
      </trkpt>
      <trkpt lat="45.705034732818604" lon="8.226807117462158">
        <ele>613.93896484375</ele>
        <time>2006-04-23T11:15:17Z</time>
      </trkpt>
      <trkpt lat="45.704970359802246" lon="8.226957321166992">
        <ele>612.0166015625</ele>
        <time>2006-04-23T11:15:28Z</time>
      </trkpt>
      <trkpt lat="45.704927444458008" lon="8.227086067199707">
        <ele>611.535888671875</ele>
        <time>2006-04-23T11:15:39Z</time>
      </trkpt>
      <trkpt lat="45.70488452911377" lon="8.227171897888184">
        <ele>610.09375</ele>
        <time>2006-04-23T11:15:47Z</time>
      </trkpt>
      <trkpt lat="45.704777240753174" lon="8.227236270904541">
        <ele>609.61328125</ele>
        <time>2006-04-23T11:15:56Z</time>
      </trkpt>
      <trkpt lat="45.704669952392578" lon="8.227279186248779">
        <ele>607.690673828125</ele>
        <time>2006-04-23T11:16:07Z</time>
      </trkpt>
      <trkpt lat="45.704584121704102" lon="8.227279186248779">
        <ele>607.2099609375</ele>
        <time>2006-04-23T11:16:15Z</time>
      </trkpt>
      <trkpt lat="45.704498291015625" lon="8.227343559265137">
        <ele>606.729248046875</ele>
        <time>2006-04-23T11:16:24Z</time>
      </trkpt>
      <trkpt lat="45.70436954498291" lon="8.227365016937256">
        <ele>606.24853515625</ele>
        <time>2006-04-23T11:16:36Z</time>
      </trkpt>
      <trkpt lat="45.704326629638672" lon="8.227365016937256">
        <ele>606.729248046875</ele>
        <time>2006-04-23T11:16:39Z</time>
      </trkpt>
      <trkpt lat="45.704197883605957" lon="8.227429389953613">
        <ele>605.76806640625</ele>
        <time>2006-04-23T11:16:51Z</time>
      </trkpt>
      <trkpt lat="45.704090595245361" lon="8.227450847625732">
        <ele>606.24853515625</ele>
        <time>2006-04-23T11:16:59Z</time>
      </trkpt>
      <trkpt lat="45.704004764556885" lon="8.22751522064209">
        <ele>607.2099609375</ele>
        <time>2006-04-23T11:17:09Z</time>
      </trkpt>
      <trkpt lat="45.703961849212646" lon="8.227643966674805">
        <ele>610.574462890625</ele>
        <time>2006-04-23T11:17:18Z</time>
      </trkpt>
      <trkpt lat="45.703897476196289" lon="8.2277512550354">
        <ele>611.05517578125</ele>
        <time>2006-04-23T11:17:29Z</time>
      </trkpt>
      <trkpt lat="45.703811645507813" lon="8.227880001068115">
        <ele>614.900390625</ele>
        <time>2006-04-23T11:17:42Z</time>
      </trkpt>
      <trkpt lat="45.703768730163574" lon="8.227965831756592">
        <ele>616.34228515625</ele>
        <time>2006-04-23T11:17:51Z</time>
      </trkpt>
      <trkpt lat="45.703747272491455" lon="8.22800874710083">
        <ele>616.34228515625</ele>
        <time>2006-04-23T11:17:54Z</time>
      </trkpt>
      <trkpt lat="45.703682899475098" lon="8.228073120117188">
        <ele>616.822998046875</ele>
        <time>2006-04-23T11:18:02Z</time>
      </trkpt>
      <trkpt lat="45.703554153442383" lon="8.228137493133545">
        <ele>615.86181640625</ele>
        <time>2006-04-23T11:18:10Z</time>
      </trkpt>
      <trkpt lat="45.703489780426025" lon="8.228137493133545">
        <ele>614.900390625</ele>
        <time>2006-04-23T11:18:18Z</time>
      </trkpt>
      <trkpt lat="45.703446865081787" lon="8.228116035461426">
        <ele>613.45849609375</ele>
        <time>2006-04-23T11:18:35Z</time>
      </trkpt>
      <trkpt lat="45.703318119049072" lon="8.227944374084473">
        <ele>615.86181640625</ele>
        <time>2006-04-23T11:18:42Z</time>
      </trkpt>
      <trkpt lat="45.703189373016357" lon="8.227794170379639">
        <ele>615.86181640625</ele>
        <time>2006-04-23T11:18:46Z</time>
      </trkpt>
      <trkpt lat="45.702974796295166" lon="8.227837085723877">
        <ele>614.900390625</ele>
        <time>2006-04-23T11:18:50Z</time>
      </trkpt>
      <trkpt lat="45.702781677246094" lon="8.227815628051758">
        <ele>614.900390625</ele>
        <time>2006-04-23T11:18:53Z</time>
      </trkpt>
      <trkpt lat="45.702652931213379" lon="8.22777271270752">
        <ele>614.900390625</ele>
        <time>2006-04-23T11:18:55Z</time>
      </trkpt>
      <trkpt lat="45.70237398147583" lon="8.2277512550354">
        <ele>613.45849609375</ele>
        <time>2006-04-23T11:19:00Z</time>
      </trkpt>
      <trkpt lat="45.702309608459473" lon="8.227794170379639">
        <ele>611.05517578125</ele>
        <time>2006-04-23T11:19:05Z</time>
      </trkpt>
      <trkpt lat="45.702545642852783" lon="8.227922916412354">
        <ele>607.690673828125</ele>
        <time>2006-04-23T11:19:15Z</time>
      </trkpt>
      <trkpt lat="45.702781677246094" lon="8.228094577789307">
        <ele>605.287353515625</ele>
        <time>2006-04-23T11:19:26Z</time>
      </trkpt>
      <trkpt lat="45.702846050262451" lon="8.228244781494141">
        <ele>604.806640625</ele>
        <time>2006-04-23T11:19:31Z</time>
      </trkpt>
      <trkpt lat="45.702824592590332" lon="8.228416442871094">
        <ele>604.326171875</ele>
        <time>2006-04-23T11:19:34Z</time>
      </trkpt>
      <trkpt lat="45.702803134918213" lon="8.228588104248047">
        <ele>604.326171875</ele>
        <time>2006-04-23T11:19:37Z</time>
      </trkpt>
      <trkpt lat="45.702910423278809" lon="8.228909969329834">
        <ele>602.403076171875</ele>
        <time>2006-04-23T11:19:43Z</time>
      </trkpt>
      <trkpt lat="45.703082084655762" lon="8.229081630706787">
        <ele>600</ele>
        <time>2006-04-23T11:19:49Z</time>
      </trkpt>
      <trkpt lat="45.703103542327881" lon="8.229210376739502">
        <ele>598.557861328125</ele>
        <time>2006-04-23T11:19:52Z</time>
      </trkpt>
      <trkpt lat="45.703232288360596" lon="8.229382038116455">
        <ele>598.557861328125</ele>
        <time>2006-04-23T11:19:56Z</time>
      </trkpt>
      <trkpt lat="45.703253746032715" lon="8.229575157165527">
        <ele>598.557861328125</ele>
        <time>2006-04-23T11:19:59Z</time>
      </trkpt>
      <trkpt lat="45.703082084655762" lon="8.229832649230957">
        <ele>597.5966796875</ele>
        <time>2006-04-23T11:20:03Z</time>
      </trkpt>
      <trkpt lat="45.70286750793457" lon="8.229918479919434">
        <ele>592.790283203125</ele>
        <time>2006-04-23T11:20:08Z</time>
      </trkpt>
      <trkpt lat="45.702824592590332" lon="8.229918479919434">
        <ele>592.3095703125</ele>
        <time>2006-04-23T11:20:09Z</time>
      </trkpt>
      <trkpt lat="45.702567100524902" lon="8.230025768280029">
        <ele>588.46435546875</ele>
        <time>2006-04-23T11:20:15Z</time>
      </trkpt>
      <trkpt lat="45.702309608459473" lon="8.230218887329102">
        <ele>587.9833984375</ele>
        <time>2006-04-23T11:20:21Z</time>
      </trkpt>
      <trkpt lat="45.702180862426758" lon="8.230369091033936">
        <ele>586.54150390625</ele>
        <time>2006-04-23T11:20:25Z</time>
      </trkpt>
      <trkpt lat="45.702009201049805" lon="8.230583667755127">
        <ele>584.13818359375</ele>
        <time>2006-04-23T11:20:30Z</time>
      </trkpt>
      <trkpt lat="45.702030658721924" lon="8.230605125427246">
        <ele>579.33154296875</ele>
        <time>2006-04-23T11:20:36Z</time>
      </trkpt>
      <trkpt lat="45.701987743377686" lon="8.230841159820557">
        <ele>559.624755859375</ele>
        <time>2006-04-23T11:21:04Z</time>
      </trkpt>
      <trkpt lat="45.701858997344971" lon="8.230969905853272">
        <ele>558.663330078125</ele>
        <time>2006-04-23T11:21:12Z</time>
      </trkpt>
      <trkpt lat="45.701794624328613" lon="8.231141567230225">
        <ele>555.298583984375</ele>
        <time>2006-04-23T11:21:18Z</time>
      </trkpt>
      <trkpt lat="45.701773166656494" lon="8.231184482574463">
        <ele>552.895263671875</ele>
        <time>2006-04-23T11:21:21Z</time>
      </trkpt>
      <trkpt lat="45.701751708984375" lon="8.231377601623535">
        <ele>550.4921875</ele>
        <time>2006-04-23T11:21:27Z</time>
      </trkpt>
      <trkpt lat="45.701730251312256" lon="8.231420516967773">
        <ele>547.608154296875</ele>
        <time>2006-04-23T11:21:30Z</time>
      </trkpt>
      <trkpt lat="45.701687335968018" lon="8.231441974639893">
        <ele>547.12744140625</ele>
        <time>2006-04-23T11:21:32Z</time>
      </trkpt>
      <trkpt lat="45.701408386230469" lon="8.231699466705322">
        <ele>539.9176025390625</ele>
        <time>2006-04-23T11:21:43Z</time>
      </trkpt>
      <trkpt lat="45.70136547088623" lon="8.231742382049561">
        <ele>535.1109619140625</ele>
        <time>2006-04-23T11:21:48Z</time>
      </trkpt>
      <trkpt lat="45.701322555541992" lon="8.231828212738037">
        <ele>529.3431396484375</ele>
        <time>2006-04-23T11:21:56Z</time>
      </trkpt>
      <trkpt lat="45.701279640197754" lon="8.231871128082275">
        <ele>526.4591064453125</ele>
        <time>2006-04-23T11:22:03Z</time>
      </trkpt>
      <trkpt lat="45.701215267181396" lon="8.232021331787109">
        <ele>522.1331787109375</ele>
        <time>2006-04-23T11:22:52Z</time>
      </trkpt>
      <trkpt lat="45.70112943649292" lon="8.232171535491943">
        <ele>518.287841796875</ele>
        <time>2006-04-23T11:23:03Z</time>
      </trkpt>
      <trkpt lat="45.701065063476563" lon="8.232386112213135">
        <ele>514.92333984375</ele>
        <time>2006-04-23T11:23:12Z</time>
      </trkpt>
      <trkpt lat="45.700936317443848" lon="8.232557773590088">
        <ele>513.4814453125</ele>
        <time>2006-04-23T11:23:21Z</time>
      </trkpt>
      <trkpt lat="45.700743198394775" lon="8.232686519622803">
        <ele>511.0780029296875</ele>
        <time>2006-04-23T11:23:28Z</time>
      </trkpt>
      <trkpt lat="45.700464248657227" lon="8.232901096343994">
        <ele>507.7135009765625</ele>
        <time>2006-04-23T11:23:36Z</time>
      </trkpt>
      <trkpt lat="45.70012092590332" lon="8.233222961425781">
        <ele>503.8681640625</ele>
        <time>2006-04-23T11:23:47Z</time>
      </trkpt>
      <trkpt lat="45.699906349182129" lon="8.233394622802734">
        <ele>500.02294921875</ele>
        <time>2006-04-23T11:23:55Z</time>
      </trkpt>
      <trkpt lat="45.699863433837891" lon="8.233437538146973">
        <ele>498.100341796875</ele>
        <time>2006-04-23T11:23:59Z</time>
      </trkpt>
      <trkpt lat="45.699841976165771" lon="8.233544826507568">
        <ele>494.2550048828125</ele>
        <time>2006-04-23T11:24:09Z</time>
      </trkpt>
      <trkpt lat="45.699799060821533" lon="8.233609199523926">
        <ele>491.8516845703125</ele>
        <time>2006-04-23T11:24:19Z</time>
      </trkpt>
      <trkpt lat="45.699799060821533" lon="8.233609199523926">
        <ele>491.8516845703125</ele>
        <time>2006-04-23T11:24:20Z</time>
      </trkpt>
      <trkpt lat="45.699713230133057" lon="8.233609199523926">
        <ele>489.4483642578125</ele>
        <time>2006-04-23T11:24:27Z</time>
      </trkpt>
      <trkpt lat="45.699691772460938" lon="8.233609199523926">
        <ele>488.4871826171875</ele>
        <time>2006-04-23T11:24:31Z</time>
      </trkpt>
      <trkpt lat="45.69962739944458" lon="8.233652114868164">
        <ele>485.60302734375</ele>
        <time>2006-04-23T11:24:39Z</time>
      </trkpt>
      <trkpt lat="45.699584484100342" lon="8.233695030212402">
        <ele>480.31591796875</ele>
        <time>2006-04-23T11:24:52Z</time>
      </trkpt>
      <trkpt lat="45.699541568756104" lon="8.233780860900879">
        <ele>478.8739013671875</ele>
        <time>2006-04-23T11:25:00Z</time>
      </trkpt>
      <trkpt lat="45.699477195739746" lon="8.233888149261475">
        <ele>477.431884765625</ele>
        <time>2006-04-23T11:25:09Z</time>
      </trkpt>
      <trkpt lat="45.699412822723389" lon="8.233888149261475">
        <ele>475.9898681640625</ele>
        <time>2006-04-23T11:25:14Z</time>
      </trkpt>
      <trkpt lat="45.699348449707031" lon="8.233952522277832">
        <ele>474.0672607421875</ele>
        <time>2006-04-23T11:25:22Z</time>
      </trkpt>
      <trkpt lat="45.699262619018555" lon="8.23401689529419">
        <ele>475.0286865234375</ele>
        <time>2006-04-23T11:25:32Z</time>
      </trkpt>
      <trkpt lat="45.699219703674316" lon="8.23401689529419">
        <ele>470.70263671875</ele>
        <time>2006-04-23T11:26:27Z</time>
      </trkpt>
      <trkpt lat="45.699198246002197" lon="8.234038352966309">
        <ele>470.221923828125</ele>
        <time>2006-04-23T11:26:29Z</time>
      </trkpt>
      <trkpt lat="45.699090957641602" lon="8.23401689529419">
        <ele>468.780029296875</ele>
        <time>2006-04-23T11:26:33Z</time>
      </trkpt>
      <trkpt lat="45.69887638092041" lon="8.234038352966309">
        <ele>464.934814453125</ele>
        <time>2006-04-23T11:26:41Z</time>
      </trkpt>
      <trkpt lat="45.698812007904053" lon="8.234038352966309">
        <ele>460.6087646484375</ele>
        <time>2006-04-23T11:26:47Z</time>
      </trkpt>
      <trkpt lat="45.698769092559814" lon="8.234145641326904">
        <ele>459.1668701171875</ele>
        <time>2006-04-23T11:27:05Z</time>
      </trkpt>
      <trkpt lat="45.698726177215576" lon="8.234231472015381">
        <ele>458.6861572265625</ele>
        <time>2006-04-23T11:27:09Z</time>
      </trkpt>
      <trkpt lat="45.698683261871338" lon="8.234381675720215">
        <ele>455.80224609375</ele>
        <time>2006-04-23T11:27:18Z</time>
      </trkpt>
      <trkpt lat="45.69861888885498" lon="8.234446048736572">
        <ele>454.8408203125</ele>
        <time>2006-04-23T11:27:27Z</time>
      </trkpt>
      <trkpt lat="45.698575973510742" lon="8.234488964080811">
        <ele>454.3602294921875</ele>
        <time>2006-04-23T11:27:51Z</time>
      </trkpt>
      <trkpt lat="45.698425769805908" lon="8.234617710113525">
        <ele>451.476318359375</ele>
        <time>2006-04-23T11:27:59Z</time>
      </trkpt>
      <trkpt lat="45.698447227478027" lon="8.23474645614624">
        <ele>450.99560546875</ele>
        <time>2006-04-23T11:28:03Z</time>
      </trkpt>
      <trkpt lat="45.698425769805908" lon="8.234832286834717">
        <ele>448.5924072265625</ele>
        <time>2006-04-23T11:28:07Z</time>
      </trkpt>
      <trkpt lat="45.698425769805908" lon="8.234853744506836">
        <ele>447.6309814453125</ele>
        <time>2006-04-23T11:28:15Z</time>
      </trkpt>
      <trkpt lat="45.698361396789551" lon="8.234896659851074">
        <ele>442.824462890625</ele>
        <time>2006-04-23T11:28:44Z</time>
      </trkpt>
      <trkpt lat="45.698297023773193" lon="8.234918117523193">
        <ele>434.6533203125</ele>
        <time>2006-04-23T11:31:38Z</time>
      </trkpt>
      <trkpt lat="45.698318481445313" lon="8.234918117523193">
        <ele>444.2664794921875</ele>
        <time>2006-04-23T11:32:05Z</time>
      </trkpt>
      <trkpt lat="45.698189735412598" lon="8.234853744506836">
        <ele>442.824462890625</ele>
        <time>2006-04-23T11:32:12Z</time>
      </trkpt>
      <trkpt lat="45.697996616363525" lon="8.23474645614624">
        <ele>441.3824462890625</ele>
        <time>2006-04-23T11:32:22Z</time>
      </trkpt>
      <trkpt lat="45.697846412658691" lon="8.234488964080811">
        <ele>441.3824462890625</ele>
        <time>2006-04-23T11:32:33Z</time>
      </trkpt>
      <trkpt lat="45.697824954986572" lon="8.234145641326904">
        <ele>440.4212646484375</ele>
        <time>2006-04-23T11:32:44Z</time>
      </trkpt>
      <trkpt lat="45.697760581970215" lon="8.233823776245117">
        <ele>440.4212646484375</ele>
        <time>2006-04-23T11:32:55Z</time>
      </trkpt>
      <trkpt lat="45.697610378265381" lon="8.233652114868164">
        <ele>442.3438720703125</ele>
        <time>2006-04-23T11:33:04Z</time>
      </trkpt>
      <trkpt lat="45.697503089904785" lon="8.233566284179688">
        <ele>442.824462890625</ele>
        <time>2006-04-23T11:33:13Z</time>
      </trkpt>
      <trkpt lat="45.697395801544189" lon="8.233480453491211">
        <ele>445.7083740234375</ele>
        <time>2006-04-23T11:33:22Z</time>
      </trkpt>
      <trkpt lat="45.697267055511475" lon="8.233416080474854">
        <ele>447.6309814453125</ele>
        <time>2006-04-23T11:33:32Z</time>
      </trkpt>
      <trkpt lat="45.697245597839355" lon="8.233394622802734">
        <ele>448.11181640625</ele>
        <time>2006-04-23T11:33:34Z</time>
      </trkpt>
      <trkpt lat="45.697181224822998" lon="8.233394622802734">
        <ele>449.5537109375</ele>
        <time>2006-04-23T11:33:40Z</time>
      </trkpt>
      <trkpt lat="45.697073936462402" lon="8.233351707458496">
        <ele>450.5150146484375</ele>
        <time>2006-04-23T11:33:51Z</time>
      </trkpt>
      <trkpt lat="45.696966648101807" lon="8.233308792114258">
        <ele>451.476318359375</ele>
        <time>2006-04-23T11:34:01Z</time>
      </trkpt>
      <trkpt lat="45.696816444396973" lon="8.233330249786377">
        <ele>453.39892578125</ele>
        <time>2006-04-23T11:34:16Z</time>
      </trkpt>
      <trkpt lat="45.696730613708496" lon="8.233330249786377">
        <ele>454.8408203125</ele>
        <time>2006-04-23T11:34:27Z</time>
      </trkpt>
      <trkpt lat="45.6966233253479" lon="8.23326587677002">
        <ele>455.80224609375</ele>
        <time>2006-04-23T11:34:37Z</time>
      </trkpt>
      <trkpt lat="45.696558952331543" lon="8.233115673065186">
        <ele>456.7635498046875</ele>
        <time>2006-04-23T11:34:49Z</time>
      </trkpt>
      <trkpt lat="45.696494579315186" lon="8.232922554016113">
        <ele>459.1668701171875</ele>
        <time>2006-04-23T11:35:02Z</time>
      </trkpt>
      <trkpt lat="45.696408748626709" lon="8.23275089263916">
        <ele>460.6087646484375</ele>
        <time>2006-04-23T11:35:13Z</time>
      </trkpt>
      <trkpt lat="45.696344375610352" lon="8.232729434967041">
        <ele>461.0894775390625</ele>
        <time>2006-04-23T11:35:19Z</time>
      </trkpt>
      <trkpt lat="45.696215629577637" lon="8.232858180999756">
        <ele>463.0120849609375</ele>
        <time>2006-04-23T11:35:27Z</time>
      </trkpt>
      <trkpt lat="45.696172714233398" lon="8.233115673065186">
        <ele>463.973388671875</ele>
        <time>2006-04-23T11:35:37Z</time>
      </trkpt>
      <trkpt lat="45.696194171905518" lon="8.233544826507568">
        <ele>465.41552734375</ele>
        <time>2006-04-23T11:35:52Z</time>
      </trkpt>
      <trkpt lat="45.69612979888916" lon="8.23375940322876">
        <ele>465.41552734375</ele>
        <time>2006-04-23T11:36:01Z</time>
      </trkpt>
      <trkpt lat="45.696001052856445" lon="8.23399543762207">
        <ele>467.338134765625</ele>
        <time>2006-04-23T11:36:13Z</time>
      </trkpt>
      <trkpt lat="45.69587230682373" lon="8.234145641326904">
        <ele>466.857421875</ele>
        <time>2006-04-23T11:36:22Z</time>
      </trkpt>
      <trkpt lat="45.695722103118896" lon="8.234274387359619">
        <ele>468.29931640625</ele>
        <time>2006-04-23T11:36:32Z</time>
      </trkpt>
      <trkpt lat="45.695571899414063" lon="8.2342529296875">
        <ele>469.2607421875</ele>
        <time>2006-04-23T11:36:41Z</time>
      </trkpt>
      <trkpt lat="45.695528984069824" lon="8.234038352966309">
        <ele>471.6639404296875</ele>
        <time>2006-04-23T11:36:51Z</time>
      </trkpt>
      <trkpt lat="45.695593357086182" lon="8.233931064605713">
        <ele>473.1060791015625</ele>
        <time>2006-04-23T11:37:00Z</time>
      </trkpt>
      <trkpt lat="45.695722103118896" lon="8.233780860900879">
        <ele>475.50927734375</ele>
        <time>2006-04-23T11:37:14Z</time>
      </trkpt>
      <trkpt lat="45.695807933807373" lon="8.233673572540283">
        <ele>477.431884765625</ele>
        <time>2006-04-23T11:37:24Z</time>
      </trkpt>
      <trkpt lat="45.69587230682373" lon="8.23350191116333">
        <ele>479.8350830078125</ele>
        <time>2006-04-23T11:37:36Z</time>
      </trkpt>
      <trkpt lat="45.69589376449585" lon="8.233330249786377">
        <ele>481.7578125</ele>
        <time>2006-04-23T11:37:46Z</time>
      </trkpt>
      <trkpt lat="45.695829391479492" lon="8.233137130737305">
        <ele>481.2772216796875</ele>
        <time>2006-04-23T11:37:59Z</time>
      </trkpt>
      <trkpt lat="45.695765018463135" lon="8.232922554016113">
        <ele>482.71923828125</ele>
        <time>2006-04-23T11:38:13Z</time>
      </trkpt>
      <trkpt lat="45.695743560791016" lon="8.232686519622803">
        <ele>483.1998291015625</ele>
        <time>2006-04-23T11:38:26Z</time>
      </trkpt>
      <trkpt lat="45.695700645446777" lon="8.232471942901611">
        <ele>487.525634765625</ele>
        <time>2006-04-23T11:38:38Z</time>
      </trkpt>
      <trkpt lat="45.695700645446777" lon="8.232386112213135">
        <ele>487.525634765625</ele>
        <time>2006-04-23T11:38:43Z</time>
      </trkpt>
      <trkpt lat="45.695765018463135" lon="8.232150077819824">
        <ele>489.9290771484375</ele>
        <time>2006-04-23T11:38:58Z</time>
      </trkpt>
      <trkpt lat="45.695743560791016" lon="8.23199987411499">
        <ele>490.890380859375</ele>
        <time>2006-04-23T11:39:07Z</time>
      </trkpt>
      <trkpt lat="45.695614814758301" lon="8.231892585754395">
        <ele>491.3709716796875</ele>
        <time>2006-04-23T11:39:16Z</time>
      </trkpt>
      <trkpt lat="45.695464611053467" lon="8.231871128082275">
        <ele>491.3709716796875</ele>
        <time>2006-04-23T11:39:23Z</time>
      </trkpt>
      <trkpt lat="45.69537878036499" lon="8.231892585754395">
        <ele>491.3709716796875</ele>
        <time>2006-04-23T11:39:25Z</time>
      </trkpt>
      <trkpt lat="45.695228576660156" lon="8.232021331787109">
        <ele>491.3709716796875</ele>
        <time>2006-04-23T11:39:29Z</time>
      </trkpt>
      <trkpt lat="45.69514274597168" lon="8.232128620147705">
        <ele>491.3709716796875</ele>
        <time>2006-04-23T11:39:31Z</time>
      </trkpt>
      <trkpt lat="45.694992542266846" lon="8.232321739196777">
        <ele>490.4097900390625</ele>
        <time>2006-04-23T11:39:35Z</time>
      </trkpt>
      <trkpt lat="45.694949626922607" lon="8.232128620147705">
        <ele>489.4483642578125</ele>
        <time>2006-04-23T11:39:38Z</time>
      </trkpt>
      <trkpt lat="45.694949626922607" lon="8.231956958770752">
        <ele>488.9677734375</ele>
        <time>2006-04-23T11:39:40Z</time>
      </trkpt>
      <trkpt lat="45.694949626922607" lon="8.23176383972168">
        <ele>488.9677734375</ele>
        <time>2006-04-23T11:39:42Z</time>
      </trkpt>
      <trkpt lat="45.695292949676514" lon="8.231420516967773">
        <ele>488.0064697265625</ele>
        <time>2006-04-23T11:39:47Z</time>
      </trkpt>
      <trkpt lat="45.695464611053467" lon="8.231120109558106">
        <ele>486.564453125</ele>
        <time>2006-04-23T11:39:50Z</time>
      </trkpt>
      <trkpt lat="45.695486068725586" lon="8.230798244476318">
        <ele>485.60302734375</ele>
        <time>2006-04-23T11:39:52Z</time>
      </trkpt>
      <trkpt lat="45.695614814758301" lon="8.230218887329102">
        <ele>479.8350830078125</ele>
        <time>2006-04-23T11:39:56Z</time>
      </trkpt>
      <trkpt lat="45.695958137512207" lon="8.229854106903076">
        <ele>475.9898681640625</ele>
        <time>2006-04-23T11:40:00Z</time>
      </trkpt>
      <trkpt lat="45.69612979888916" lon="8.229639530181885">
        <ele>475.50927734375</ele>
        <time>2006-04-23T11:40:02Z</time>
      </trkpt>
      <trkpt lat="45.696494579315186" lon="8.229403495788574">
        <ele>473.586669921875</ele>
        <time>2006-04-23T11:40:06Z</time>
      </trkpt>
      <trkpt lat="45.696687698364258" lon="8.229403495788574">
        <ele>472.1446533203125</ele>
        <time>2006-04-23T11:40:08Z</time>
      </trkpt>
      <trkpt lat="45.697009563446045" lon="8.229274749755859">
        <ele>472.1446533203125</ele>
        <time>2006-04-23T11:40:12Z</time>
      </trkpt>
      <trkpt lat="45.697202682495117" lon="8.229146003723145">
        <ele>472.6253662109375</ele>
        <time>2006-04-23T11:40:17Z</time>
      </trkpt>
      <trkpt lat="45.697503089904785" lon="8.228974342346191">
        <ele>472.1446533203125</ele>
        <time>2006-04-23T11:40:27Z</time>
      </trkpt>
      <trkpt lat="45.697610378265381" lon="8.228781223297119">
        <ele>472.1446533203125</ele>
        <time>2006-04-23T11:40:34Z</time>
      </trkpt>
      <trkpt lat="45.6976318359375" lon="8.228352069854736">
        <ele>473.1060791015625</ele>
        <time>2006-04-23T11:40:45Z</time>
      </trkpt>
      <trkpt lat="45.697739124298096" lon="8.228158950805664">
        <ele>473.586669921875</ele>
        <time>2006-04-23T11:40:52Z</time>
      </trkpt>
      <trkpt lat="45.697975158691406" lon="8.227922916412354">
        <ele>474.0672607421875</ele>
        <time>2006-04-23T11:41:06Z</time>
      </trkpt>
      <trkpt lat="45.698146820068359" lon="8.227708339691162">
        <ele>475.50927734375</ele>
        <time>2006-04-23T11:41:18Z</time>
      </trkpt>
      <trkpt lat="45.698339939117432" lon="8.227493762969971">
        <ele>477.431884765625</ele>
        <time>2006-04-23T11:41:31Z</time>
      </trkpt>
      <trkpt lat="45.698490142822266" lon="8.227343559265137">
        <ele>478.3931884765625</ele>
        <time>2006-04-23T11:41:41Z</time>
      </trkpt>
      <trkpt lat="45.698704719543457" lon="8.227107524871826">
        <ele>480.796630859375</ele>
        <time>2006-04-23T11:41:56Z</time>
      </trkpt>
      <trkpt lat="45.698812007904053" lon="8.226678371429443">
        <ele>482.238525390625</ele>
        <time>2006-04-23T11:42:12Z</time>
      </trkpt>
      <trkpt lat="45.698790550231934" lon="8.226399421691895">
        <ele>482.71923828125</ele>
        <time>2006-04-23T11:42:22Z</time>
      </trkpt>
      <trkpt lat="45.698661804199219" lon="8.226292133331299">
        <ele>483.1998291015625</ele>
        <time>2006-04-23T11:42:29Z</time>
      </trkpt>
      <trkpt lat="45.698447227478027" lon="8.226163387298584">
        <ele>484.641845703125</ele>
        <time>2006-04-23T11:42:42Z</time>
      </trkpt>
      <trkpt lat="45.698318481445313" lon="8.225927352905273">
        <ele>487.0450439453125</ele>
        <time>2006-04-23T11:42:53Z</time>
      </trkpt>
      <trkpt lat="45.698275566101074" lon="8.225626945495606">
        <ele>490.4097900390625</ele>
        <time>2006-04-23T11:43:05Z</time>
      </trkpt>
      <trkpt lat="45.698297023773193" lon="8.225369453430176">
        <ele>490.4097900390625</ele>
        <time>2006-04-23T11:43:15Z</time>
      </trkpt>
      <trkpt lat="45.69838285446167" lon="8.225090503692627">
        <ele>492.3323974609375</ele>
        <time>2006-04-23T11:43:28Z</time>
      </trkpt>
      <trkpt lat="45.698361396789551" lon="8.224790096282959">
        <ele>494.2550048828125</ele>
        <time>2006-04-23T11:43:43Z</time>
      </trkpt>
      <trkpt lat="45.698318481445313" lon="8.224489688873291">
        <ele>497.138916015625</ele>
        <time>2006-04-23T11:43:57Z</time>
      </trkpt>
      <trkpt lat="45.698361396789551" lon="8.224318027496338">
        <ele>499.0615234375</ele>
        <time>2006-04-23T11:44:07Z</time>
      </trkpt>
      <trkpt lat="45.698490142822266" lon="8.224296569824219">
        <ele>500.5035400390625</ele>
        <time>2006-04-23T11:44:17Z</time>
      </trkpt>
      <trkpt lat="45.698575973510742" lon="8.224425315856934">
        <ele>504.8294677734375</ele>
        <time>2006-04-23T11:44:27Z</time>
      </trkpt>
      <trkpt lat="45.6986403465271" lon="8.224554061889648">
        <ele>507.2327880859375</ele>
        <time>2006-04-23T11:44:38Z</time>
      </trkpt>
      <trkpt lat="45.698726177215576" lon="8.224704265594482">
        <ele>509.6361083984375</ele>
        <time>2006-04-23T11:44:51Z</time>
      </trkpt>
      <trkpt lat="45.698812007904053" lon="8.224811553955078">
        <ele>510.11669921875</ele>
        <time>2006-04-23T11:45:01Z</time>
      </trkpt>
      <trkpt lat="45.698812007904053" lon="8.224833011627197">
        <ele>510.11669921875</ele>
        <time>2006-04-23T11:45:02Z</time>
      </trkpt>
      <trkpt lat="45.698833465576172" lon="8.224833011627197">
        <ele>510.5972900390625</ele>
        <time>2006-04-23T11:45:04Z</time>
      </trkpt>
      <trkpt lat="45.69887638092041" lon="8.224790096282959">
        <ele>512.52001953125</ele>
        <time>2006-04-23T11:45:09Z</time>
      </trkpt>
      <trkpt lat="45.69887638092041" lon="8.224575519561768">
        <ele>513.9620361328125</ele>
        <time>2006-04-23T11:45:23Z</time>
      </trkpt>
      <trkpt lat="45.698854923248291" lon="8.224382400512695">
        <ele>514.92333984375</ele>
        <time>2006-04-23T11:45:35Z</time>
      </trkpt>
      <trkpt lat="45.698833465576172" lon="8.224189281463623">
        <ele>515.8846435546875</ele>
        <time>2006-04-23T11:45:47Z</time>
      </trkpt>
      <trkpt lat="45.698833465576172" lon="8.224039077758789">
        <ele>516.845947265625</ele>
        <time>2006-04-23T11:45:56Z</time>
      </trkpt>
      <trkpt lat="45.698833465576172" lon="8.223803043365479">
        <ele>518.287841796875</ele>
        <time>2006-04-23T11:46:08Z</time>
      </trkpt>
      <trkpt lat="45.698833465576172" lon="8.223481178283691">
        <ele>519.7298583984375</ele>
        <time>2006-04-23T11:46:23Z</time>
      </trkpt>
      <trkpt lat="45.698854923248291" lon="8.223202228546143">
        <ele>520.6912841796875</ele>
        <time>2006-04-23T11:46:36Z</time>
      </trkpt>
      <trkpt lat="45.69887638092041" lon="8.222987651824951">
        <ele>521.1719970703125</ele>
        <time>2006-04-23T11:46:45Z</time>
      </trkpt>
      <trkpt lat="45.698897838592529" lon="8.222665786743164">
        <ele>521.652587890625</ele>
        <time>2006-04-23T11:46:57Z</time>
      </trkpt>
      <trkpt lat="45.698919296264648" lon="8.222365379333496">
        <ele>523.5751953125</ele>
        <time>2006-04-23T11:47:09Z</time>
      </trkpt>
      <trkpt lat="45.698962211608887" lon="8.222129344940186">
        <ele>525.0172119140625</ele>
        <time>2006-04-23T11:47:19Z</time>
      </trkpt>
      <trkpt lat="45.699069499969482" lon="8.221828937530518">
        <ele>526.9398193359375</ele>
        <time>2006-04-23T11:47:32Z</time>
      </trkpt>
      <trkpt lat="45.699198246002197" lon="8.221571445465088">
        <ele>528.862548828125</ele>
        <time>2006-04-23T11:47:45Z</time>
      </trkpt>
      <trkpt lat="45.699326992034912" lon="8.22127103805542">
        <ele>530.78515625</ele>
        <time>2006-04-23T11:47:59Z</time>
      </trkpt>
      <trkpt lat="45.69936990737915" lon="8.221206665039063">
        <ele>531.2657470703125</ele>
        <time>2006-04-23T11:48:06Z</time>
      </trkpt>
      <trkpt lat="45.69936990737915" lon="8.221206665039063">
        <ele>533.1883544921875</ele>
        <time>2006-04-23T11:48:19Z</time>
      </trkpt>
      <trkpt lat="45.69936990737915" lon="8.221163749694824">
        <ele>534.63037109375</ele>
        <time>2006-04-23T11:49:24Z</time>
      </trkpt>
      <trkpt lat="45.699434280395508" lon="8.221163749694824">
        <ele>530.78515625</ele>
        <time>2006-04-23T11:50:29Z</time>
      </trkpt>
      <trkpt lat="45.699477195739746" lon="8.221185207366943">
        <ele>531.2657470703125</ele>
        <time>2006-04-23T11:50:34Z</time>
      </trkpt>
      <trkpt lat="45.699563026428223" lon="8.221120834350586">
        <ele>532.22705078125</ele>
        <time>2006-04-23T11:50:45Z</time>
      </trkpt>
      <trkpt lat="45.699670314788818" lon="8.220970630645752">
        <ele>533.6689453125</ele>
        <time>2006-04-23T11:50:57Z</time>
      </trkpt>
      <trkpt lat="45.699691772460938" lon="8.220884799957275">
        <ele>534.149658203125</ele>
        <time>2006-04-23T11:51:03Z</time>
      </trkpt>
      <trkpt lat="45.699756145477295" lon="8.220713138580322">
        <ele>535.591552734375</ele>
        <time>2006-04-23T11:51:15Z</time>
      </trkpt>
      <trkpt lat="45.699820518493652" lon="8.220584392547607">
        <ele>536.0723876953125</ele>
        <time>2006-04-23T11:51:27Z</time>
      </trkpt>
      <trkpt lat="45.699906349182129" lon="8.220434188842773">
        <ele>537.5142822265625</ele>
        <time>2006-04-23T11:51:39Z</time>
      </trkpt>
      <trkpt lat="45.699970722198486" lon="8.220305442810059">
        <ele>539.4368896484375</ele>
        <time>2006-04-23T11:51:51Z</time>
      </trkpt>
      <trkpt lat="45.700035095214844" lon="8.220176696777344">
        <ele>541.3594970703125</ele>
        <time>2006-04-23T11:52:03Z</time>
      </trkpt>
      <trkpt lat="45.700099468231201" lon="8.220090866088867">
        <ele>542.801513671875</ele>
        <time>2006-04-23T11:52:11Z</time>
      </trkpt>
      <trkpt lat="45.700142383575439" lon="8.219962120056152">
        <ele>545.204833984375</ele>
        <time>2006-04-23T11:52:21Z</time>
      </trkpt>
      <trkpt lat="45.700163841247559" lon="8.219811916351318">
        <ele>547.12744140625</ele>
        <time>2006-04-23T11:52:31Z</time>
      </trkpt>
      <trkpt lat="45.700163841247559" lon="8.219640254974365">
        <ele>548.0888671875</ele>
        <time>2006-04-23T11:52:44Z</time>
      </trkpt>
      <trkpt lat="45.700163841247559" lon="8.21951150894165">
        <ele>549.53076171875</ele>
        <time>2006-04-23T11:52:53Z</time>
      </trkpt>
      <trkpt lat="45.700142383575439" lon="8.219318389892578">
        <ele>551.93408203125</ele>
        <time>2006-04-23T11:53:06Z</time>
      </trkpt>
      <trkpt lat="45.700163841247559" lon="8.219211101531982">
        <ele>549.050048828125</ele>
        <time>2006-04-23T11:53:15Z</time>
      </trkpt>
      <trkpt lat="45.700142383575439" lon="8.219039440155029">
        <ele>552.41455078125</ele>
        <time>2006-04-23T11:53:26Z</time>
      </trkpt>
      <trkpt lat="45.700163841247559" lon="8.218867778778076">
        <ele>553.3759765625</ele>
        <time>2006-04-23T11:53:38Z</time>
      </trkpt>
      <trkpt lat="45.700206756591797" lon="8.218696117401123">
        <ele>554.33740234375</ele>
        <time>2006-04-23T11:53:50Z</time>
      </trkpt>
      <trkpt lat="45.700228214263916" lon="8.218631744384766">
        <ele>556.260009765625</ele>
        <time>2006-04-23T11:53:56Z</time>
      </trkpt>
      <trkpt lat="45.700271129608154" lon="8.218438625335693">
        <ele>558.663330078125</ele>
        <time>2006-04-23T11:54:09Z</time>
      </trkpt>
      <trkpt lat="45.700335502624512" lon="8.21826696395874">
        <ele>560.105224609375</ele>
        <time>2006-04-23T11:54:22Z</time>
      </trkpt>
      <trkpt lat="45.70037841796875" lon="8.218073844909668">
        <ele>562.028076171875</ele>
        <time>2006-04-23T11:54:35Z</time>
      </trkpt>
      <trkpt lat="45.700421333312988" lon="8.217859268188477">
        <ele>563.469970703125</ele>
        <time>2006-04-23T11:54:51Z</time>
      </trkpt>
      <trkpt lat="45.700485706329346" lon="8.217687606811523">
        <ele>564.911865234375</ele>
        <time>2006-04-23T11:55:04Z</time>
      </trkpt>
      <trkpt lat="45.700528621673584" lon="8.21753740310669">
        <ele>566.83447265625</ele>
        <time>2006-04-23T11:55:16Z</time>
      </trkpt>
      <trkpt lat="45.700550079345703" lon="8.217322826385498">
        <ele>566.83447265625</ele>
        <time>2006-04-23T11:55:32Z</time>
      </trkpt>
      <trkpt lat="45.700528621673584" lon="8.217108249664307">
        <ele>566.83447265625</ele>
        <time>2006-04-23T11:55:46Z</time>
      </trkpt>
      <trkpt lat="45.700442790985107" lon="8.21702241897583">
        <ele>567.315185546875</ele>
        <time>2006-04-23T11:55:56Z</time>
      </trkpt>
      <trkpt lat="45.700335502624512" lon="8.217043876647949">
        <ele>568.757080078125</ele>
        <time>2006-04-23T11:56:07Z</time>
      </trkpt>
      <trkpt lat="45.700228214263916" lon="8.217086791992188">
        <ele>570.198974609375</ele>
        <time>2006-04-23T11:56:18Z</time>
      </trkpt>
      <trkpt lat="45.700099468231201" lon="8.217151165008545">
        <ele>571.160400390625</ele>
        <time>2006-04-23T11:56:32Z</time>
      </trkpt>
      <trkpt lat="45.699970722198486" lon="8.217194080352783">
        <ele>573.56396484375</ele>
        <time>2006-04-23T11:56:45Z</time>
      </trkpt>
      <trkpt lat="45.699841976165771" lon="8.217215538024902">
        <ele>575.005859375</ele>
        <time>2006-04-23T11:56:57Z</time>
      </trkpt>
      <trkpt lat="45.699713230133057" lon="8.217258453369141">
        <ele>576.44775390625</ele>
        <time>2006-04-23T11:57:10Z</time>
      </trkpt>
      <trkpt lat="45.699605941772461" lon="8.217258453369141">
        <ele>578.85107421875</ele>
        <time>2006-04-23T11:57:23Z</time>
      </trkpt>
      <trkpt lat="45.699541568756104" lon="8.217151165008545">
        <ele>581.25439453125</ele>
        <time>2006-04-23T11:57:33Z</time>
      </trkpt>
      <trkpt lat="45.699541568756104" lon="8.217129707336426">
        <ele>579.33154296875</ele>
        <time>2006-04-23T11:57:43Z</time>
      </trkpt>
      <trkpt lat="45.699563026428223" lon="8.21702241897583">
        <ele>579.812255859375</ele>
        <time>2006-04-23T11:58:16Z</time>
      </trkpt>
      <trkpt lat="45.699584484100342" lon="8.216979503631592">
        <ele>579.33154296875</ele>
        <time>2006-04-23T11:58:21Z</time>
      </trkpt>
      <trkpt lat="45.69962739944458" lon="8.21678638458252">
        <ele>579.33154296875</ele>
        <time>2006-04-23T11:58:35Z</time>
      </trkpt>
      <trkpt lat="45.699605941772461" lon="8.216571807861328">
        <ele>579.33154296875</ele>
        <time>2006-04-23T11:58:50Z</time>
      </trkpt>
      <trkpt lat="45.699648857116699" lon="8.216464519500732">
        <ele>581.25439453125</ele>
        <time>2006-04-23T11:58:59Z</time>
      </trkpt>
      <trkpt lat="45.699648857116699" lon="8.216400146484375">
        <ele>585.099609375</ele>
        <time>2006-04-23T11:59:08Z</time>
      </trkpt>
      <trkpt lat="45.69962739944458" lon="8.216314315795898">
        <ele>586.060791015625</ele>
        <time>2006-04-23T11:59:19Z</time>
      </trkpt>
      <trkpt lat="45.699563026428223" lon="8.216292858123779">
        <ele>587.9833984375</ele>
        <time>2006-04-23T11:59:30Z</time>
      </trkpt>
      <trkpt lat="45.699434280395508" lon="8.21627140045166">
        <ele>591.828857421875</ele>
        <time>2006-04-23T11:59:44Z</time>
      </trkpt>
      <trkpt lat="45.69936990737915" lon="8.216207027435303">
        <ele>593.270751953125</ele>
        <time>2006-04-23T11:59:56Z</time>
      </trkpt>
      <trkpt lat="45.699326992034912" lon="8.216013908386231">
        <ele>593.270751953125</ele>
        <time>2006-04-23T12:00:07Z</time>
      </trkpt>
      <trkpt lat="45.699348449707031" lon="8.215627670288086">
        <ele>589.425537109375</ele>
        <time>2006-04-23T12:00:14Z</time>
      </trkpt>
      <trkpt lat="45.699348449707031" lon="8.215541839599609">
        <ele>587.502685546875</ele>
        <time>2006-04-23T12:00:15Z</time>
      </trkpt>
      <trkpt lat="45.699412822723389" lon="8.214898109436035">
        <ele>584.618896484375</ele>
        <time>2006-04-23T12:00:20Z</time>
      </trkpt>
      <trkpt lat="45.699584484100342" lon="8.214683532714844">
        <ele>583.1767578125</ele>
        <time>2006-04-23T12:00:24Z</time>
      </trkpt>
      <trkpt lat="45.699670314788818" lon="8.214683532714844">
        <ele>582.6962890625</ele>
        <time>2006-04-23T12:00:26Z</time>
      </trkpt>
      <trkpt lat="45.699756145477295" lon="8.214597702026367">
        <ele>582.215576171875</ele>
        <time>2006-04-23T12:00:30Z</time>
      </trkpt>
      <trkpt lat="45.699799060821533" lon="8.214490413665772">
        <ele>582.215576171875</ele>
        <time>2006-04-23T12:00:39Z</time>
      </trkpt>
      <trkpt lat="45.69988489151001" lon="8.214318752288818">
        <ele>580.773681640625</ele>
        <time>2006-04-23T12:00:51Z</time>
      </trkpt>
      <trkpt lat="45.700035095214844" lon="8.214147090911865">
        <ele>579.812255859375</ele>
        <time>2006-04-23T12:01:07Z</time>
      </trkpt>
      <trkpt lat="45.700056552886963" lon="8.213996887207031">
        <ele>580.773681640625</ele>
        <time>2006-04-23T12:01:18Z</time>
      </trkpt>
      <trkpt lat="45.700035095214844" lon="8.213975429534912">
        <ele>580.29296875</ele>
        <time>2006-04-23T12:01:20Z</time>
      </trkpt>
      <trkpt lat="45.699906349182129" lon="8.213911056518555">
        <ele>581.73486328125</ele>
        <time>2006-04-23T12:01:35Z</time>
      </trkpt>
      <trkpt lat="45.699863433837891" lon="8.213846683502197">
        <ele>591.828857421875</ele>
        <time>2006-04-23T12:02:53Z</time>
      </trkpt>
      <trkpt lat="45.699863433837891" lon="8.21378231048584">
        <ele>590.386962890625</ele>
        <time>2006-04-23T12:03:04Z</time>
      </trkpt>
      <trkpt lat="45.699820518493652" lon="8.213717937469482">
        <ele>590.867431640625</ele>
        <time>2006-04-23T12:03:14Z</time>
      </trkpt>
      <trkpt lat="45.699756145477295" lon="8.213653564453125">
        <ele>589.90625</ele>
        <time>2006-04-23T12:03:28Z</time>
      </trkpt>
      <trkpt lat="45.699756145477295" lon="8.213610649108887">
        <ele>593.75146484375</ele>
        <time>2006-04-23T12:03:39Z</time>
      </trkpt>
      <trkpt lat="45.699756145477295" lon="8.213739395141602">
        <ele>619.226318359375</ele>
        <time>2006-04-23T12:04:08Z</time>
      </trkpt>
      <trkpt lat="45.699734687805176" lon="8.213632106781006">
        <ele>615.86181640625</ele>
        <time>2006-04-23T12:04:20Z</time>
      </trkpt>
      <trkpt lat="45.699648857116699" lon="8.213546276092529">
        <ele>612.0166015625</ele>
        <time>2006-04-23T12:04:32Z</time>
      </trkpt>
      <trkpt lat="45.699520111083984" lon="8.21352481842041">
        <ele>606.24853515625</ele>
        <time>2006-04-23T12:04:46Z</time>
      </trkpt>
      <trkpt lat="45.699434280395508" lon="8.213460445404053">
        <ele>602.8837890625</ele>
        <time>2006-04-23T12:04:58Z</time>
      </trkpt>
      <trkpt lat="45.69936990737915" lon="8.213396072387695">
        <ele>601.44189453125</ele>
        <time>2006-04-23T12:05:10Z</time>
      </trkpt>
      <trkpt lat="45.699348449707031" lon="8.213374614715576">
        <ele>600.961181640625</ele>
        <time>2006-04-23T12:05:21Z</time>
      </trkpt>
      <trkpt lat="45.699284076690674" lon="8.213353157043457">
        <ele>601.44189453125</ele>
        <time>2006-04-23T12:05:41Z</time>
      </trkpt>
      <trkpt lat="45.699241161346436" lon="8.2132887840271">
        <ele>602.403076171875</ele>
        <time>2006-04-23T12:05:49Z</time>
      </trkpt>
      <trkpt lat="45.699176788330078" lon="8.213160037994385">
        <ele>603.364501953125</ele>
        <time>2006-04-23T12:06:02Z</time>
      </trkpt>
      <trkpt lat="45.699155330657959" lon="8.213095664978027">
        <ele>602.8837890625</ele>
        <time>2006-04-23T12:06:08Z</time>
      </trkpt>
      <trkpt lat="45.699176788330078" lon="8.212945461273193">
        <ele>603.84521484375</ele>
        <time>2006-04-23T12:06:20Z</time>
      </trkpt>
      <trkpt lat="45.699176788330078" lon="8.212902545928955">
        <ele>603.364501953125</ele>
        <time>2006-04-23T12:06:30Z</time>
      </trkpt>
      <trkpt lat="45.699198246002197" lon="8.212902545928955">
        <ele>603.364501953125</ele>
        <time>2006-04-23T12:06:37Z</time>
      </trkpt>
      <trkpt lat="45.699198246002197" lon="8.212795257568359">
        <ele>601.44189453125</ele>
        <time>2006-04-23T12:07:02Z</time>
      </trkpt>
      <trkpt lat="45.699198246002197" lon="8.21253776550293">
        <ele>600.480712890625</ele>
        <time>2006-04-23T12:07:08Z</time>
      </trkpt>
      <trkpt lat="45.699198246002197" lon="8.212473392486572">
        <ele>600</ele>
        <time>2006-04-23T12:07:09Z</time>
      </trkpt>
      <trkpt lat="45.699284076690674" lon="8.211851119995117">
        <ele>594.712646484375</ele>
        <time>2006-04-23T12:07:15Z</time>
      </trkpt>
      <trkpt lat="45.699305534362793" lon="8.211572170257568">
        <ele>592.3095703125</ele>
        <time>2006-04-23T12:07:17Z</time>
      </trkpt>
      <trkpt lat="45.69913387298584" lon="8.211078643798828">
        <ele>589.425537109375</ele>
        <time>2006-04-23T12:07:21Z</time>
      </trkpt>
      <trkpt lat="45.698919296264648" lon="8.210864067077637">
        <ele>590.386962890625</ele>
        <time>2006-04-23T12:07:24Z</time>
      </trkpt>
      <trkpt lat="45.698897838592529" lon="8.210670948028565">
        <ele>591.34814453125</ele>
        <time>2006-04-23T12:07:26Z</time>
      </trkpt>
      <trkpt lat="45.698897838592529" lon="8.210370540618897">
        <ele>591.828857421875</ele>
        <time>2006-04-23T12:07:29Z</time>
      </trkpt>
      <trkpt lat="45.698704719543457" lon="8.210155963897705">
        <ele>592.3095703125</ele>
        <time>2006-04-23T12:07:33Z</time>
      </trkpt>
      <trkpt lat="45.698597431182861" lon="8.210306167602539">
        <ele>592.3095703125</ele>
        <time>2006-04-23T12:07:36Z</time>
      </trkpt>
      <trkpt lat="45.698597431182861" lon="8.210349082946777">
        <ele>592.3095703125</ele>
        <time>2006-04-23T12:07:37Z</time>
      </trkpt>
      <trkpt lat="45.698511600494385" lon="8.210799694061279">
        <ele>594.712646484375</ele>
        <time>2006-04-23T12:07:49Z</time>
      </trkpt>
      <trkpt lat="45.698361396789551" lon="8.210949897766113">
        <ele>595.193359375</ele>
        <time>2006-04-23T12:07:57Z</time>
      </trkpt>
      <trkpt lat="45.698146820068359" lon="8.211014270782471">
        <ele>595.193359375</ele>
        <time>2006-04-23T12:08:07Z</time>
      </trkpt>
      <trkpt lat="45.697953701019287" lon="8.211121559143066">
        <ele>595.674072265625</ele>
        <time>2006-04-23T12:08:16Z</time>
      </trkpt>
      <trkpt lat="45.697760581970215" lon="8.21129322052002">
        <ele>595.193359375</ele>
        <time>2006-04-23T12:08:22Z</time>
      </trkpt>
      <trkpt lat="45.6976318359375" lon="8.211421966552734">
        <ele>595.193359375</ele>
        <time>2006-04-23T12:08:25Z</time>
      </trkpt>
      <trkpt lat="45.697267055511475" lon="8.211572170257568">
        <ele>590.867431640625</ele>
        <time>2006-04-23T12:08:31Z</time>
      </trkpt>
      <trkpt lat="45.697095394134521" lon="8.211443424224854">
        <ele>588.46435546875</ele>
        <time>2006-04-23T12:08:34Z</time>
      </trkpt>
      <trkpt lat="45.697031021118164" lon="8.21152925491333">
        <ele>587.02197265625</ele>
        <time>2006-04-23T12:08:36Z</time>
      </trkpt>
      <trkpt lat="45.697095394134521" lon="8.211679458618164">
        <ele>585.580078125</ele>
        <time>2006-04-23T12:08:38Z</time>
      </trkpt>
      <trkpt lat="45.69737434387207" lon="8.211829662322998">
        <ele>583.1767578125</ele>
        <time>2006-04-23T12:08:42Z</time>
      </trkpt>
      <trkpt lat="45.6976318359375" lon="8.211808204650879">
        <ele>581.73486328125</ele>
        <time>2006-04-23T12:08:45Z</time>
      </trkpt>
      <trkpt lat="45.697782039642334" lon="8.211915493011475">
        <ele>580.773681640625</ele>
        <time>2006-04-23T12:08:48Z</time>
      </trkpt>
      <trkpt lat="45.697653293609619" lon="8.211979866027832">
        <ele>579.33154296875</ele>
        <time>2006-04-23T12:08:50Z</time>
      </trkpt>
      <trkpt lat="45.697503089904785" lon="8.212001323699951">
        <ele>578.370361328125</ele>
        <time>2006-04-23T12:08:52Z</time>
      </trkpt>
      <trkpt lat="45.697073936462402" lon="8.212301731109619">
        <ele>575.486328125</ele>
        <time>2006-04-23T12:08:57Z</time>
      </trkpt>
      <trkpt lat="45.696580410003662" lon="8.212451934814453">
        <ele>572.6025390625</ele>
        <time>2006-04-23T12:09:02Z</time>
      </trkpt>
      <trkpt lat="45.696473121643066" lon="8.212387561798096">
        <ele>571.640869140625</ele>
        <time>2006-04-23T12:09:03Z</time>
      </trkpt>
      <trkpt lat="45.696430206298828" lon="8.211851119995117">
        <ele>568.757080078125</ele>
        <time>2006-04-23T12:09:08Z</time>
      </trkpt>
      <trkpt lat="45.696408748626709" lon="8.21152925491333">
        <ele>568.2763671875</ele>
        <time>2006-04-23T12:09:11Z</time>
      </trkpt>
      <trkpt lat="45.696194171905518" lon="8.211507797241211">
        <ele>567.795654296875</ele>
        <time>2006-04-23T12:09:14Z</time>
      </trkpt>
      <trkpt lat="45.695915222167969" lon="8.211572170257568">
        <ele>566.83447265625</ele>
        <time>2006-04-23T12:09:18Z</time>
      </trkpt>
      <trkpt lat="45.695614814758301" lon="8.21152925491333">
        <ele>565.392578125</ele>
        <time>2006-04-23T12:09:22Z</time>
      </trkpt>
      <trkpt lat="45.695335865020752" lon="8.211636543273926">
        <ele>563.469970703125</ele>
        <time>2006-04-23T12:09:26Z</time>
      </trkpt>
      <trkpt lat="45.695013999938965" lon="8.211829662322998">
        <ele>561.54736328125</ele>
        <time>2006-04-23T12:09:31Z</time>
      </trkpt>
      <trkpt lat="45.694820880889893" lon="8.211894035339356">
        <ele>559.624755859375</ele>
        <time>2006-04-23T12:09:34Z</time>
      </trkpt>
      <trkpt lat="45.694456100463867" lon="8.212108612060547">
        <ele>555.779296875</ele>
        <time>2006-04-23T12:09:39Z</time>
      </trkpt>
      <trkpt lat="45.693919658660889" lon="8.212344646453857">
        <ele>553.3759765625</ele>
        <time>2006-04-23T12:09:45Z</time>
      </trkpt>
      <trkpt lat="45.693790912628174" lon="8.212409019470215">
        <ele>553.3759765625</ele>
        <time>2006-04-23T12:09:47Z</time>
      </trkpt>
      <trkpt lat="45.693812370300293" lon="8.21253776550293">
        <ele>553.856689453125</ele>
        <time>2006-04-23T12:09:51Z</time>
      </trkpt>
      <trkpt lat="45.693855285644531" lon="8.212473392486572">
        <ele>553.856689453125</ele>
        <time>2006-04-23T12:09:54Z</time>
      </trkpt>
      <trkpt lat="45.693662166595459" lon="8.212473392486572">
        <ele>502.90673828125</ele>
        <time>2006-04-23T13:34:05Z</time>
      </trkpt>
      <trkpt lat="45.693683624267578" lon="8.212387561798096">
        <ele>477.9124755859375</ele>
        <time>2006-04-23T13:34:16Z</time>
      </trkpt>
      <trkpt lat="45.694327354431152" lon="8.212473392486572">
        <ele>584.618896484375</ele>
        <time>2006-04-23T14:17:30Z</time>
      </trkpt>
      <trkpt lat="45.694262981414795" lon="8.212451934814453">
        <ele>594.232177734375</ele>
        <time>2006-04-23T14:17:43Z</time>
      </trkpt>
      <trkpt lat="45.693941116333008" lon="8.21253776550293">
        <ele>542.3209228515625</ele>
        <time>2006-04-23T14:18:06Z</time>
      </trkpt>
      <trkpt lat="45.693919658660889" lon="8.212430477142334">
        <ele>544.7242431640625</ele>
        <time>2006-04-23T14:18:17Z</time>
      </trkpt>
      <trkpt lat="45.69389820098877" lon="8.212473392486572">
        <ele>547.12744140625</ele>
        <time>2006-04-23T14:18:27Z</time>
      </trkpt>
      <trkpt lat="45.693833827972412" lon="8.212473392486572">
        <ele>548.5693359375</ele>
        <time>2006-04-23T14:18:34Z</time>
      </trkpt>
      <trkpt lat="45.693726539611816" lon="8.212473392486572">
        <ele>549.53076171875</ele>
        <time>2006-04-23T14:18:40Z</time>
      </trkpt>
      <trkpt lat="45.693747997283936" lon="8.212387561798096">
        <ele>550.011474609375</ele>
        <time>2006-04-23T14:18:44Z</time>
      </trkpt>
      <trkpt lat="45.693790912628174" lon="8.212387561798096">
        <ele>550.011474609375</ele>
        <time>2006-04-23T14:18:45Z</time>
      </trkpt>
      <trkpt lat="45.694112777709961" lon="8.212258815765381">
        <ele>550.97265625</ele>
        <time>2006-04-23T14:18:58Z</time>
      </trkpt>
      <trkpt lat="45.694305896759033" lon="8.212194442749023">
        <ele>551.453369140625</ele>
        <time>2006-04-23T14:19:08Z</time>
      </trkpt>
      <trkpt lat="45.694520473480225" lon="8.21204423904419">
        <ele>554.33740234375</ele>
        <time>2006-04-23T14:19:20Z</time>
      </trkpt>
      <trkpt lat="45.694713592529297" lon="8.211915493011475">
        <ele>557.221435546875</ele>
        <time>2006-04-23T14:19:32Z</time>
      </trkpt>
      <trkpt lat="45.694863796234131" lon="8.211872577667236">
        <ele>561.066650390625</ele>
        <time>2006-04-23T14:19:41Z</time>
      </trkpt>
      <trkpt lat="45.695056915283203" lon="8.211829662322998">
        <ele>561.54736328125</ele>
        <time>2006-04-23T14:19:52Z</time>
      </trkpt>
      <trkpt lat="45.695185661315918" lon="8.211743831634522">
        <ele>561.066650390625</ele>
        <time>2006-04-23T14:20:01Z</time>
      </trkpt>
      <trkpt lat="45.695335865020752" lon="8.211658000946045">
        <ele>560.5859375</ele>
        <time>2006-04-23T14:20:10Z</time>
      </trkpt>
      <trkpt lat="45.695507526397705" lon="8.211550712585449">
        <ele>560.5859375</ele>
        <time>2006-04-23T14:20:20Z</time>
      </trkpt>
      <trkpt lat="45.695657730102539" lon="8.211550712585449">
        <ele>562.508544921875</ele>
        <time>2006-04-23T14:20:28Z</time>
      </trkpt>
      <trkpt lat="45.695850849151611" lon="8.211593627929688">
        <ele>564.43115234375</ele>
        <time>2006-04-23T14:20:37Z</time>
      </trkpt>
      <trkpt lat="45.696065425872803" lon="8.211572170257568">
        <ele>567.315185546875</ele>
        <time>2006-04-23T14:20:48Z</time>
      </trkpt>
      <trkpt lat="45.696258544921875" lon="8.211507797241211">
        <ele>566.353759765625</ele>
        <time>2006-04-23T14:20:59Z</time>
      </trkpt>
      <trkpt lat="45.696430206298828" lon="8.211443424224854">
        <ele>566.353759765625</ele>
        <time>2006-04-23T14:21:08Z</time>
      </trkpt>
      <trkpt lat="45.696516036987305" lon="8.211507797241211">
        <ele>566.353759765625</ele>
        <time>2006-04-23T14:21:13Z</time>
      </trkpt>
      <trkpt lat="45.696558952331543" lon="8.211679458618164">
        <ele>567.795654296875</ele>
        <time>2006-04-23T14:21:20Z</time>
      </trkpt>
      <trkpt lat="45.696516036987305" lon="8.211765289306641">
        <ele>567.795654296875</ele>
        <time>2006-04-23T14:21:24Z</time>
      </trkpt>
      <trkpt lat="45.696430206298828" lon="8.212108612060547">
        <ele>567.315185546875</ele>
        <time>2006-04-23T14:21:37Z</time>
      </trkpt>
      <trkpt lat="45.696494579315186" lon="8.212344646453857">
        <ele>569.23779296875</ele>
        <time>2006-04-23T14:21:47Z</time>
      </trkpt>
      <trkpt lat="45.696601867675781" lon="8.212430477142334">
        <ele>571.160400390625</ele>
        <time>2006-04-23T14:21:55Z</time>
      </trkpt>
      <trkpt lat="45.696752071380615" lon="8.212451934814453">
        <ele>573.56396484375</ele>
        <time>2006-04-23T14:22:05Z</time>
      </trkpt>
      <trkpt lat="45.696902275085449" lon="8.212430477142334">
        <ele>576.44775390625</ele>
        <time>2006-04-23T14:22:17Z</time>
      </trkpt>
      <trkpt lat="45.697031021118164" lon="8.212344646453857">
        <ele>577.8896484375</ele>
        <time>2006-04-23T14:22:27Z</time>
      </trkpt>
      <trkpt lat="45.697116851806641" lon="8.212215900421143">
        <ele>579.33154296875</ele>
        <time>2006-04-23T14:22:37Z</time>
      </trkpt>
      <trkpt lat="45.697224140167236" lon="8.21204423904419">
        <ele>582.6962890625</ele>
        <time>2006-04-23T14:22:49Z</time>
      </trkpt>
      <trkpt lat="45.69737434387207" lon="8.211979866027832">
        <ele>582.6962890625</ele>
        <time>2006-04-23T14:23:00Z</time>
      </trkpt>
      <trkpt lat="45.697524547576904" lon="8.211958408355713">
        <ele>583.657470703125</ele>
        <time>2006-04-23T14:23:12Z</time>
      </trkpt>
      <trkpt lat="45.697674751281738" lon="8.211936950683594">
        <ele>585.099609375</ele>
        <time>2006-04-23T14:23:23Z</time>
      </trkpt>
      <trkpt lat="45.697760581970215" lon="8.211894035339356">
        <ele>585.099609375</ele>
        <time>2006-04-23T14:23:31Z</time>
      </trkpt>
      <trkpt lat="45.697760581970215" lon="8.211851119995117">
        <ele>585.580078125</ele>
        <time>2006-04-23T14:23:33Z</time>
      </trkpt>
      <trkpt lat="45.697696208953857" lon="8.21178674697876">
        <ele>587.02197265625</ele>
        <time>2006-04-23T14:23:40Z</time>
      </trkpt>
      <trkpt lat="45.697546005249023" lon="8.21178674697876">
        <ele>587.502685546875</ele>
        <time>2006-04-23T14:23:51Z</time>
      </trkpt>
      <trkpt lat="45.697352886199951" lon="8.211808204650879">
        <ele>587.9833984375</ele>
        <time>2006-04-23T14:24:04Z</time>
      </trkpt>
      <trkpt lat="45.697224140167236" lon="8.211743831634522">
        <ele>588.945068359375</ele>
        <time>2006-04-23T14:24:13Z</time>
      </trkpt>
      <trkpt lat="45.69713830947876" lon="8.211636543273926">
        <ele>589.90625</ele>
        <time>2006-04-23T14:24:23Z</time>
      </trkpt>
      <trkpt lat="45.697052478790283" lon="8.21152925491333">
        <ele>590.386962890625</ele>
        <time>2006-04-23T14:24:32Z</time>
      </trkpt>
      <trkpt lat="45.697052478790283" lon="8.211443424224854">
        <ele>591.34814453125</ele>
        <time>2006-04-23T14:24:36Z</time>
      </trkpt>
      <trkpt lat="45.697116851806641" lon="8.211421966552734">
        <ele>592.3095703125</ele>
        <time>2006-04-23T14:24:43Z</time>
      </trkpt>
      <trkpt lat="45.69713830947876" lon="8.211464881896973">
        <ele>592.3095703125</ele>
        <time>2006-04-23T14:24:45Z</time>
      </trkpt>
      <trkpt lat="45.697288513183594" lon="8.211593627929688">
        <ele>594.712646484375</ele>
        <time>2006-04-23T14:24:58Z</time>
      </trkpt>
      <trkpt lat="45.697417259216309" lon="8.211572170257568">
        <ele>595.674072265625</ele>
        <time>2006-04-23T14:25:08Z</time>
      </trkpt>
      <trkpt lat="45.697588920593262" lon="8.211486339569092">
        <ele>597.115966796875</ele>
        <time>2006-04-23T14:25:21Z</time>
      </trkpt>
      <trkpt lat="45.697653293609619" lon="8.211400508880615">
        <ele>597.5966796875</ele>
        <time>2006-04-23T14:25:28Z</time>
      </trkpt>
      <trkpt lat="45.697588920593262" lon="8.211314678192139">
        <ele>598.557861328125</ele>
        <time>2006-04-23T14:25:35Z</time>
      </trkpt>
      <trkpt lat="45.697524547576904" lon="8.211336135864258">
        <ele>599.519287109375</ele>
        <time>2006-04-23T14:25:40Z</time>
      </trkpt>
      <trkpt lat="45.69737434387207" lon="8.211357593536377">
        <ele>600.961181640625</ele>
        <time>2006-04-23T14:25:51Z</time>
      </trkpt>
      <trkpt lat="45.697395801544189" lon="8.211228847503662">
        <ele>601.922607421875</ele>
        <time>2006-04-23T14:25:58Z</time>
      </trkpt>
      <trkpt lat="45.697438716888428" lon="8.211228847503662">
        <ele>602.403076171875</ele>
        <time>2006-04-23T14:26:01Z</time>
      </trkpt>
      <trkpt lat="45.697610378265381" lon="8.211121559143066">
        <ele>603.84521484375</ele>
        <time>2006-04-23T14:26:14Z</time>
      </trkpt>
      <trkpt lat="45.697674751281738" lon="8.210992813110352">
        <ele>605.76806640625</ele>
        <time>2006-04-23T14:26:23Z</time>
      </trkpt>
      <trkpt lat="45.697696208953857" lon="8.210799694061279">
        <ele>609.132568359375</ele>
        <time>2006-04-23T14:26:33Z</time>
      </trkpt>
      <trkpt lat="45.697653293609619" lon="8.210606575012207">
        <ele>612.0166015625</ele>
        <time>2006-04-23T14:26:44Z</time>
      </trkpt>
      <trkpt lat="45.697610378265381" lon="8.210520744323731">
        <ele>611.05517578125</ele>
        <time>2006-04-23T14:26:53Z</time>
      </trkpt>
      <trkpt lat="45.697610378265381" lon="8.21054220199585">
        <ele>611.05517578125</ele>
        <time>2006-04-23T14:27:01Z</time>
      </trkpt>
      <trkpt lat="45.697546005249023" lon="8.210477828979492">
        <ele>611.05517578125</ele>
        <time>2006-04-23T14:27:08Z</time>
      </trkpt>
      <trkpt lat="45.697460174560547" lon="8.210391998291016">
        <ele>610.09375</ele>
        <time>2006-04-23T14:27:14Z</time>
      </trkpt>
      <trkpt lat="45.697395801544189" lon="8.210370540618897">
        <ele>610.574462890625</ele>
        <time>2006-04-23T14:27:20Z</time>
      </trkpt>
      <trkpt lat="45.697352886199951" lon="8.210391998291016">
        <ele>613.45849609375</ele>
        <time>2006-04-23T14:27:51Z</time>
      </trkpt>
      <trkpt lat="45.697352886199951" lon="8.210306167602539">
        <ele>612.977783203125</ele>
        <time>2006-04-23T14:27:56Z</time>
      </trkpt>
      <trkpt lat="45.697460174560547" lon="8.210155963897705">
        <ele>611.535888671875</ele>
        <time>2006-04-23T14:28:04Z</time>
      </trkpt>
      <trkpt lat="45.697503089904785" lon="8.210134506225586">
        <ele>610.574462890625</ele>
        <time>2006-04-23T14:28:06Z</time>
      </trkpt>
      <trkpt lat="45.697460174560547" lon="8.209877014160156">
        <ele>608.65185546875</ele>
        <time>2006-04-23T14:28:11Z</time>
      </trkpt>
      <trkpt lat="45.697331428527832" lon="8.209726810455322">
        <ele>608.17138671875</ele>
        <time>2006-04-23T14:28:15Z</time>
      </trkpt>
      <trkpt lat="45.697224140167236" lon="8.209619522094727">
        <ele>606.729248046875</ele>
        <time>2006-04-23T14:28:18Z</time>
      </trkpt>
      <trkpt lat="45.697095394134521" lon="8.209426403045654">
        <ele>605.76806640625</ele>
        <time>2006-04-23T14:28:22Z</time>
      </trkpt>
      <trkpt lat="45.697031021118164" lon="8.209233283996582">
        <ele>604.806640625</ele>
        <time>2006-04-23T14:28:25Z</time>
      </trkpt>
      <trkpt lat="45.697095394134521" lon="8.209018707275391">
        <ele>604.326171875</ele>
        <time>2006-04-23T14:28:28Z</time>
      </trkpt>
      <trkpt lat="45.697395801544189" lon="8.208611011505127">
        <ele>603.364501953125</ele>
        <time>2006-04-23T14:28:35Z</time>
      </trkpt>
      <trkpt lat="45.697481632232666" lon="8.208417892456055">
        <ele>600</ele>
        <time>2006-04-23T14:28:44Z</time>
      </trkpt>
      <trkpt lat="45.697460174560547" lon="8.208417892456055">
        <ele>601.922607421875</ele>
        <time>2006-04-23T14:28:55Z</time>
      </trkpt>
      <trkpt lat="45.697438716888428" lon="8.208396434783936">
        <ele>595.193359375</ele>
        <time>2006-04-23T14:29:13Z</time>
      </trkpt>
      <trkpt lat="45.697352886199951" lon="8.208332061767578">
        <ele>596.635498046875</ele>
        <time>2006-04-23T14:29:23Z</time>
      </trkpt>
      <trkpt lat="45.697288513183594" lon="8.208310604095459">
        <ele>595.193359375</ele>
        <time>2006-04-23T14:29:34Z</time>
      </trkpt>
      <trkpt lat="45.697224140167236" lon="8.20828914642334">
        <ele>596.635498046875</ele>
        <time>2006-04-23T14:29:43Z</time>
      </trkpt>
      <trkpt lat="45.697159767150879" lon="8.208332061767578">
        <ele>598.077392578125</ele>
        <time>2006-04-23T14:29:54Z</time>
      </trkpt>
      <trkpt lat="45.697052478790283" lon="8.208310604095459">
        <ele>595.193359375</ele>
        <time>2006-04-23T14:30:04Z</time>
      </trkpt>
      <trkpt lat="45.696966648101807" lon="8.208246231079102">
        <ele>593.270751953125</ele>
        <time>2006-04-23T14:30:14Z</time>
      </trkpt>
      <trkpt lat="45.69688081741333" lon="8.208053112030029">
        <ele>593.270751953125</ele>
        <time>2006-04-23T14:30:25Z</time>
      </trkpt>
      <trkpt lat="45.69688081741333" lon="8.207817077636719">
        <ele>592.790283203125</ele>
        <time>2006-04-23T14:30:33Z</time>
      </trkpt>
      <trkpt lat="45.696945190429688" lon="8.207495212554932">
        <ele>593.75146484375</ele>
        <time>2006-04-23T14:30:43Z</time>
      </trkpt>
      <trkpt lat="45.697073936462402" lon="8.207302093505859">
        <ele>593.75146484375</ele>
        <time>2006-04-23T14:30:49Z</time>
      </trkpt>
      <trkpt lat="45.69713830947876" lon="8.207216262817383">
        <ele>594.232177734375</ele>
        <time>2006-04-23T14:30:54Z</time>
      </trkpt>
      <trkpt lat="45.69713830947876" lon="8.207151889801025">
        <ele>594.232177734375</ele>
        <time>2006-04-23T14:31:00Z</time>
      </trkpt>
      <trkpt lat="45.697116851806641" lon="8.207066059112549">
        <ele>596.15478515625</ele>
        <time>2006-04-23T14:31:09Z</time>
      </trkpt>
      <trkpt lat="45.697031021118164" lon="8.206980228424072">
        <ele>599.519287109375</ele>
        <time>2006-04-23T14:31:20Z</time>
      </trkpt>
      <trkpt lat="45.696966648101807" lon="8.206958770751953">
        <ele>600</ele>
        <time>2006-04-23T14:31:30Z</time>
      </trkpt>
      <trkpt lat="45.696923732757568" lon="8.206894397735596">
        <ele>599.519287109375</ele>
        <time>2006-04-23T14:31:40Z</time>
      </trkpt>
      <trkpt lat="45.696902275085449" lon="8.206872940063477">
        <ele>591.828857421875</ele>
        <time>2006-04-23T14:31:53Z</time>
      </trkpt>
      <trkpt lat="45.696859359741211" lon="8.206787109375">
        <ele>591.34814453125</ele>
        <time>2006-04-23T14:32:05Z</time>
      </trkpt>
      <trkpt lat="45.696816444396973" lon="8.206722736358643">
        <ele>596.635498046875</ele>
        <time>2006-04-23T14:32:15Z</time>
      </trkpt>
      <trkpt lat="45.696837902069092" lon="8.206636905670166">
        <ele>593.270751953125</ele>
        <time>2006-04-23T14:32:34Z</time>
      </trkpt>
      <trkpt lat="45.696794986724854" lon="8.206572532653809">
        <ele>599.03857421875</ele>
        <time>2006-04-23T14:32:42Z</time>
      </trkpt>
      <trkpt lat="45.696752071380615" lon="8.206486701965332">
        <ele>601.922607421875</ele>
        <time>2006-04-23T14:32:52Z</time>
      </trkpt>
      <trkpt lat="45.696687698364258" lon="8.206357955932617">
        <ele>608.17138671875</ele>
        <time>2006-04-23T14:33:06Z</time>
      </trkpt>
      <trkpt lat="45.696687698364258" lon="8.206207752227783">
        <ele>615.381103515625</ele>
        <time>2006-04-23T14:33:18Z</time>
      </trkpt>
      <trkpt lat="45.696666240692139" lon="8.205993175506592">
        <ele>615.86181640625</ele>
        <time>2006-04-23T14:33:33Z</time>
      </trkpt>
      <trkpt lat="45.696687698364258" lon="8.205735683441162">
        <ele>614.900390625</ele>
        <time>2006-04-23T14:33:49Z</time>
      </trkpt>
      <trkpt lat="45.696709156036377" lon="8.205628395080566">
        <ele>616.34228515625</ele>
        <time>2006-04-23T14:33:59Z</time>
      </trkpt>
      <trkpt lat="45.696794986724854" lon="8.205370903015137">
        <ele>616.822998046875</ele>
        <time>2006-04-23T14:34:11Z</time>
      </trkpt>
      <trkpt lat="45.696773529052734" lon="8.205327987670898">
        <ele>618.264892578125</ele>
        <time>2006-04-23T14:34:15Z</time>
      </trkpt>
      <trkpt lat="45.696752071380615" lon="8.205306529998779">
        <ele>617.3037109375</ele>
        <time>2006-04-23T14:34:18Z</time>
      </trkpt>
      <trkpt lat="45.69664478302002" lon="8.205327987670898">
        <ele>615.86181640625</ele>
        <time>2006-04-23T14:34:25Z</time>
      </trkpt>
      <trkpt lat="45.696408748626709" lon="8.205435276031494">
        <ele>614.419677734375</ele>
        <time>2006-04-23T14:34:35Z</time>
      </trkpt>
      <trkpt lat="45.696258544921875" lon="8.205521106719971">
        <ele>613.45849609375</ele>
        <time>2006-04-23T14:34:42Z</time>
      </trkpt>
      <trkpt lat="45.696172714233398" lon="8.205564022064209">
        <ele>614.419677734375</ele>
        <time>2006-04-23T14:34:47Z</time>
      </trkpt>
      <trkpt lat="45.69589376449585" lon="8.20580005645752">
        <ele>611.05517578125</ele>
        <time>2006-04-23T14:34:55Z</time>
      </trkpt>
      <trkpt lat="45.695679187774658" lon="8.205993175506592">
        <ele>609.61328125</ele>
        <time>2006-04-23T14:35:04Z</time>
      </trkpt>
      <trkpt lat="45.69563627243042" lon="8.205993175506592">
        <ele>609.132568359375</ele>
        <time>2006-04-23T14:35:06Z</time>
      </trkpt>
      <trkpt lat="45.695593357086182" lon="8.205928802490234">
        <ele>608.17138671875</ele>
        <time>2006-04-23T14:35:12Z</time>
      </trkpt>
      <trkpt lat="45.695486068725586" lon="8.205842971801758">
        <ele>605.76806640625</ele>
        <time>2006-04-23T14:35:23Z</time>
      </trkpt>
      <trkpt lat="45.695443153381348" lon="8.205649852752686">
        <ele>606.24853515625</ele>
        <time>2006-04-23T14:35:28Z</time>
      </trkpt>
      <trkpt lat="45.695421695709229" lon="8.205306529998779">
        <ele>606.729248046875</ele>
        <time>2006-04-23T14:35:36Z</time>
      </trkpt>
      <trkpt lat="45.695464611053467" lon="8.205070495605469">
        <ele>604.806640625</ele>
        <time>2006-04-23T14:35:43Z</time>
      </trkpt>
      <trkpt lat="45.695528984069824" lon="8.204662799835205">
        <ele>604.326171875</ele>
        <time>2006-04-23T14:35:52Z</time>
      </trkpt>
      <trkpt lat="45.695550441741943" lon="8.204555511474609">
        <ele>603.84521484375</ele>
        <time>2006-04-23T14:35:54Z</time>
      </trkpt>
      <trkpt lat="45.695464611053467" lon="8.204469680786133">
        <ele>604.326171875</ele>
        <time>2006-04-23T14:35:59Z</time>
      </trkpt>
      <trkpt lat="45.695357322692871" lon="8.204641342163086">
        <ele>603.364501953125</ele>
        <time>2006-04-23T14:36:07Z</time>
      </trkpt>
      <trkpt lat="45.695207118988037" lon="8.204770088195801">
        <ele>602.8837890625</ele>
        <time>2006-04-23T14:36:14Z</time>
      </trkpt>
      <trkpt lat="45.694906711578369" lon="8.204727172851563">
        <ele>600.480712890625</ele>
        <time>2006-04-23T14:36:23Z</time>
      </trkpt>
      <trkpt lat="45.694606304168701" lon="8.204770088195801">
        <ele>602.8837890625</ele>
        <time>2006-04-23T14:36:32Z</time>
      </trkpt>
      <trkpt lat="45.694370269775391" lon="8.204705715179443">
        <ele>601.44189453125</ele>
        <time>2006-04-23T14:36:39Z</time>
      </trkpt>
      <trkpt lat="45.694198608398438" lon="8.204684257507324">
        <ele>601.922607421875</ele>
        <time>2006-04-23T14:36:43Z</time>
      </trkpt>
      <trkpt lat="45.693984031677246" lon="8.204855918884277">
        <ele>600.480712890625</ele>
        <time>2006-04-23T14:36:50Z</time>
      </trkpt>
      <trkpt lat="45.693790912628174" lon="8.204941749572754">
        <ele>600.480712890625</ele>
        <time>2006-04-23T14:36:54Z</time>
      </trkpt>
      <trkpt lat="45.693597793579102" lon="8.205113410949707">
        <ele>599.03857421875</ele>
        <time>2006-04-23T14:36:59Z</time>
      </trkpt>
      <trkpt lat="45.693511962890625" lon="8.205006122589111">
        <ele>597.115966796875</ele>
        <time>2006-04-23T14:37:04Z</time>
      </trkpt>
      <trkpt lat="45.693511962890625" lon="8.204834461212158">
        <ele>595.674072265625</ele>
        <time>2006-04-23T14:37:09Z</time>
      </trkpt>
      <trkpt lat="45.693597793579102" lon="8.204641342163086">
        <ele>592.790283203125</ele>
        <time>2006-04-23T14:37:15Z</time>
      </trkpt>
      <trkpt lat="45.693790912628174" lon="8.204362392425537">
        <ele>591.34814453125</ele>
        <time>2006-04-23T14:37:21Z</time>
      </trkpt>
      <trkpt lat="45.693984031677246" lon="8.204169273376465">
        <ele>590.386962890625</ele>
        <time>2006-04-23T14:37:25Z</time>
      </trkpt>
      <trkpt lat="45.694048404693604" lon="8.203911781311035">
        <ele>589.90625</ele>
        <time>2006-04-23T14:37:29Z</time>
      </trkpt>
      <trkpt lat="45.693941116333008" lon="8.203847408294678">
        <ele>591.34814453125</ele>
        <time>2006-04-23T14:37:33Z</time>
      </trkpt>
      <trkpt lat="45.693919658660889" lon="8.203847408294678">
        <ele>591.828857421875</ele>
        <time>2006-04-23T14:37:36Z</time>
      </trkpt>
      <trkpt lat="45.69389820098877" lon="8.203868865966797">
        <ele>592.790283203125</ele>
        <time>2006-04-23T14:37:38Z</time>
      </trkpt>
      <trkpt lat="45.693769454956055" lon="8.203825950622559">
        <ele>591.828857421875</ele>
        <time>2006-04-23T14:37:50Z</time>
      </trkpt>
      <trkpt lat="45.693662166595459" lon="8.20380449295044">
        <ele>592.790283203125</ele>
        <time>2006-04-23T14:37:59Z</time>
      </trkpt>
      <trkpt lat="45.69364070892334" lon="8.20380449295044">
        <ele>592.3095703125</ele>
        <time>2006-04-23T14:38:02Z</time>
      </trkpt>
      <trkpt lat="45.693511962890625" lon="8.203933238983154">
        <ele>593.270751953125</ele>
        <time>2006-04-23T14:38:13Z</time>
      </trkpt>
      <trkpt lat="45.693361759185791" lon="8.203997611999512">
        <ele>595.193359375</ele>
        <time>2006-04-23T14:38:25Z</time>
      </trkpt>
      <trkpt lat="45.693211555480957" lon="8.20404052734375">
        <ele>597.5966796875</ele>
        <time>2006-04-23T14:38:37Z</time>
      </trkpt>
      <trkpt lat="45.693082809448242" lon="8.204126358032227">
        <ele>599.519287109375</ele>
        <time>2006-04-23T14:38:48Z</time>
      </trkpt>
      <trkpt lat="45.69288969039917" lon="8.204319477081299">
        <ele>600.480712890625</ele>
        <time>2006-04-23T14:39:00Z</time>
      </trkpt>
      <trkpt lat="45.692524909973145" lon="8.204491138458252">
        <ele>599.03857421875</ele>
        <time>2006-04-23T14:39:14Z</time>
      </trkpt>
      <trkpt lat="45.692439079284668" lon="8.204405307769775">
        <ele>599.519287109375</ele>
        <time>2006-04-23T14:39:19Z</time>
      </trkpt>
      <trkpt lat="45.69239616394043" lon="8.204190731048584">
        <ele>599.519287109375</ele>
        <time>2006-04-23T14:39:23Z</time>
      </trkpt>
      <trkpt lat="45.69239616394043" lon="8.203847408294678">
        <ele>599.03857421875</ele>
        <time>2006-04-23T14:39:28Z</time>
      </trkpt>
      <trkpt lat="45.692417621612549" lon="8.203697204589844">
        <ele>599.03857421875</ele>
        <time>2006-04-23T14:39:30Z</time>
      </trkpt>
      <trkpt lat="45.692524909973145" lon="8.203396797180176">
        <ele>597.115966796875</ele>
        <time>2006-04-23T14:39:35Z</time>
      </trkpt>
      <trkpt lat="45.692524909973145" lon="8.203096389770508">
        <ele>596.635498046875</ele>
        <time>2006-04-23T14:39:39Z</time>
      </trkpt>
      <trkpt lat="45.692374706268311" lon="8.203010559082031">
        <ele>594.712646484375</ele>
        <time>2006-04-23T14:39:44Z</time>
      </trkpt>
      <trkpt lat="45.692074298858643" lon="8.203096389770508">
        <ele>594.232177734375</ele>
        <time>2006-04-23T14:39:52Z</time>
      </trkpt>
      <trkpt lat="45.691838264465332" lon="8.203074932098389">
        <ele>595.193359375</ele>
        <time>2006-04-23T14:39:58Z</time>
      </trkpt>
      <trkpt lat="45.691752433776855" lon="8.203310966491699">
        <ele>595.674072265625</ele>
        <time>2006-04-23T14:40:04Z</time>
      </trkpt>
      <trkpt lat="45.691730976104736" lon="8.203439712524414">
        <ele>596.15478515625</ele>
        <time>2006-04-23T14:40:07Z</time>
      </trkpt>
      <trkpt lat="45.691559314727783" lon="8.203568458557129">
        <ele>597.5966796875</ele>
        <time>2006-04-23T14:40:13Z</time>
      </trkpt>
      <trkpt lat="45.691366195678711" lon="8.20354700088501">
        <ele>596.635498046875</ele>
        <time>2006-04-23T14:40:19Z</time>
      </trkpt>
      <trkpt lat="45.691108703613281" lon="8.203375339508057">
        <ele>593.75146484375</ele>
        <time>2006-04-23T14:40:26Z</time>
      </trkpt>
      <trkpt lat="45.690679550170898" lon="8.202946186065674">
        <ele>591.828857421875</ele>
        <time>2006-04-23T14:40:36Z</time>
      </trkpt>
      <trkpt lat="45.69063663482666" lon="8.202903270721436">
        <ele>592.3095703125</ele>
        <time>2006-04-23T14:40:37Z</time>
      </trkpt>
      <trkpt lat="45.690572261810303" lon="8.202667236328125">
        <ele>592.790283203125</ele>
        <time>2006-04-23T14:40:44Z</time>
      </trkpt>
      <trkpt lat="45.690486431121826" lon="8.202409744262695">
        <ele>593.75146484375</ele>
        <time>2006-04-23T14:40:53Z</time>
      </trkpt>
      <trkpt lat="45.690486431121826" lon="8.202173709869385">
        <ele>594.712646484375</ele>
        <time>2006-04-23T14:40:58Z</time>
      </trkpt>
      <trkpt lat="45.69040060043335" lon="8.202023506164551">
        <ele>593.75146484375</ele>
        <time>2006-04-23T14:41:02Z</time>
      </trkpt>
      <trkpt lat="45.689949989318848" lon="8.201980590820313">
        <ele>590.867431640625</ele>
        <time>2006-04-23T14:41:11Z</time>
      </trkpt>
      <trkpt lat="45.689520835876465" lon="8.20178747177124">
        <ele>588.945068359375</ele>
        <time>2006-04-23T14:41:18Z</time>
      </trkpt>
      <trkpt lat="45.689113140106201" lon="8.201766014099121">
        <ele>588.945068359375</ele>
        <time>2006-04-23T14:41:25Z</time>
      </trkpt>
      <trkpt lat="45.688920021057129" lon="8.201723098754883">
        <ele>588.945068359375</ele>
        <time>2006-04-23T14:41:30Z</time>
      </trkpt>
      <trkpt lat="45.688791275024414" lon="8.201680183410645">
        <ele>587.9833984375</ele>
        <time>2006-04-23T14:41:33Z</time>
      </trkpt>
      <trkpt lat="45.68864107131958" lon="8.201615810394287">
        <ele>587.02197265625</ele>
        <time>2006-04-23T14:41:37Z</time>
      </trkpt>
      <trkpt lat="45.68838357925415" lon="8.201229572296143">
        <ele>586.54150390625</ele>
        <time>2006-04-23T14:41:48Z</time>
      </trkpt>
      <trkpt lat="45.688340663909912" lon="8.20103645324707">
        <ele>587.9833984375</ele>
        <time>2006-04-23T14:41:53Z</time>
      </trkpt>
      <trkpt lat="45.688233375549316" lon="8.200972080230713">
        <ele>589.90625</ele>
        <time>2006-04-23T14:41:58Z</time>
      </trkpt>
      <trkpt lat="45.688211917877197" lon="8.200972080230713">
        <ele>589.90625</ele>
        <time>2006-04-23T14:41:59Z</time>
      </trkpt>
      <trkpt lat="45.687954425811768" lon="8.201143741607666">
        <ele>590.867431640625</ele>
        <time>2006-04-23T14:42:10Z</time>
      </trkpt>
      <trkpt lat="45.687804222106934" lon="8.201208114624023">
        <ele>590.867431640625</ele>
        <time>2006-04-23T14:42:16Z</time>
      </trkpt>
      <trkpt lat="45.687804222106934" lon="8.201122283935547">
        <ele>591.34814453125</ele>
        <time>2006-04-23T14:42:21Z</time>
      </trkpt>
      <trkpt lat="45.687804222106934" lon="8.201100826263428">
        <ele>591.34814453125</ele>
        <time>2006-04-23T14:42:22Z</time>
      </trkpt>
      <trkpt lat="45.687868595123291" lon="8.200907707214356">
        <ele>592.3095703125</ele>
        <time>2006-04-23T14:42:34Z</time>
      </trkpt>
      <trkpt lat="45.68789005279541" lon="8.200843334197998">
        <ele>592.790283203125</ele>
        <time>2006-04-23T14:42:41Z</time>
      </trkpt>
      <trkpt lat="45.687932968139648" lon="8.200671672821045">
        <ele>593.75146484375</ele>
        <time>2006-04-23T14:42:54Z</time>
      </trkpt>
      <trkpt lat="45.687997341156006" lon="8.200521469116211">
        <ele>595.193359375</ele>
        <time>2006-04-23T14:43:07Z</time>
      </trkpt>
      <trkpt lat="45.688018798828125" lon="8.200457096099854">
        <ele>596.15478515625</ele>
        <time>2006-04-23T14:43:11Z</time>
      </trkpt>
      <trkpt lat="45.687954425811768" lon="8.200457096099854">
        <ele>597.115966796875</ele>
        <time>2006-04-23T14:43:17Z</time>
      </trkpt>
      <trkpt lat="45.687804222106934" lon="8.200500011444092">
        <ele>597.115966796875</ele>
        <time>2006-04-23T14:43:23Z</time>
      </trkpt>
      <trkpt lat="45.687546730041504" lon="8.20054292678833">
        <ele>596.635498046875</ele>
        <time>2006-04-23T14:43:33Z</time>
      </trkpt>
      <trkpt lat="45.687375068664551" lon="8.200693130493164">
        <ele>594.712646484375</ele>
        <time>2006-04-23T14:43:40Z</time>
      </trkpt>
      <trkpt lat="45.687289237976074" lon="8.20080041885376">
        <ele>594.232177734375</ele>
        <time>2006-04-23T14:43:45Z</time>
      </trkpt>
      <trkpt lat="45.687267780303955" lon="8.200864791870117">
        <ele>595.674072265625</ele>
        <time>2006-04-23T14:43:54Z</time>
      </trkpt>
      <trkpt lat="45.687203407287598" lon="8.200929164886475">
        <ele>594.712646484375</ele>
        <time>2006-04-23T14:43:57Z</time>
      </trkpt>
      <trkpt lat="45.687096118927002" lon="8.201079368591309">
        <ele>594.232177734375</ele>
        <time>2006-04-23T14:44:00Z</time>
      </trkpt>
      <trkpt lat="45.686945915222168" lon="8.201208114624023">
        <ele>593.75146484375</ele>
        <time>2006-04-23T14:44:04Z</time>
      </trkpt>
      <trkpt lat="45.686881542205811" lon="8.201186656951904">
        <ele>594.232177734375</ele>
        <time>2006-04-23T14:44:06Z</time>
      </trkpt>
      <trkpt lat="45.686881542205811" lon="8.20103645324707">
        <ele>593.270751953125</ele>
        <time>2006-04-23T14:44:11Z</time>
      </trkpt>
      <trkpt lat="45.686817169189453" lon="8.200714588165283">
        <ele>590.386962890625</ele>
        <time>2006-04-23T14:44:20Z</time>
      </trkpt>
      <trkpt lat="45.686731338500977" lon="8.200092315673828">
        <ele>591.34814453125</ele>
        <time>2006-04-23T14:44:35Z</time>
      </trkpt>
      <trkpt lat="45.686559677124023" lon="8.199856281280518">
        <ele>593.270751953125</ele>
        <time>2006-04-23T14:44:44Z</time>
      </trkpt>
      <trkpt lat="45.686345100402832" lon="8.199899196624756">
        <ele>594.232177734375</ele>
        <time>2006-04-23T14:44:51Z</time>
      </trkpt>
      <trkpt lat="45.686044692993164" lon="8.199942111968994">
        <ele>594.712646484375</ele>
        <time>2006-04-23T14:44:57Z</time>
      </trkpt>
      <trkpt lat="45.685701370239258" lon="8.199770450592041">
        <ele>591.828857421875</ele>
        <time>2006-04-23T14:45:01Z</time>
      </trkpt>
      <trkpt lat="45.685358047485352" lon="8.19929838180542">
        <ele>588.46435546875</ele>
        <time>2006-04-23T14:45:06Z</time>
      </trkpt>
      <trkpt lat="45.685336589813232" lon="8.198955059051514">
        <ele>587.502685546875</ele>
        <time>2006-04-23T14:45:09Z</time>
      </trkpt>
      <trkpt lat="45.685293674468994" lon="8.198869228363037">
        <ele>588.46435546875</ele>
        <time>2006-04-23T14:45:10Z</time>
      </trkpt>
      <trkpt lat="45.685079097747803" lon="8.198912143707275">
        <ele>589.425537109375</ele>
        <time>2006-04-23T14:45:13Z</time>
      </trkpt>
      <trkpt lat="45.684800148010254" lon="8.198783397674561">
        <ele>588.945068359375</ele>
        <time>2006-04-23T14:45:18Z</time>
      </trkpt>
      <trkpt lat="45.684692859649658" lon="8.198440074920654">
        <ele>588.46435546875</ele>
        <time>2006-04-23T14:45:23Z</time>
      </trkpt>
      <trkpt lat="45.684564113616943" lon="8.198246955871582">
        <ele>587.9833984375</ele>
        <time>2006-04-23T14:45:27Z</time>
      </trkpt>
      <trkpt lat="45.684456825256348" lon="8.198139667510986">
        <ele>587.502685546875</ele>
        <time>2006-04-23T14:45:30Z</time>
      </trkpt>
      <trkpt lat="45.684370994567871" lon="8.197903633117676">
        <ele>587.502685546875</ele>
        <time>2006-04-23T14:45:34Z</time>
      </trkpt>
      <trkpt lat="45.684328079223633" lon="8.197710514068604">
        <ele>587.02197265625</ele>
        <time>2006-04-23T14:45:37Z</time>
      </trkpt>
      <trkpt lat="45.684092044830322" lon="8.197474479675293">
        <ele>586.060791015625</ele>
        <time>2006-04-23T14:45:43Z</time>
      </trkpt>
      <trkpt lat="45.684027671813965" lon="8.197431564331055">
        <ele>586.54150390625</ele>
        <time>2006-04-23T14:45:45Z</time>
      </trkpt>
      <trkpt lat="45.683684349060059" lon="8.197023868560791">
        <ele>585.580078125</ele>
        <time>2006-04-23T14:45:55Z</time>
      </trkpt>
      <trkpt lat="45.683748722076416" lon="8.196594715118408">
        <ele>585.580078125</ele>
        <time>2006-04-23T14:46:00Z</time>
      </trkpt>
      <trkpt lat="45.683877468109131" lon="8.196229934692383">
        <ele>585.580078125</ele>
        <time>2006-04-23T14:46:05Z</time>
      </trkpt>
      <trkpt lat="45.683856010437012" lon="8.19605827331543">
        <ele>583.657470703125</ele>
        <time>2006-04-23T14:46:10Z</time>
      </trkpt>
      <trkpt lat="45.683941841125488" lon="8.195822238922119">
        <ele>580.29296875</ele>
        <time>2006-04-23T14:46:15Z</time>
      </trkpt>
      <trkpt lat="45.683834552764893" lon="8.195693492889404">
        <ele>577.8896484375</ele>
        <time>2006-04-23T14:46:19Z</time>
      </trkpt>
      <trkpt lat="45.683770179748535" lon="8.19580078125">
        <ele>575.967041015625</ele>
        <time>2006-04-23T14:46:21Z</time>
      </trkpt>
      <trkpt lat="45.683577060699463" lon="8.195908069610596">
        <ele>571.160400390625</ele>
        <time>2006-04-23T14:46:26Z</time>
      </trkpt>
      <trkpt lat="45.683619976043701" lon="8.195693492889404">
        <ele>568.757080078125</ele>
        <time>2006-04-23T14:46:29Z</time>
      </trkpt>
      <trkpt lat="45.683662891387939" lon="8.195629119873047">
        <ele>567.795654296875</ele>
        <time>2006-04-23T14:46:30Z</time>
      </trkpt>
      <trkpt lat="45.68389892578125" lon="8.195285797119141">
        <ele>561.54736328125</ele>
        <time>2006-04-23T14:46:35Z</time>
      </trkpt>
      <trkpt lat="45.684006214141846" lon="8.195092678070068">
        <ele>559.624755859375</ele>
        <time>2006-04-23T14:46:38Z</time>
      </trkpt>
      <trkpt lat="45.684006214141846" lon="8.194642066955566">
        <ele>557.7021484375</ele>
        <time>2006-04-23T14:46:45Z</time>
      </trkpt>
      <trkpt lat="45.684070587158203" lon="8.194513320922852">
        <ele>556.260009765625</ele>
        <time>2006-04-23T14:46:49Z</time>
      </trkpt>
      <trkpt lat="45.68415641784668" lon="8.194642066955566">
        <ele>555.298583984375</ele>
        <time>2006-04-23T14:46:53Z</time>
      </trkpt>
      <trkpt lat="45.684285163879395" lon="8.194921016693115">
        <ele>553.3759765625</ele>
        <time>2006-04-23T14:46:59Z</time>
      </trkpt>
      <trkpt lat="45.684435367584229" lon="8.19481372833252">
        <ele>552.41455078125</ele>
        <time>2006-04-23T14:47:02Z</time>
      </trkpt>
      <trkpt lat="45.684843063354492" lon="8.194255828857422">
        <ele>548.0888671875</ele>
        <time>2006-04-23T14:47:13Z</time>
      </trkpt>
      <trkpt lat="45.685036182403564" lon="8.194148540496826">
        <ele>547.12744140625</ele>
        <time>2006-04-23T14:47:17Z</time>
      </trkpt>
      <trkpt lat="45.685229301452637" lon="8.194127082824707">
        <ele>545.204833984375</ele>
        <time>2006-04-23T14:47:21Z</time>
      </trkpt>
      <trkpt lat="45.68540096282959" lon="8.193998336791992">
        <ele>543.7628173828125</ele>
        <time>2006-04-23T14:47:25Z</time>
      </trkpt>
      <trkpt lat="45.685615539550781" lon="8.193655014038086">
        <ele>542.3209228515625</ele>
        <time>2006-04-23T14:47:31Z</time>
      </trkpt>
      <trkpt lat="45.685937404632568" lon="8.193762302398682">
        <ele>540.3983154296875</ele>
        <time>2006-04-23T14:47:36Z</time>
      </trkpt>
      <trkpt lat="45.686302185058594" lon="8.193783760070801">
        <ele>538.4757080078125</ele>
        <time>2006-04-23T14:47:41Z</time>
      </trkpt>
      <trkpt lat="45.686516761779785" lon="8.193762302398682">
        <ele>537.03369140625</ele>
        <time>2006-04-23T14:47:44Z</time>
      </trkpt>
      <trkpt lat="45.6866455078125" lon="8.193655014038086">
        <ele>536.0723876953125</ele>
        <time>2006-04-23T14:47:48Z</time>
      </trkpt>
      <trkpt lat="45.6866455078125" lon="8.193612098693848">
        <ele>536.0723876953125</ele>
        <time>2006-04-23T14:47:49Z</time>
      </trkpt>
      <trkpt lat="45.6866455078125" lon="8.193526268005371">
        <ele>536.0723876953125</ele>
        <time>2006-04-23T14:47:51Z</time>
      </trkpt>
      <trkpt lat="45.686495304107666" lon="8.193247318267822">
        <ele>535.591552734375</ele>
        <time>2006-04-23T14:48:00Z</time>
      </trkpt>
      <trkpt lat="45.686173439025879" lon="8.192989826202393">
        <ele>536.0723876953125</ele>
        <time>2006-04-23T14:48:14Z</time>
      </trkpt>
      <trkpt lat="45.686044692993164" lon="8.19279670715332">
        <ele>537.03369140625</ele>
        <time>2006-04-23T14:48:22Z</time>
      </trkpt>
      <trkpt lat="45.686023235321045" lon="8.192517757415772">
        <ele>536.5531005859375</ele>
        <time>2006-04-23T14:48:32Z</time>
      </trkpt>
      <trkpt lat="45.686044692993164" lon="8.192131519317627">
        <ele>536.5531005859375</ele>
        <time>2006-04-23T14:48:41Z</time>
      </trkpt>
      <trkpt lat="45.685915946960449" lon="8.191874027252197">
        <ele>535.591552734375</ele>
        <time>2006-04-23T14:48:46Z</time>
      </trkpt>
      <trkpt lat="45.685873031616211" lon="8.191852569580078">
        <ele>535.1109619140625</ele>
        <time>2006-04-23T14:48:47Z</time>
      </trkpt>
      <trkpt lat="45.685422420501709" lon="8.191637992858887">
        <ele>533.1883544921875</ele>
        <time>2006-04-23T14:48:55Z</time>
      </trkpt>
      <trkpt lat="45.685379505157471" lon="8.191616535186768">
        <ele>532.22705078125</ele>
        <time>2006-04-23T14:48:56Z</time>
      </trkpt>
      <trkpt lat="45.684993267059326" lon="8.191509246826172">
        <ele>528.862548828125</ele>
        <time>2006-04-23T14:49:02Z</time>
      </trkpt>
      <trkpt lat="45.684499740600586" lon="8.191337585449219">
        <ele>524.0557861328125</ele>
        <time>2006-04-23T14:49:10Z</time>
      </trkpt>
      <trkpt lat="45.684220790863037" lon="8.19105863571167">
        <ele>519.7298583984375</ele>
        <time>2006-04-23T14:49:15Z</time>
      </trkpt>
      <trkpt lat="45.684134960174561" lon="8.190929889678955">
        <ele>518.7685546875</ele>
        <time>2006-04-23T14:49:17Z</time>
      </trkpt>
      <trkpt lat="45.684092044830322" lon="8.190608024597168">
        <ele>515.404052734375</ele>
        <time>2006-04-23T14:49:21Z</time>
      </trkpt>
      <trkpt lat="45.684113502502441" lon="8.19056510925293">
        <ele>514.442626953125</ele>
        <time>2006-04-23T14:49:22Z</time>
      </trkpt>
      <trkpt lat="45.684220790863037" lon="8.190135955810547">
        <ele>507.7135009765625</ele>
        <time>2006-04-23T14:49:31Z</time>
      </trkpt>
      <trkpt lat="45.684370994567871" lon="8.189899921417236">
        <ele>505.7908935546875</ele>
        <time>2006-04-23T14:49:37Z</time>
      </trkpt>
      <trkpt lat="45.684778690338135" lon="8.189620971679688">
        <ele>501.945556640625</ele>
        <time>2006-04-23T14:49:43Z</time>
      </trkpt>
      <trkpt lat="45.685315132141113" lon="8.18932056427002">
        <ele>495.2161865234375</ele>
        <time>2006-04-23T14:49:48Z</time>
      </trkpt>
      <trkpt lat="45.685551166534424" lon="8.189234733581543">
        <ele>492.3323974609375</ele>
        <time>2006-04-23T14:49:50Z</time>
      </trkpt>
      <trkpt lat="45.685787200927734" lon="8.189020156860352">
        <ele>487.525634765625</ele>
        <time>2006-04-23T14:49:54Z</time>
      </trkpt>
      <trkpt lat="45.685830116271973" lon="8.188848495483398">
        <ele>485.1224365234375</ele>
        <time>2006-04-23T14:49:57Z</time>
      </trkpt>
      <trkpt lat="45.685830116271973" lon="8.188784122467041">
        <ele>484.641845703125</ele>
        <time>2006-04-23T14:50:00Z</time>
      </trkpt>
      <trkpt lat="45.685808658599854" lon="8.188741207122803">
        <ele>483.680419921875</ele>
        <time>2006-04-23T14:50:03Z</time>
      </trkpt>
      <trkpt lat="45.685615539550781" lon="8.188784122467041">
        <ele>479.8350830078125</ele>
        <time>2006-04-23T14:50:10Z</time>
      </trkpt>
      <trkpt lat="45.685358047485352" lon="8.188698291778565">
        <ele>475.9898681640625</ele>
        <time>2006-04-23T14:50:17Z</time>
      </trkpt>
      <trkpt lat="45.685036182403564" lon="8.188891410827637">
        <ele>473.586669921875</ele>
        <time>2006-04-23T14:50:24Z</time>
      </trkpt>
      <trkpt lat="45.68464994430542" lon="8.189148902893066">
        <ele>470.70263671875</ele>
        <time>2006-04-23T14:50:31Z</time>
      </trkpt>
      <trkpt lat="45.683813095092773" lon="8.189685344696045">
        <ele>467.8187255859375</ele>
        <time>2006-04-23T14:50:43Z</time>
      </trkpt>
      <trkpt lat="45.683748722076416" lon="8.189728260040283">
        <ele>467.8187255859375</ele>
        <time>2006-04-23T14:50:44Z</time>
      </trkpt>
      <trkpt lat="45.683598518371582" lon="8.189899921417236">
        <ele>464.4541015625</ele>
        <time>2006-04-23T14:50:50Z</time>
      </trkpt>
      <trkpt lat="45.683598518371582" lon="8.189921379089356">
        <ele>464.4541015625</ele>
        <time>2006-04-23T14:50:51Z</time>
      </trkpt>
      <trkpt lat="45.683577060699463" lon="8.189921379089356">
        <ele>463.4927978515625</ele>
        <time>2006-04-23T14:50:58Z</time>
      </trkpt>
      <trkpt lat="45.683577060699463" lon="8.189921379089356">
        <ele>463.4927978515625</ele>
        <time>2006-04-23T14:51:01Z</time>
      </trkpt>
      <trkpt lat="45.68364143371582" lon="8.189749717712402">
        <ele>459.6475830078125</ele>
        <time>2006-04-23T14:51:14Z</time>
      </trkpt>
      <trkpt lat="45.68364143371582" lon="8.189728260040283">
        <ele>459.1668701171875</ele>
        <time>2006-04-23T14:51:16Z</time>
      </trkpt>
      <trkpt lat="45.683555603027344" lon="8.189642429351807">
        <ele>456.7635498046875</ele>
        <time>2006-04-23T14:51:27Z</time>
      </trkpt>
      <trkpt lat="45.683469772338867" lon="8.189578056335449">
        <ele>454.8408203125</ele>
        <time>2006-04-23T14:51:40Z</time>
      </trkpt>
      <trkpt lat="45.683426856994629" lon="8.189535140991211">
        <ele>453.39892578125</ele>
        <time>2006-04-23T14:51:47Z</time>
      </trkpt>
    </trkseg>
  </trk>

</gpx>
